<?xml version="1.0" encoding="UTF-8" standalone="no" ?>
<gpx xmlns="http://www.topografix.com/GPX/1/1" xmlns:xsi="http://www.w3.org/2001/XMLSchema-instance" xsi:schemaLocation="http://www.topografix.com/GPX/1/1 http://www.topografix.com/GPX/1/1/gpx.xsd" version="1.1" creator="VisuGPX - https://www.visugpx.com">
  <metadata>
    <name>séjour en étoile au val stura 8-13 mai 2018 CAF SLV</name>
    <desc><![CDATA[Depuis le refuge du Dahu à San  Bernolfo 

trace 1 : [b]col de la Gercha[/b] (2458m) mercredi 9 mai 2018
trace 2 :[b] cime de Colle Longue[/b] ( 2760m) jeudi 10 mai 2018
trace3 : [b]autour des lacs du Lausfer[/b]  ( ~2800 m)vendredi 11 mai 2018
trace4 : [b]pas de Colle Longue et cime ouest de la tête de l'Autaret [/b](2754m) samedi 12 mai 2018
]]></desc>
  </metadata>
  <trk>
    <name><![CDATA[20180514195401-MUPu9]]></name>
    <trkseg>
      <trkpt lat="44.2608" lon="7.04366">
        <ele>1654.58</ele>
        <time>2018-05-12T04:46:57Z</time>
      </trkpt>
      <trkpt lat="44.26079" lon="7.04365">
        <ele>1654.55</ele>
        <time>2018-05-12T04:46:58Z</time>
      </trkpt>
      <trkpt lat="44.26062" lon="7.04356">
        <ele>1653.69</ele>
        <time>2018-05-12T04:47:14Z</time>
      </trkpt>
      <trkpt lat="44.26028" lon="7.04356">
        <ele>1654.31</ele>
        <time>2018-05-12T04:47:29Z</time>
      </trkpt>
      <trkpt lat="44.26019" lon="7.04345">
        <ele>1653.64</ele>
        <time>2018-05-12T04:47:42Z</time>
      </trkpt>
      <trkpt lat="44.26005" lon="7.04334">
        <ele>1653.47</ele>
        <time>2018-05-12T04:47:56Z</time>
      </trkpt>
      <trkpt lat="44.25993" lon="7.04322">
        <ele>1653.01</ele>
        <time>2018-05-12T04:48:11Z</time>
      </trkpt>
      <trkpt lat="44.2598" lon="7.04307">
        <ele>1652.47</ele>
        <time>2018-05-12T04:48:27Z</time>
      </trkpt>
      <trkpt lat="44.25964" lon="7.04295">
        <ele>1651.91</ele>
        <time>2018-05-12T04:48:43Z</time>
      </trkpt>
      <trkpt lat="44.25958" lon="7.04289">
        <ele>1651.85</ele>
        <time>2018-05-12T04:48:51Z</time>
      </trkpt>
      <trkpt lat="44.25937" lon="7.04279">
        <ele>1651.31</ele>
        <time>2018-05-12T04:49:07Z</time>
      </trkpt>
      <trkpt lat="44.25933" lon="7.04273">
        <ele>1651.21</ele>
        <time>2018-05-12T04:49:13Z</time>
      </trkpt>
      <trkpt lat="44.25921" lon="7.04262">
        <ele>1650.69</ele>
        <time>2018-05-12T04:49:28Z</time>
      </trkpt>
      <trkpt lat="44.25904" lon="7.04254">
        <ele>1650.24</ele>
        <time>2018-05-12T04:49:41Z</time>
      </trkpt>
      <trkpt lat="44.25894" lon="7.04235">
        <ele>1649.33</ele>
        <time>2018-05-12T04:49:53Z</time>
      </trkpt>
      <trkpt lat="44.25888" lon="7.04224">
        <ele>1648.85</ele>
        <time>2018-05-12T04:50:02Z</time>
      </trkpt>
      <trkpt lat="44.25879" lon="7.04214">
        <ele>1648.13</ele>
        <time>2018-05-12T04:50:15Z</time>
      </trkpt>
      <trkpt lat="44.25858" lon="7.04217">
        <ele>1647.96</ele>
        <time>2018-05-12T04:50:35Z</time>
      </trkpt>
      <trkpt lat="44.25839" lon="7.04232">
        <ele>1647.04</ele>
        <time>2018-05-12T04:50:57Z</time>
      </trkpt>
      <trkpt lat="44.25835" lon="7.0426">
        <ele>1645.46</ele>
        <time>2018-05-12T04:51:20Z</time>
      </trkpt>
      <trkpt lat="44.25845" lon="7.04284">
        <ele>1643.8</ele>
        <time>2018-05-12T04:51:47Z</time>
      </trkpt>
      <trkpt lat="44.25845" lon="7.04284">
        <ele>1643.25</ele>
        <time>2018-05-12T04:51:49Z</time>
      </trkpt>
      <trkpt lat="44.25844" lon="7.04284">
        <ele>1642.85</ele>
        <time>2018-05-12T04:51:59Z</time>
      </trkpt>
      <trkpt lat="44.25844" lon="7.04286">
        <ele>1643.68</ele>
        <time>2018-05-12T04:52:16Z</time>
      </trkpt>
      <trkpt lat="44.25846" lon="7.04282">
        <ele>1643.49</ele>
        <time>2018-05-12T04:52:36Z</time>
      </trkpt>
      <trkpt lat="44.25846" lon="7.04282">
        <ele>1643.72</ele>
        <time>2018-05-12T04:52:39Z</time>
      </trkpt>
      <trkpt lat="44.25839" lon="7.04287">
        <ele>1642.91</ele>
        <time>2018-05-12T04:52:57Z</time>
      </trkpt>
      <trkpt lat="44.25839" lon="7.04288">
        <ele>1643.27</ele>
        <time>2018-05-12T04:53:06Z</time>
      </trkpt>
      <trkpt lat="44.25838" lon="7.04289">
        <ele>1643.29</ele>
        <time>2018-05-12T04:53:09Z</time>
      </trkpt>
      <trkpt lat="44.25843" lon="7.04288">
        <ele>1643.2</ele>
        <time>2018-05-12T04:53:28Z</time>
      </trkpt>
      <trkpt lat="44.25851" lon="7.04287">
        <ele>1643.19</ele>
        <time>2018-05-12T04:53:44Z</time>
      </trkpt>
      <trkpt lat="44.25853" lon="7.04287">
        <ele>1642.52</ele>
        <time>2018-05-12T04:53:53Z</time>
      </trkpt>
      <trkpt lat="44.25847" lon="7.04299">
        <ele>1642.96</ele>
        <time>2018-05-12T04:54:16Z</time>
      </trkpt>
      <trkpt lat="44.25855" lon="7.04326">
        <ele>1641.28</ele>
        <time>2018-05-12T04:54:38Z</time>
      </trkpt>
      <trkpt lat="44.25855" lon="7.04351">
        <ele>1640.3</ele>
        <time>2018-05-12T04:54:55Z</time>
      </trkpt>
      <trkpt lat="44.2586" lon="7.04375">
        <ele>1638.94</ele>
        <time>2018-05-12T04:55:17Z</time>
      </trkpt>
      <trkpt lat="44.2587" lon="7.04392">
        <ele>1637.93</ele>
        <time>2018-05-12T04:55:36Z</time>
      </trkpt>
      <trkpt lat="44.25879" lon="7.04404">
        <ele>1637.22</ele>
        <time>2018-05-12T04:55:46Z</time>
      </trkpt>
      <trkpt lat="44.2588" lon="7.0441">
        <ele>1637.2</ele>
        <time>2018-05-12T04:55:53Z</time>
      </trkpt>
      <trkpt lat="44.2588" lon="7.04415">
        <ele>1636.82</ele>
        <time>2018-05-12T04:55:56Z</time>
      </trkpt>
      <trkpt lat="44.2588" lon="7.04423">
        <ele>1636.65</ele>
        <time>2018-05-12T04:56:01Z</time>
      </trkpt>
      <trkpt lat="44.25878" lon="7.04435">
        <ele>1635.85</ele>
        <time>2018-05-12T04:56:10Z</time>
      </trkpt>
      <trkpt lat="44.25878" lon="7.04445">
        <ele>1635.43</ele>
        <time>2018-05-12T04:56:18Z</time>
      </trkpt>
      <trkpt lat="44.25876" lon="7.04464">
        <ele>1634.47</ele>
        <time>2018-05-12T04:56:32Z</time>
      </trkpt>
      <trkpt lat="44.2587" lon="7.04485">
        <ele>1632.97</ele>
        <time>2018-05-12T04:56:51Z</time>
      </trkpt>
      <trkpt lat="44.25864" lon="7.04502">
        <ele>1632.06</ele>
        <time>2018-05-12T04:57:09Z</time>
      </trkpt>
      <trkpt lat="44.25852" lon="7.04516">
        <ele>1632.74</ele>
        <time>2018-05-12T04:57:30Z</time>
      </trkpt>
      <trkpt lat="44.25845" lon="7.04524">
        <ele>1634.35</ele>
        <time>2018-05-12T04:57:52Z</time>
      </trkpt>
      <trkpt lat="44.25839" lon="7.04539">
        <ele>1636.32</ele>
        <time>2018-05-12T04:58:14Z</time>
      </trkpt>
      <trkpt lat="44.2583" lon="7.04549">
        <ele>1637.31</ele>
        <time>2018-05-12T04:58:33Z</time>
      </trkpt>
      <trkpt lat="44.2583" lon="7.04559">
        <ele>1638.93</ele>
        <time>2018-05-12T04:58:52Z</time>
      </trkpt>
      <trkpt lat="44.25826" lon="7.04569">
        <ele>1640.41</ele>
        <time>2018-05-12T04:59:10Z</time>
      </trkpt>
      <trkpt lat="44.25821" lon="7.04582">
        <ele>1642.02</ele>
        <time>2018-05-12T04:59:28Z</time>
      </trkpt>
      <trkpt lat="44.25814" lon="7.04593">
        <ele>1644.06</ele>
        <time>2018-05-12T04:59:49Z</time>
      </trkpt>
      <trkpt lat="44.25807" lon="7.04609">
        <ele>1646.38</ele>
        <time>2018-05-12T05:00:14Z</time>
      </trkpt>
      <trkpt lat="44.25803" lon="7.04619">
        <ele>1647.95</ele>
        <time>2018-05-12T05:00:31Z</time>
      </trkpt>
      <trkpt lat="44.25802" lon="7.04624">
        <ele>1648.77</ele>
        <time>2018-05-12T05:00:40Z</time>
      </trkpt>
      <trkpt lat="44.25799" lon="7.04635">
        <ele>1650.66</ele>
        <time>2018-05-12T05:00:56Z</time>
      </trkpt>
      <trkpt lat="44.25791" lon="7.04653">
        <ele>1652.79</ele>
        <time>2018-05-12T05:01:21Z</time>
      </trkpt>
      <trkpt lat="44.25788" lon="7.04661">
        <ele>1653.28</ele>
        <time>2018-05-12T05:01:46Z</time>
      </trkpt>
      <trkpt lat="44.25773" lon="7.0466">
        <ele>1653.56</ele>
        <time>2018-05-12T05:02:11Z</time>
      </trkpt>
      <trkpt lat="44.25772" lon="7.04663">
        <ele>1653.95</ele>
        <time>2018-05-12T05:02:14Z</time>
      </trkpt>
      <trkpt lat="44.25773" lon="7.04669">
        <ele>1654.77</ele>
        <time>2018-05-12T05:02:22Z</time>
      </trkpt>
      <trkpt lat="44.25775" lon="7.04683">
        <ele>1656.13</ele>
        <time>2018-05-12T05:02:36Z</time>
      </trkpt>
      <trkpt lat="44.25774" lon="7.04693">
        <ele>1657.24</ele>
        <time>2018-05-12T05:02:46Z</time>
      </trkpt>
      <trkpt lat="44.25772" lon="7.04697">
        <ele>1657.48</ele>
        <time>2018-05-12T05:02:49Z</time>
      </trkpt>
      <trkpt lat="44.25766" lon="7.04711">
        <ele>1659.03</ele>
        <time>2018-05-12T05:03:04Z</time>
      </trkpt>
      <trkpt lat="44.2576" lon="7.04717">
        <ele>1660.01</ele>
        <time>2018-05-12T05:03:13Z</time>
      </trkpt>
      <trkpt lat="44.2575" lon="7.04728">
        <ele>1661.4</ele>
        <time>2018-05-12T05:03:27Z</time>
      </trkpt>
      <trkpt lat="44.25743" lon="7.04735">
        <ele>1662.73</ele>
        <time>2018-05-12T05:03:39Z</time>
      </trkpt>
      <trkpt lat="44.25741" lon="7.04741">
        <ele>1663.33</ele>
        <time>2018-05-12T05:03:45Z</time>
      </trkpt>
      <trkpt lat="44.25735" lon="7.04757">
        <ele>1665.3</ele>
        <time>2018-05-12T05:04:03Z</time>
      </trkpt>
      <trkpt lat="44.25724" lon="7.04773">
        <ele>1668.43</ele>
        <time>2018-05-12T05:04:32Z</time>
      </trkpt>
      <trkpt lat="44.2571" lon="7.04794">
        <ele>1671.47</ele>
        <time>2018-05-12T05:05:02Z</time>
      </trkpt>
      <trkpt lat="44.25695" lon="7.04803">
        <ele>1674.54</ele>
        <time>2018-05-12T05:05:32Z</time>
      </trkpt>
      <trkpt lat="44.25689" lon="7.04804">
        <ele>1675.26</ele>
        <time>2018-05-12T05:05:39Z</time>
      </trkpt>
      <trkpt lat="44.25667" lon="7.04812">
        <ele>1678.13</ele>
        <time>2018-05-12T05:06:06Z</time>
      </trkpt>
      <trkpt lat="44.2565" lon="7.04831">
        <ele>1680.3</ele>
        <time>2018-05-12T05:06:32Z</time>
      </trkpt>
      <trkpt lat="44.25636" lon="7.04845">
        <ele>1683.32</ele>
        <time>2018-05-12T05:07:00Z</time>
      </trkpt>
      <trkpt lat="44.25626" lon="7.04848">
        <ele>1686.21</ele>
        <time>2018-05-12T05:07:27Z</time>
      </trkpt>
      <trkpt lat="44.25611" lon="7.04865">
        <ele>1688.92</ele>
        <time>2018-05-12T05:07:54Z</time>
      </trkpt>
      <trkpt lat="44.25598" lon="7.04884">
        <ele>1691.32</ele>
        <time>2018-05-12T05:08:20Z</time>
      </trkpt>
      <trkpt lat="44.25587" lon="7.04897">
        <ele>1694.14</ele>
        <time>2018-05-12T05:08:47Z</time>
      </trkpt>
      <trkpt lat="44.25578" lon="7.04912">
        <ele>1696.48</ele>
        <time>2018-05-12T05:09:11Z</time>
      </trkpt>
      <trkpt lat="44.25571" lon="7.04921">
        <ele>1698</ele>
        <time>2018-05-12T05:09:27Z</time>
      </trkpt>
      <trkpt lat="44.25564" lon="7.04929">
        <ele>1699.72</ele>
        <time>2018-05-12T05:09:40Z</time>
      </trkpt>
      <trkpt lat="44.25559" lon="7.0494">
        <ele>1700.92</ele>
        <time>2018-05-12T05:09:52Z</time>
      </trkpt>
      <trkpt lat="44.25552" lon="7.04949">
        <ele>1702.58</ele>
        <time>2018-05-12T05:10:12Z</time>
      </trkpt>
      <trkpt lat="44.25552" lon="7.04935">
        <ele>1704.26</ele>
        <time>2018-05-12T05:10:36Z</time>
      </trkpt>
      <trkpt lat="44.25554" lon="7.04913">
        <ele>1706.42</ele>
        <time>2018-05-12T05:11:03Z</time>
      </trkpt>
      <trkpt lat="44.25553" lon="7.04906">
        <ele>1706.94</ele>
        <time>2018-05-12T05:11:31Z</time>
      </trkpt>
      <trkpt lat="44.25556" lon="7.04896">
        <ele>1708.68</ele>
        <time>2018-05-12T05:12:00Z</time>
      </trkpt>
      <trkpt lat="44.25557" lon="7.04897">
        <ele>1708.78</ele>
        <time>2018-05-12T05:12:28Z</time>
      </trkpt>
      <trkpt lat="44.25555" lon="7.04899">
        <ele>1708.99</ele>
        <time>2018-05-12T05:12:42Z</time>
      </trkpt>
      <trkpt lat="44.25556" lon="7.04897">
        <ele>1708.53</ele>
        <time>2018-05-12T05:13:12Z</time>
      </trkpt>
      <trkpt lat="44.25557" lon="7.04897">
        <ele>1708.6</ele>
        <time>2018-05-12T05:13:41Z</time>
      </trkpt>
      <trkpt lat="44.25556" lon="7.04886">
        <ele>1709.39</ele>
        <time>2018-05-12T05:14:04Z</time>
      </trkpt>
      <trkpt lat="44.25556" lon="7.04885">
        <ele>1709.48</ele>
        <time>2018-05-12T05:14:06Z</time>
      </trkpt>
      <trkpt lat="44.25556" lon="7.04872">
        <ele>1710.9</ele>
        <time>2018-05-12T05:14:19Z</time>
      </trkpt>
      <trkpt lat="44.25557" lon="7.04862">
        <ele>1712.21</ele>
        <time>2018-05-12T05:14:31Z</time>
      </trkpt>
      <trkpt lat="44.25557" lon="7.04851">
        <ele>1713.1</ele>
        <time>2018-05-12T05:14:45Z</time>
      </trkpt>
      <trkpt lat="44.25559" lon="7.04841">
        <ele>1714.64</ele>
        <time>2018-05-12T05:14:59Z</time>
      </trkpt>
      <trkpt lat="44.25571" lon="7.0482">
        <ele>1716.38</ele>
        <time>2018-05-12T05:15:25Z</time>
      </trkpt>
      <trkpt lat="44.25585" lon="7.0481">
        <ele>1718.46</ele>
        <time>2018-05-12T05:15:47Z</time>
      </trkpt>
      <trkpt lat="44.25588" lon="7.04796">
        <ele>1720.36</ele>
        <time>2018-05-12T05:16:14Z</time>
      </trkpt>
      <trkpt lat="44.25593" lon="7.04783">
        <ele>1722.5</ele>
        <time>2018-05-12T05:16:35Z</time>
      </trkpt>
      <trkpt lat="44.25588" lon="7.04785">
        <ele>1724.61</ele>
        <time>2018-05-12T05:16:55Z</time>
      </trkpt>
      <trkpt lat="44.25579" lon="7.04798">
        <ele>1725.46</ele>
        <time>2018-05-12T05:17:16Z</time>
      </trkpt>
      <trkpt lat="44.2557" lon="7.04804">
        <ele>1726.83</ele>
        <time>2018-05-12T05:17:39Z</time>
      </trkpt>
      <trkpt lat="44.25556" lon="7.04813">
        <ele>1728.7</ele>
        <time>2018-05-12T05:18:02Z</time>
      </trkpt>
      <trkpt lat="44.25545" lon="7.04824">
        <ele>1730.39</ele>
        <time>2018-05-12T05:18:24Z</time>
      </trkpt>
      <trkpt lat="44.25539" lon="7.04832">
        <ele>1731.02</ele>
        <time>2018-05-12T05:18:38Z</time>
      </trkpt>
      <trkpt lat="44.25537" lon="7.04833">
        <ele>1731.66</ele>
        <time>2018-05-12T05:19:08Z</time>
      </trkpt>
      <trkpt lat="44.25527" lon="7.04847">
        <ele>1733.37</ele>
        <time>2018-05-12T05:19:34Z</time>
      </trkpt>
      <trkpt lat="44.25525" lon="7.04854">
        <ele>1733.57</ele>
        <time>2018-05-12T05:19:57Z</time>
      </trkpt>
      <trkpt lat="44.25526" lon="7.04851">
        <ele>1733.81</ele>
        <time>2018-05-12T05:20:21Z</time>
      </trkpt>
      <trkpt lat="44.25514" lon="7.04855">
        <ele>1735.81</ele>
        <time>2018-05-12T05:20:44Z</time>
      </trkpt>
      <trkpt lat="44.25502" lon="7.04857">
        <ele>1738.36</ele>
        <time>2018-05-12T05:21:07Z</time>
      </trkpt>
      <trkpt lat="44.25494" lon="7.04854">
        <ele>1740.65</ele>
        <time>2018-05-12T05:21:30Z</time>
      </trkpt>
      <trkpt lat="44.25492" lon="7.04842">
        <ele>1743.44</ele>
        <time>2018-05-12T05:21:52Z</time>
      </trkpt>
      <trkpt lat="44.25494" lon="7.0483">
        <ele>1746.41</ele>
        <time>2018-05-12T05:22:16Z</time>
      </trkpt>
      <trkpt lat="44.25501" lon="7.04816">
        <ele>1748.25</ele>
        <time>2018-05-12T05:22:39Z</time>
      </trkpt>
      <trkpt lat="44.25497" lon="7.04818">
        <ele>1751.25</ele>
        <time>2018-05-12T05:23:03Z</time>
      </trkpt>
      <trkpt lat="44.25484" lon="7.04824">
        <ele>1754.18</ele>
        <time>2018-05-12T05:23:24Z</time>
      </trkpt>
      <trkpt lat="44.25474" lon="7.04826">
        <ele>1756.3</ele>
        <time>2018-05-12T05:23:46Z</time>
      </trkpt>
      <trkpt lat="44.25469" lon="7.04825">
        <ele>1758.59</ele>
        <time>2018-05-12T05:24:04Z</time>
      </trkpt>
      <trkpt lat="44.25459" lon="7.04835">
        <ele>1761.06</ele>
        <time>2018-05-12T05:24:27Z</time>
      </trkpt>
      <trkpt lat="44.25452" lon="7.04838">
        <ele>1764.04</ele>
        <time>2018-05-12T05:24:50Z</time>
      </trkpt>
      <trkpt lat="44.25442" lon="7.04832">
        <ele>1766.94</ele>
        <time>2018-05-12T05:25:13Z</time>
      </trkpt>
      <trkpt lat="44.25437" lon="7.04829">
        <ele>1769.96</ele>
        <time>2018-05-12T05:25:34Z</time>
      </trkpt>
      <trkpt lat="44.25434" lon="7.04829">
        <ele>1770.48</ele>
        <time>2018-05-12T05:25:38Z</time>
      </trkpt>
      <trkpt lat="44.25431" lon="7.0483">
        <ele>1771.39</ele>
        <time>2018-05-12T05:25:44Z</time>
      </trkpt>
      <trkpt lat="44.25418" lon="7.04824">
        <ele>1774.28</ele>
        <time>2018-05-12T05:26:07Z</time>
      </trkpt>
      <trkpt lat="44.25414" lon="7.04823">
        <ele>1775.42</ele>
        <time>2018-05-12T05:26:23Z</time>
      </trkpt>
      <trkpt lat="44.25411" lon="7.04828">
        <ele>1775.02</ele>
        <time>2018-05-12T05:26:46Z</time>
      </trkpt>
      <trkpt lat="44.25408" lon="7.04827">
        <ele>1775.19</ele>
        <time>2018-05-12T05:27:10Z</time>
      </trkpt>
      <trkpt lat="44.25409" lon="7.0483">
        <ele>1774.96</ele>
        <time>2018-05-12T05:27:37Z</time>
      </trkpt>
      <trkpt lat="44.25413" lon="7.04827">
        <ele>1775.43</ele>
        <time>2018-05-12T05:28:03Z</time>
      </trkpt>
      <trkpt lat="44.25407" lon="7.04821">
        <ele>1775.05</ele>
        <time>2018-05-12T05:28:31Z</time>
      </trkpt>
      <trkpt lat="44.25409" lon="7.04825">
        <ele>1775.31</ele>
        <time>2018-05-12T05:28:56Z</time>
      </trkpt>
      <trkpt lat="44.25408" lon="7.04822">
        <ele>1774.54</ele>
        <time>2018-05-12T05:29:21Z</time>
      </trkpt>
      <trkpt lat="44.25413" lon="7.04828">
        <ele>1774.72</ele>
        <time>2018-05-12T05:29:45Z</time>
      </trkpt>
      <trkpt lat="44.2541" lon="7.04832">
        <ele>1774.97</ele>
        <time>2018-05-12T05:30:12Z</time>
      </trkpt>
      <trkpt lat="44.25412" lon="7.04822">
        <ele>1775.36</ele>
        <time>2018-05-12T05:30:43Z</time>
      </trkpt>
      <trkpt lat="44.25408" lon="7.04822">
        <ele>1775.24</ele>
        <time>2018-05-12T05:31:16Z</time>
      </trkpt>
      <trkpt lat="44.25398" lon="7.04822">
        <ele>1775.44</ele>
        <time>2018-05-12T05:31:39Z</time>
      </trkpt>
      <trkpt lat="44.25382" lon="7.04824">
        <ele>1777.24</ele>
        <time>2018-05-12T05:32:03Z</time>
      </trkpt>
      <trkpt lat="44.25372" lon="7.04828">
        <ele>1779.8</ele>
        <time>2018-05-12T05:32:22Z</time>
      </trkpt>
      <trkpt lat="44.2536" lon="7.04828">
        <ele>1782.55</ele>
        <time>2018-05-12T05:32:45Z</time>
      </trkpt>
      <trkpt lat="44.25344" lon="7.04827">
        <ele>1784</ele>
        <time>2018-05-12T05:33:10Z</time>
      </trkpt>
      <trkpt lat="44.25329" lon="7.0483">
        <ele>1786.76</ele>
        <time>2018-05-12T05:33:32Z</time>
      </trkpt>
      <trkpt lat="44.25316" lon="7.0482">
        <ele>1789.79</ele>
        <time>2018-05-12T05:33:59Z</time>
      </trkpt>
      <trkpt lat="44.25307" lon="7.04815">
        <ele>1792.39</ele>
        <time>2018-05-12T05:34:19Z</time>
      </trkpt>
      <trkpt lat="44.25299" lon="7.04809">
        <ele>1795.26</ele>
        <time>2018-05-12T05:34:38Z</time>
      </trkpt>
      <trkpt lat="44.2529" lon="7.04804">
        <ele>1798.27</ele>
        <time>2018-05-12T05:35:00Z</time>
      </trkpt>
      <trkpt lat="44.25281" lon="7.04807">
        <ele>1801.33</ele>
        <time>2018-05-12T05:35:22Z</time>
      </trkpt>
      <trkpt lat="44.25279" lon="7.04801">
        <ele>1803.31</ele>
        <time>2018-05-12T05:35:40Z</time>
      </trkpt>
      <trkpt lat="44.25271" lon="7.04795">
        <ele>1806.06</ele>
        <time>2018-05-12T05:36:00Z</time>
      </trkpt>
      <trkpt lat="44.25266" lon="7.0478">
        <ele>1807.68</ele>
        <time>2018-05-12T05:36:20Z</time>
      </trkpt>
      <trkpt lat="44.25261" lon="7.04776">
        <ele>1810.76</ele>
        <time>2018-05-12T05:36:41Z</time>
      </trkpt>
      <trkpt lat="44.25248" lon="7.04779">
        <ele>1813.81</ele>
        <time>2018-05-12T05:37:07Z</time>
      </trkpt>
      <trkpt lat="44.25243" lon="7.04774">
        <ele>1816.44</ele>
        <time>2018-05-12T05:37:31Z</time>
      </trkpt>
      <trkpt lat="44.25243" lon="7.04758">
        <ele>1819.48</ele>
        <time>2018-05-12T05:37:52Z</time>
      </trkpt>
      <trkpt lat="44.25236" lon="7.04756">
        <ele>1822.32</ele>
        <time>2018-05-12T05:38:15Z</time>
      </trkpt>
      <trkpt lat="44.25237" lon="7.04739">
        <ele>1825.07</ele>
        <time>2018-05-12T05:38:39Z</time>
      </trkpt>
      <trkpt lat="44.25224" lon="7.04743">
        <ele>1828.14</ele>
        <time>2018-05-12T05:39:01Z</time>
      </trkpt>
      <trkpt lat="44.25214" lon="7.04739">
        <ele>1831.24</ele>
        <time>2018-05-12T05:39:24Z</time>
      </trkpt>
      <trkpt lat="44.25216" lon="7.04729">
        <ele>1833.4</ele>
        <time>2018-05-12T05:39:40Z</time>
      </trkpt>
      <trkpt lat="44.25207" lon="7.04724">
        <ele>1836.54</ele>
        <time>2018-05-12T05:40:03Z</time>
      </trkpt>
      <trkpt lat="44.25209" lon="7.04712">
        <ele>1838.48</ele>
        <time>2018-05-12T05:40:22Z</time>
      </trkpt>
      <trkpt lat="44.2521" lon="7.04698">
        <ele>1841.39</ele>
        <time>2018-05-12T05:40:44Z</time>
      </trkpt>
      <trkpt lat="44.25209" lon="7.04686">
        <ele>1844.57</ele>
        <time>2018-05-12T05:41:06Z</time>
      </trkpt>
      <trkpt lat="44.252" lon="7.04689">
        <ele>1846.53</ele>
        <time>2018-05-12T05:41:24Z</time>
      </trkpt>
      <trkpt lat="44.25195" lon="7.04682">
        <ele>1848.55</ele>
        <time>2018-05-12T05:41:42Z</time>
      </trkpt>
      <trkpt lat="44.25202" lon="7.04667">
        <ele>1850.22</ele>
        <time>2018-05-12T05:42:02Z</time>
      </trkpt>
      <trkpt lat="44.25201" lon="7.04649">
        <ele>1852.53</ele>
        <time>2018-05-12T05:42:26Z</time>
      </trkpt>
      <trkpt lat="44.25194" lon="7.04642">
        <ele>1854.53</ele>
        <time>2018-05-12T05:42:44Z</time>
      </trkpt>
      <trkpt lat="44.25184" lon="7.04636">
        <ele>1856.43</ele>
        <time>2018-05-12T05:43:03Z</time>
      </trkpt>
      <trkpt lat="44.25179" lon="7.04619">
        <ele>1858.5</ele>
        <time>2018-05-12T05:43:24Z</time>
      </trkpt>
      <trkpt lat="44.25173" lon="7.04611">
        <ele>1860.85</ele>
        <time>2018-05-12T05:43:43Z</time>
      </trkpt>
      <trkpt lat="44.25169" lon="7.04601">
        <ele>1863.08</ele>
        <time>2018-05-12T05:44:01Z</time>
      </trkpt>
      <trkpt lat="44.2516" lon="7.04601">
        <ele>1865.91</ele>
        <time>2018-05-12T05:44:20Z</time>
      </trkpt>
      <trkpt lat="44.25152" lon="7.046">
        <ele>1867.38</ele>
        <time>2018-05-12T05:44:32Z</time>
      </trkpt>
      <trkpt lat="44.25139" lon="7.04599">
        <ele>1868.97</ele>
        <time>2018-05-12T05:44:55Z</time>
      </trkpt>
      <trkpt lat="44.2513" lon="7.04597">
        <ele>1871.15</ele>
        <time>2018-05-12T05:45:13Z</time>
      </trkpt>
      <trkpt lat="44.25121" lon="7.04596">
        <ele>1873.18</ele>
        <time>2018-05-12T05:45:31Z</time>
      </trkpt>
      <trkpt lat="44.25111" lon="7.04594">
        <ele>1875.19</ele>
        <time>2018-05-12T05:45:50Z</time>
      </trkpt>
      <trkpt lat="44.25099" lon="7.04592">
        <ele>1877.93</ele>
        <time>2018-05-12T05:46:13Z</time>
      </trkpt>
      <trkpt lat="44.25095" lon="7.04603">
        <ele>1879.82</ele>
        <time>2018-05-12T05:46:35Z</time>
      </trkpt>
      <trkpt lat="44.25093" lon="7.04614">
        <ele>1881.31</ele>
        <time>2018-05-12T05:46:51Z</time>
      </trkpt>
      <trkpt lat="44.25086" lon="7.04645">
        <ele>1883.43</ele>
        <time>2018-05-12T05:47:10Z</time>
      </trkpt>
      <trkpt lat="44.25078" lon="7.04653">
        <ele>1885.39</ele>
        <time>2018-05-12T05:47:30Z</time>
      </trkpt>
      <trkpt lat="44.25065" lon="7.04659">
        <ele>1886.17</ele>
        <time>2018-05-12T05:47:53Z</time>
      </trkpt>
      <trkpt lat="44.25055" lon="7.04661">
        <ele>1888.07</ele>
        <time>2018-05-12T05:48:12Z</time>
      </trkpt>
      <trkpt lat="44.25041" lon="7.04666">
        <ele>1890.71</ele>
        <time>2018-05-12T05:48:35Z</time>
      </trkpt>
      <trkpt lat="44.2503" lon="7.04669">
        <ele>1892.95</ele>
        <time>2018-05-12T05:48:57Z</time>
      </trkpt>
      <trkpt lat="44.2502" lon="7.04674">
        <ele>1895.05</ele>
        <time>2018-05-12T05:49:18Z</time>
      </trkpt>
      <trkpt lat="44.25012" lon="7.04682">
        <ele>1896.95</ele>
        <time>2018-05-12T05:49:37Z</time>
      </trkpt>
      <trkpt lat="44.25004" lon="7.0469">
        <ele>1898.89</ele>
        <time>2018-05-12T05:49:54Z</time>
      </trkpt>
      <trkpt lat="44.24994" lon="7.04698">
        <ele>1900.38</ele>
        <time>2018-05-12T05:50:10Z</time>
      </trkpt>
      <trkpt lat="44.24982" lon="7.04703">
        <ele>1902.89</ele>
        <time>2018-05-12T05:50:31Z</time>
      </trkpt>
      <trkpt lat="44.2497" lon="7.04705">
        <ele>1905.59</ele>
        <time>2018-05-12T05:50:53Z</time>
      </trkpt>
      <trkpt lat="44.24961" lon="7.04709">
        <ele>1908.48</ele>
        <time>2018-05-12T05:51:14Z</time>
      </trkpt>
      <trkpt lat="44.2495" lon="7.04712">
        <ele>1910.24</ele>
        <time>2018-05-12T05:51:32Z</time>
      </trkpt>
      <trkpt lat="44.24938" lon="7.04715">
        <ele>1912.37</ele>
        <time>2018-05-12T05:51:52Z</time>
      </trkpt>
      <trkpt lat="44.24932" lon="7.04717">
        <ele>1912.39</ele>
        <time>2018-05-12T05:52:12Z</time>
      </trkpt>
      <trkpt lat="44.24937" lon="7.04714">
        <ele>1912.59</ele>
        <time>2018-05-12T05:52:38Z</time>
      </trkpt>
      <trkpt lat="44.24934" lon="7.04713">
        <ele>1912.37</ele>
        <time>2018-05-12T05:53:03Z</time>
      </trkpt>
      <trkpt lat="44.24921" lon="7.04717">
        <ele>1912.93</ele>
        <time>2018-05-12T05:53:24Z</time>
      </trkpt>
      <trkpt lat="44.249" lon="7.04723">
        <ele>1913.25</ele>
        <time>2018-05-12T05:53:46Z</time>
      </trkpt>
      <trkpt lat="44.24882" lon="7.04732">
        <ele>1913.95</ele>
        <time>2018-05-12T05:54:06Z</time>
      </trkpt>
      <trkpt lat="44.24868" lon="7.0474">
        <ele>1914.08</ele>
        <time>2018-05-12T05:54:26Z</time>
      </trkpt>
      <trkpt lat="44.24861" lon="7.04741">
        <ele>1914.33</ele>
        <time>2018-05-12T05:54:45Z</time>
      </trkpt>
      <trkpt lat="44.24857" lon="7.0474">
        <ele>1914.48</ele>
        <time>2018-05-12T05:55:10Z</time>
      </trkpt>
      <trkpt lat="44.24851" lon="7.04743">
        <ele>1913.66</ele>
        <time>2018-05-12T05:55:32Z</time>
      </trkpt>
      <trkpt lat="44.24849" lon="7.04745">
        <ele>1914.03</ele>
        <time>2018-05-12T05:56:00Z</time>
      </trkpt>
      <trkpt lat="44.2485" lon="7.04747">
        <ele>1913.91</ele>
        <time>2018-05-12T05:56:29Z</time>
      </trkpt>
      <trkpt lat="44.24855" lon="7.04743">
        <ele>1913.87</ele>
        <time>2018-05-12T05:57:00Z</time>
      </trkpt>
      <trkpt lat="44.24851" lon="7.04745">
        <ele>1913.62</ele>
        <time>2018-05-12T05:57:30Z</time>
      </trkpt>
      <trkpt lat="44.24849" lon="7.04745">
        <ele>1913.35</ele>
        <time>2018-05-12T05:57:51Z</time>
      </trkpt>
      <trkpt lat="44.24844" lon="7.04745">
        <ele>1913.02</ele>
        <time>2018-05-12T05:58:07Z</time>
      </trkpt>
      <trkpt lat="44.24837" lon="7.04771">
        <ele>1909.77</ele>
        <time>2018-05-12T05:58:19Z</time>
      </trkpt>
      <trkpt lat="44.24834" lon="7.04795">
        <ele>1907.87</ele>
        <time>2018-05-12T05:58:32Z</time>
      </trkpt>
      <trkpt lat="44.24833" lon="7.04809">
        <ele>1906.07</ele>
        <time>2018-05-12T05:58:35Z</time>
      </trkpt>
      <trkpt lat="44.24829" lon="7.04812">
        <ele>1904.85</ele>
        <time>2018-05-12T05:58:39Z</time>
      </trkpt>
      <trkpt lat="44.24824" lon="7.04798">
        <ele>1902.91</ele>
        <time>2018-05-12T05:58:49Z</time>
      </trkpt>
      <trkpt lat="44.2482" lon="7.04785">
        <ele>1902.39</ele>
        <time>2018-05-12T05:59:01Z</time>
      </trkpt>
      <trkpt lat="44.24819" lon="7.04765">
        <ele>1900.95</ele>
        <time>2018-05-12T05:59:13Z</time>
      </trkpt>
      <trkpt lat="44.24806" lon="7.04747">
        <ele>1898.73</ele>
        <time>2018-05-12T05:59:32Z</time>
      </trkpt>
      <trkpt lat="44.24793" lon="7.04739">
        <ele>1896.99</ele>
        <time>2018-05-12T05:59:47Z</time>
      </trkpt>
      <trkpt lat="44.2478" lon="7.04735">
        <ele>1896.97</ele>
        <time>2018-05-12T06:00:01Z</time>
      </trkpt>
      <trkpt lat="44.24766" lon="7.04727">
        <ele>1897.97</ele>
        <time>2018-05-12T06:00:19Z</time>
      </trkpt>
      <trkpt lat="44.24755" lon="7.04717">
        <ele>1898.86</ele>
        <time>2018-05-12T06:00:35Z</time>
      </trkpt>
      <trkpt lat="44.24744" lon="7.04706">
        <ele>1898.47</ele>
        <time>2018-05-12T06:00:50Z</time>
      </trkpt>
      <trkpt lat="44.24731" lon="7.04698">
        <ele>1898.28</ele>
        <time>2018-05-12T06:01:09Z</time>
      </trkpt>
      <trkpt lat="44.2472" lon="7.04689">
        <ele>1898.71</ele>
        <time>2018-05-12T06:01:26Z</time>
      </trkpt>
      <trkpt lat="44.24706" lon="7.04679">
        <ele>1899.63</ele>
        <time>2018-05-12T06:01:44Z</time>
      </trkpt>
      <trkpt lat="44.24695" lon="7.04666">
        <ele>1901.12</ele>
        <time>2018-05-12T06:02:05Z</time>
      </trkpt>
      <trkpt lat="44.24678" lon="7.04665">
        <ele>1902.64</ele>
        <time>2018-05-12T06:02:23Z</time>
      </trkpt>
      <trkpt lat="44.24678" lon="7.04665">
        <ele>1902.65</ele>
        <time>2018-05-12T06:02:24Z</time>
      </trkpt>
      <trkpt lat="44.24671" lon="7.04663">
        <ele>1903.55</ele>
        <time>2018-05-12T06:02:34Z</time>
      </trkpt>
      <trkpt lat="44.24668" lon="7.04664">
        <ele>1904</ele>
        <time>2018-05-12T06:02:38Z</time>
      </trkpt>
      <trkpt lat="44.24665" lon="7.04663">
        <ele>1904.19</ele>
        <time>2018-05-12T06:02:42Z</time>
      </trkpt>
      <trkpt lat="44.24656" lon="7.04657">
        <ele>1905.29</ele>
        <time>2018-05-12T06:02:57Z</time>
      </trkpt>
      <trkpt lat="44.24645" lon="7.0465">
        <ele>1907.17</ele>
        <time>2018-05-12T06:03:16Z</time>
      </trkpt>
      <trkpt lat="44.24634" lon="7.04643">
        <ele>1907.99</ele>
        <time>2018-05-12T06:03:32Z</time>
      </trkpt>
      <trkpt lat="44.24625" lon="7.04638">
        <ele>1908.58</ele>
        <time>2018-05-12T06:03:45Z</time>
      </trkpt>
      <trkpt lat="44.24618" lon="7.04633">
        <ele>1910.2</ele>
        <time>2018-05-12T06:03:59Z</time>
      </trkpt>
      <trkpt lat="44.24607" lon="7.04628">
        <ele>1911.79</ele>
        <time>2018-05-12T06:04:15Z</time>
      </trkpt>
      <trkpt lat="44.24601" lon="7.04621">
        <ele>1913.15</ele>
        <time>2018-05-12T06:04:30Z</time>
      </trkpt>
      <trkpt lat="44.2459" lon="7.04617">
        <ele>1914.98</ele>
        <time>2018-05-12T06:04:47Z</time>
      </trkpt>
      <trkpt lat="44.2458" lon="7.04606">
        <ele>1916.32</ele>
        <time>2018-05-12T06:05:03Z</time>
      </trkpt>
      <trkpt lat="44.24566" lon="7.04601">
        <ele>1918.93</ele>
        <time>2018-05-12T06:05:26Z</time>
      </trkpt>
      <trkpt lat="44.24558" lon="7.04599">
        <ele>1920.94</ele>
        <time>2018-05-12T06:05:40Z</time>
      </trkpt>
      <trkpt lat="44.24546" lon="7.04593">
        <ele>1921.95</ele>
        <time>2018-05-12T06:05:56Z</time>
      </trkpt>
      <trkpt lat="44.24543" lon="7.04591">
        <ele>1922.34</ele>
        <time>2018-05-12T06:06:00Z</time>
      </trkpt>
      <trkpt lat="44.24539" lon="7.04591">
        <ele>1922.87</ele>
        <time>2018-05-12T06:06:06Z</time>
      </trkpt>
      <trkpt lat="44.24531" lon="7.04587">
        <ele>1924.08</ele>
        <time>2018-05-12T06:06:18Z</time>
      </trkpt>
      <trkpt lat="44.24522" lon="7.04575">
        <ele>1925.08</ele>
        <time>2018-05-12T06:06:35Z</time>
      </trkpt>
      <trkpt lat="44.2451" lon="7.04574">
        <ele>1926.63</ele>
        <time>2018-05-12T06:06:51Z</time>
      </trkpt>
      <trkpt lat="44.24493" lon="7.04574">
        <ele>1928.55</ele>
        <time>2018-05-12T06:07:12Z</time>
      </trkpt>
      <trkpt lat="44.24482" lon="7.04571">
        <ele>1930.05</ele>
        <time>2018-05-12T06:07:28Z</time>
      </trkpt>
      <trkpt lat="44.24471" lon="7.04566">
        <ele>1931.02</ele>
        <time>2018-05-12T06:07:47Z</time>
      </trkpt>
      <trkpt lat="44.24458" lon="7.0456">
        <ele>1932.51</ele>
        <time>2018-05-12T06:08:05Z</time>
      </trkpt>
      <trkpt lat="44.24446" lon="7.04556">
        <ele>1933.39</ele>
        <time>2018-05-12T06:08:20Z</time>
      </trkpt>
      <trkpt lat="44.24437" lon="7.04554">
        <ele>1934.86</ele>
        <time>2018-05-12T06:08:35Z</time>
      </trkpt>
      <trkpt lat="44.24436" lon="7.0455">
        <ele>1935.7</ele>
        <time>2018-05-12T06:08:51Z</time>
      </trkpt>
      <trkpt lat="44.24431" lon="7.04556">
        <ele>1934.9</ele>
        <time>2018-05-12T06:09:16Z</time>
      </trkpt>
      <trkpt lat="44.24425" lon="7.04547">
        <ele>1936.84</ele>
        <time>2018-05-12T06:09:35Z</time>
      </trkpt>
      <trkpt lat="44.24422" lon="7.04545">
        <ele>1937.24</ele>
        <time>2018-05-12T06:09:39Z</time>
      </trkpt>
      <trkpt lat="44.24409" lon="7.0454">
        <ele>1938.5</ele>
        <time>2018-05-12T06:09:55Z</time>
      </trkpt>
      <trkpt lat="44.24402" lon="7.04533">
        <ele>1939.85</ele>
        <time>2018-05-12T06:10:10Z</time>
      </trkpt>
      <trkpt lat="44.24393" lon="7.04527">
        <ele>1941.19</ele>
        <time>2018-05-12T06:10:24Z</time>
      </trkpt>
      <trkpt lat="44.24386" lon="7.04519">
        <ele>1942.53</ele>
        <time>2018-05-12T06:10:39Z</time>
      </trkpt>
      <trkpt lat="44.24377" lon="7.04512">
        <ele>1943.99</ele>
        <time>2018-05-12T06:10:56Z</time>
      </trkpt>
      <trkpt lat="44.24364" lon="7.04507">
        <ele>1946.91</ele>
        <time>2018-05-12T06:11:18Z</time>
      </trkpt>
      <trkpt lat="44.24354" lon="7.04502">
        <ele>1948.34</ele>
        <time>2018-05-12T06:11:33Z</time>
      </trkpt>
      <trkpt lat="44.24344" lon="7.04493">
        <ele>1949.59</ele>
        <time>2018-05-12T06:11:51Z</time>
      </trkpt>
      <trkpt lat="44.24337" lon="7.04486">
        <ele>1951.17</ele>
        <time>2018-05-12T06:12:07Z</time>
      </trkpt>
      <trkpt lat="44.24327" lon="7.04476">
        <ele>1953.07</ele>
        <time>2018-05-12T06:12:26Z</time>
      </trkpt>
      <trkpt lat="44.24319" lon="7.04468">
        <ele>1954.74</ele>
        <time>2018-05-12T06:12:42Z</time>
      </trkpt>
      <trkpt lat="44.2431" lon="7.04461">
        <ele>1956.67</ele>
        <time>2018-05-12T06:13:00Z</time>
      </trkpt>
      <trkpt lat="44.24301" lon="7.04451">
        <ele>1958.9</ele>
        <time>2018-05-12T06:13:19Z</time>
      </trkpt>
      <trkpt lat="44.24291" lon="7.04445">
        <ele>1960.15</ele>
        <time>2018-05-12T06:13:35Z</time>
      </trkpt>
      <trkpt lat="44.24283" lon="7.0444">
        <ele>1962.02</ele>
        <time>2018-05-12T06:13:50Z</time>
      </trkpt>
      <trkpt lat="44.24274" lon="7.04434">
        <ele>1963.45</ele>
        <time>2018-05-12T06:14:07Z</time>
      </trkpt>
      <trkpt lat="44.24266" lon="7.04427">
        <ele>1965.22</ele>
        <time>2018-05-12T06:14:22Z</time>
      </trkpt>
      <trkpt lat="44.24257" lon="7.04417">
        <ele>1967.02</ele>
        <time>2018-05-12T06:14:41Z</time>
      </trkpt>
      <trkpt lat="44.24247" lon="7.04411">
        <ele>1969.12</ele>
        <time>2018-05-12T06:14:58Z</time>
      </trkpt>
      <trkpt lat="44.24237" lon="7.04406">
        <ele>1971</ele>
        <time>2018-05-12T06:15:15Z</time>
      </trkpt>
      <trkpt lat="44.2423" lon="7.04402">
        <ele>1972.77</ele>
        <time>2018-05-12T06:15:30Z</time>
      </trkpt>
      <trkpt lat="44.24221" lon="7.04398">
        <ele>1974.73</ele>
        <time>2018-05-12T06:15:48Z</time>
      </trkpt>
      <trkpt lat="44.24211" lon="7.04394">
        <ele>1976.97</ele>
        <time>2018-05-12T06:16:07Z</time>
      </trkpt>
      <trkpt lat="44.24201" lon="7.04389">
        <ele>1978.69</ele>
        <time>2018-05-12T06:16:24Z</time>
      </trkpt>
      <trkpt lat="44.24193" lon="7.04386">
        <ele>1980.53</ele>
        <time>2018-05-12T06:16:40Z</time>
      </trkpt>
      <trkpt lat="44.24183" lon="7.04378">
        <ele>1982.39</ele>
        <time>2018-05-12T06:16:57Z</time>
      </trkpt>
      <trkpt lat="44.24173" lon="7.0437">
        <ele>1983.71</ele>
        <time>2018-05-12T06:17:15Z</time>
      </trkpt>
      <trkpt lat="44.24167" lon="7.04365">
        <ele>1985.24</ele>
        <time>2018-05-12T06:17:30Z</time>
      </trkpt>
      <trkpt lat="44.24157" lon="7.04361">
        <ele>1986.76</ele>
        <time>2018-05-12T06:17:46Z</time>
      </trkpt>
      <trkpt lat="44.24145" lon="7.04355">
        <ele>1989.04</ele>
        <time>2018-05-12T06:18:07Z</time>
      </trkpt>
      <trkpt lat="44.24134" lon="7.04346">
        <ele>1991.33</ele>
        <time>2018-05-12T06:18:29Z</time>
      </trkpt>
      <trkpt lat="44.24125" lon="7.0434">
        <ele>1992.21</ele>
        <time>2018-05-12T06:18:45Z</time>
      </trkpt>
      <trkpt lat="44.24117" lon="7.04329">
        <ele>1993.61</ele>
        <time>2018-05-12T06:19:01Z</time>
      </trkpt>
      <trkpt lat="44.24108" lon="7.04323">
        <ele>1995.17</ele>
        <time>2018-05-12T06:19:17Z</time>
      </trkpt>
      <trkpt lat="44.24098" lon="7.04314">
        <ele>1996.87</ele>
        <time>2018-05-12T06:19:34Z</time>
      </trkpt>
      <trkpt lat="44.24087" lon="7.04309">
        <ele>1998.64</ele>
        <time>2018-05-12T06:19:51Z</time>
      </trkpt>
      <trkpt lat="44.24076" lon="7.04298">
        <ele>2001.06</ele>
        <time>2018-05-12T06:20:13Z</time>
      </trkpt>
      <trkpt lat="44.24067" lon="7.04292">
        <ele>2002.86</ele>
        <time>2018-05-12T06:20:30Z</time>
      </trkpt>
      <trkpt lat="44.24057" lon="7.04282">
        <ele>2005.3</ele>
        <time>2018-05-12T06:20:52Z</time>
      </trkpt>
      <trkpt lat="44.24048" lon="7.04276">
        <ele>2007.07</ele>
        <time>2018-05-12T06:21:11Z</time>
      </trkpt>
      <trkpt lat="44.2404" lon="7.04268">
        <ele>2009.07</ele>
        <time>2018-05-12T06:21:26Z</time>
      </trkpt>
      <trkpt lat="44.24015" lon="7.04252">
        <ele>2010.59</ele>
        <time>2018-05-12T06:21:43Z</time>
      </trkpt>
      <trkpt lat="44.2402" lon="7.04249">
        <ele>2012.24</ele>
        <time>2018-05-12T06:21:59Z</time>
      </trkpt>
      <trkpt lat="44.24016" lon="7.04236">
        <ele>2014.23</ele>
        <time>2018-05-12T06:22:18Z</time>
      </trkpt>
      <trkpt lat="44.24007" lon="7.04226">
        <ele>2015.64</ele>
        <time>2018-05-12T06:22:36Z</time>
      </trkpt>
      <trkpt lat="44.23997" lon="7.04217">
        <ele>2017.26</ele>
        <time>2018-05-12T06:22:56Z</time>
      </trkpt>
      <trkpt lat="44.23988" lon="7.04201">
        <ele>2020.34</ele>
        <time>2018-05-12T06:23:21Z</time>
      </trkpt>
      <trkpt lat="44.2398" lon="7.04193">
        <ele>2021.65</ele>
        <time>2018-05-12T06:23:36Z</time>
      </trkpt>
      <trkpt lat="44.23967" lon="7.04182">
        <ele>2022.77</ele>
        <time>2018-05-12T06:23:55Z</time>
      </trkpt>
      <trkpt lat="44.23959" lon="7.04172">
        <ele>2024.12</ele>
        <time>2018-05-12T06:24:11Z</time>
      </trkpt>
      <trkpt lat="44.2395" lon="7.04161">
        <ele>2025.62</ele>
        <time>2018-05-12T06:24:28Z</time>
      </trkpt>
      <trkpt lat="44.23941" lon="7.04154">
        <ele>2026.51</ele>
        <time>2018-05-12T06:24:41Z</time>
      </trkpt>
      <trkpt lat="44.23932" lon="7.0414">
        <ele>2027.33</ele>
        <time>2018-05-12T06:24:58Z</time>
      </trkpt>
      <trkpt lat="44.2392" lon="7.04129">
        <ele>2028.8</ele>
        <time>2018-05-12T06:25:19Z</time>
      </trkpt>
      <trkpt lat="44.2391" lon="7.04124">
        <ele>2031.22</ele>
        <time>2018-05-12T06:25:37Z</time>
      </trkpt>
      <trkpt lat="44.23901" lon="7.04118">
        <ele>2032.99</ele>
        <time>2018-05-12T06:25:54Z</time>
      </trkpt>
      <trkpt lat="44.2389" lon="7.04109">
        <ele>2035.35</ele>
        <time>2018-05-12T06:26:16Z</time>
      </trkpt>
      <trkpt lat="44.23882" lon="7.04102">
        <ele>2037.38</ele>
        <time>2018-05-12T06:26:35Z</time>
      </trkpt>
      <trkpt lat="44.23875" lon="7.04093">
        <ele>2039.31</ele>
        <time>2018-05-12T06:26:51Z</time>
      </trkpt>
      <trkpt lat="44.23867" lon="7.04088">
        <ele>2041.36</ele>
        <time>2018-05-12T06:27:07Z</time>
      </trkpt>
      <trkpt lat="44.2386" lon="7.04084">
        <ele>2043.93</ele>
        <time>2018-05-12T06:27:24Z</time>
      </trkpt>
      <trkpt lat="44.23853" lon="7.04079">
        <ele>2046.41</ele>
        <time>2018-05-12T06:27:40Z</time>
      </trkpt>
      <trkpt lat="44.23846" lon="7.04074">
        <ele>2048.95</ele>
        <time>2018-05-12T06:27:57Z</time>
      </trkpt>
      <trkpt lat="44.23835" lon="7.04067">
        <ele>2051.75</ele>
        <time>2018-05-12T06:28:17Z</time>
      </trkpt>
      <trkpt lat="44.23824" lon="7.04064">
        <ele>2054.29</ele>
        <time>2018-05-12T06:28:36Z</time>
      </trkpt>
      <trkpt lat="44.23814" lon="7.04059">
        <ele>2057.04</ele>
        <time>2018-05-12T06:28:56Z</time>
      </trkpt>
      <trkpt lat="44.23802" lon="7.04054">
        <ele>2060.1</ele>
        <time>2018-05-12T06:29:19Z</time>
      </trkpt>
      <trkpt lat="44.23791" lon="7.0405">
        <ele>2062.3</ele>
        <time>2018-05-12T06:29:38Z</time>
      </trkpt>
      <trkpt lat="44.23781" lon="7.04039">
        <ele>2064.98</ele>
        <time>2018-05-12T06:30:01Z</time>
      </trkpt>
      <trkpt lat="44.23769" lon="7.04034">
        <ele>2067.42</ele>
        <time>2018-05-12T06:30:22Z</time>
      </trkpt>
      <trkpt lat="44.23757" lon="7.04031">
        <ele>2069.54</ele>
        <time>2018-05-12T06:30:40Z</time>
      </trkpt>
      <trkpt lat="44.23748" lon="7.04022">
        <ele>2072.07</ele>
        <time>2018-05-12T06:31:00Z</time>
      </trkpt>
      <trkpt lat="44.23739" lon="7.04018">
        <ele>2074.44</ele>
        <time>2018-05-12T06:31:18Z</time>
      </trkpt>
      <trkpt lat="44.23731" lon="7.04009">
        <ele>2077.13</ele>
        <time>2018-05-12T06:31:37Z</time>
      </trkpt>
      <trkpt lat="44.23722" lon="7.04003">
        <ele>2079.3</ele>
        <time>2018-05-12T06:31:54Z</time>
      </trkpt>
      <trkpt lat="44.23714" lon="7.03994">
        <ele>2081.89</ele>
        <time>2018-05-12T06:32:14Z</time>
      </trkpt>
      <trkpt lat="44.23705" lon="7.03992">
        <ele>2083.88</ele>
        <time>2018-05-12T06:32:30Z</time>
      </trkpt>
      <trkpt lat="44.23693" lon="7.03984">
        <ele>2086.29</ele>
        <time>2018-05-12T06:32:51Z</time>
      </trkpt>
      <trkpt lat="44.23684" lon="7.0398">
        <ele>2089.02</ele>
        <time>2018-05-12T06:33:12Z</time>
      </trkpt>
      <trkpt lat="44.23674" lon="7.03975">
        <ele>2091.62</ele>
        <time>2018-05-12T06:33:33Z</time>
      </trkpt>
      <trkpt lat="44.23662" lon="7.03968">
        <ele>2094.38</ele>
        <time>2018-05-12T06:33:54Z</time>
      </trkpt>
      <trkpt lat="44.23654" lon="7.03963">
        <ele>2096.48</ele>
        <time>2018-05-12T06:34:13Z</time>
      </trkpt>
      <trkpt lat="44.23645" lon="7.03956">
        <ele>2099.33</ele>
        <time>2018-05-12T06:34:34Z</time>
      </trkpt>
      <trkpt lat="44.23637" lon="7.03951">
        <ele>2101.4</ele>
        <time>2018-05-12T06:34:51Z</time>
      </trkpt>
      <trkpt lat="44.23629" lon="7.03945">
        <ele>2104.43</ele>
        <time>2018-05-12T06:35:11Z</time>
      </trkpt>
      <trkpt lat="44.2362" lon="7.0394">
        <ele>2107.45</ele>
        <time>2018-05-12T06:35:33Z</time>
      </trkpt>
      <trkpt lat="44.23612" lon="7.03934">
        <ele>2109.45</ele>
        <time>2018-05-12T06:35:54Z</time>
      </trkpt>
      <trkpt lat="44.23604" lon="7.03932">
        <ele>2112.56</ele>
        <time>2018-05-12T06:36:14Z</time>
      </trkpt>
      <trkpt lat="44.23591" lon="7.03933">
        <ele>2115.71</ele>
        <time>2018-05-12T06:36:37Z</time>
      </trkpt>
      <trkpt lat="44.2358" lon="7.03931">
        <ele>2118.57</ele>
        <time>2018-05-12T06:37:00Z</time>
      </trkpt>
      <trkpt lat="44.23572" lon="7.03929">
        <ele>2120.81</ele>
        <time>2018-05-12T06:37:17Z</time>
      </trkpt>
      <trkpt lat="44.23562" lon="7.03928">
        <ele>2123.17</ele>
        <time>2018-05-12T06:37:36Z</time>
      </trkpt>
      <trkpt lat="44.23554" lon="7.03927">
        <ele>2125.45</ele>
        <time>2018-05-12T06:37:53Z</time>
      </trkpt>
      <trkpt lat="44.23543" lon="7.03924">
        <ele>2128.49</ele>
        <time>2018-05-12T06:38:17Z</time>
      </trkpt>
      <trkpt lat="44.23533" lon="7.03915">
        <ele>2131.22</ele>
        <time>2018-05-12T06:38:39Z</time>
      </trkpt>
      <trkpt lat="44.23523" lon="7.0391">
        <ele>2134.14</ele>
        <time>2018-05-12T06:39:00Z</time>
      </trkpt>
      <trkpt lat="44.23513" lon="7.03905">
        <ele>2136.45</ele>
        <time>2018-05-12T06:39:20Z</time>
      </trkpt>
      <trkpt lat="44.23505" lon="7.039">
        <ele>2138.6</ele>
        <time>2018-05-12T06:39:37Z</time>
      </trkpt>
      <trkpt lat="44.23496" lon="7.03894">
        <ele>2140.87</ele>
        <time>2018-05-12T06:39:55Z</time>
      </trkpt>
      <trkpt lat="44.23487" lon="7.0389">
        <ele>2143.25</ele>
        <time>2018-05-12T06:40:13Z</time>
      </trkpt>
      <trkpt lat="44.23478" lon="7.03886">
        <ele>2145.77</ele>
        <time>2018-05-12T06:40:32Z</time>
      </trkpt>
      <trkpt lat="44.23469" lon="7.03886">
        <ele>2148.33</ele>
        <time>2018-05-12T06:40:51Z</time>
      </trkpt>
      <trkpt lat="44.23462" lon="7.03882">
        <ele>2150.67</ele>
        <time>2018-05-12T06:41:10Z</time>
      </trkpt>
      <trkpt lat="44.2345" lon="7.03883">
        <ele>2153.69</ele>
        <time>2018-05-12T06:41:33Z</time>
      </trkpt>
      <trkpt lat="44.23442" lon="7.03881">
        <ele>2156.14</ele>
        <time>2018-05-12T06:41:51Z</time>
      </trkpt>
      <trkpt lat="44.2343" lon="7.03879">
        <ele>2158.81</ele>
        <time>2018-05-12T06:42:12Z</time>
      </trkpt>
      <trkpt lat="44.23418" lon="7.03876">
        <ele>2161.84</ele>
        <time>2018-05-12T06:42:34Z</time>
      </trkpt>
      <trkpt lat="44.23407" lon="7.03872">
        <ele>2164.88</ele>
        <time>2018-05-12T06:42:58Z</time>
      </trkpt>
      <trkpt lat="44.23397" lon="7.03868">
        <ele>2167.99</ele>
        <time>2018-05-12T06:43:19Z</time>
      </trkpt>
      <trkpt lat="44.2339" lon="7.03877">
        <ele>2170.53</ele>
        <time>2018-05-12T06:43:38Z</time>
      </trkpt>
      <trkpt lat="44.23384" lon="7.03867">
        <ele>2172.74</ele>
        <time>2018-05-12T06:43:57Z</time>
      </trkpt>
      <trkpt lat="44.23378" lon="7.03871">
        <ele>2175.76</ele>
        <time>2018-05-12T06:44:17Z</time>
      </trkpt>
      <trkpt lat="44.23371" lon="7.0387">
        <ele>2177.8</ele>
        <time>2018-05-12T06:44:34Z</time>
      </trkpt>
      <trkpt lat="44.23365" lon="7.03865">
        <ele>2180.95</ele>
        <time>2018-05-12T06:44:52Z</time>
      </trkpt>
      <trkpt lat="44.23357" lon="7.03873">
        <ele>2183.34</ele>
        <time>2018-05-12T06:45:12Z</time>
      </trkpt>
      <trkpt lat="44.2335" lon="7.03864">
        <ele>2186.41</ele>
        <time>2018-05-12T06:45:33Z</time>
      </trkpt>
      <trkpt lat="44.23347" lon="7.03872">
        <ele>2188.9</ele>
        <time>2018-05-12T06:45:52Z</time>
      </trkpt>
      <trkpt lat="44.23336" lon="7.0387">
        <ele>2190.59</ele>
        <time>2018-05-12T06:46:09Z</time>
      </trkpt>
      <trkpt lat="44.23331" lon="7.03864">
        <ele>2193.66</ele>
        <time>2018-05-12T06:46:26Z</time>
      </trkpt>
      <trkpt lat="44.23326" lon="7.0387">
        <ele>2196.3</ele>
        <time>2018-05-12T06:46:46Z</time>
      </trkpt>
      <trkpt lat="44.23317" lon="7.03861">
        <ele>2198.44</ele>
        <time>2018-05-12T06:47:06Z</time>
      </trkpt>
      <trkpt lat="44.23308" lon="7.03852">
        <ele>2201.42</ele>
        <time>2018-05-12T06:47:27Z</time>
      </trkpt>
      <trkpt lat="44.23302" lon="7.03851">
        <ele>2204.27</ele>
        <time>2018-05-12T06:47:46Z</time>
      </trkpt>
      <trkpt lat="44.23294" lon="7.03854">
        <ele>2206.62</ele>
        <time>2018-05-12T06:48:05Z</time>
      </trkpt>
      <trkpt lat="44.23285" lon="7.03844">
        <ele>2209.75</ele>
        <time>2018-05-12T06:48:28Z</time>
      </trkpt>
      <trkpt lat="44.2328" lon="7.03849">
        <ele>2212.85</ele>
        <time>2018-05-12T06:48:48Z</time>
      </trkpt>
      <trkpt lat="44.23272" lon="7.0385">
        <ele>2214.66</ele>
        <time>2018-05-12T06:49:06Z</time>
      </trkpt>
      <trkpt lat="44.23264" lon="7.03838">
        <ele>2217.5</ele>
        <time>2018-05-12T06:49:28Z</time>
      </trkpt>
      <trkpt lat="44.23258" lon="7.0383">
        <ele>2220.55</ele>
        <time>2018-05-12T06:49:45Z</time>
      </trkpt>
      <trkpt lat="44.23249" lon="7.03842">
        <ele>2223.5</ele>
        <time>2018-05-12T06:50:09Z</time>
      </trkpt>
      <trkpt lat="44.23242" lon="7.03838">
        <ele>2225.41</ele>
        <time>2018-05-12T06:50:27Z</time>
      </trkpt>
      <trkpt lat="44.23234" lon="7.03831">
        <ele>2227.53</ele>
        <time>2018-05-12T06:50:43Z</time>
      </trkpt>
      <trkpt lat="44.23225" lon="7.03823">
        <ele>2230.36</ele>
        <time>2018-05-12T06:51:04Z</time>
      </trkpt>
      <trkpt lat="44.23217" lon="7.03817">
        <ele>2233.41</ele>
        <time>2018-05-12T06:51:22Z</time>
      </trkpt>
      <trkpt lat="44.2321" lon="7.03826">
        <ele>2236.12</ele>
        <time>2018-05-12T06:51:43Z</time>
      </trkpt>
      <trkpt lat="44.23203" lon="7.03826">
        <ele>2238.03</ele>
        <time>2018-05-12T06:52:01Z</time>
      </trkpt>
      <trkpt lat="44.23195" lon="7.03815">
        <ele>2241.01</ele>
        <time>2018-05-12T06:52:23Z</time>
      </trkpt>
      <trkpt lat="44.23185" lon="7.03811">
        <ele>2244.03</ele>
        <time>2018-05-12T06:52:44Z</time>
      </trkpt>
      <trkpt lat="44.23179" lon="7.03819">
        <ele>2247.05</ele>
        <time>2018-05-12T06:53:07Z</time>
      </trkpt>
      <trkpt lat="44.23172" lon="7.03826">
        <ele>2249.54</ele>
        <time>2018-05-12T06:53:25Z</time>
      </trkpt>
      <trkpt lat="44.23162" lon="7.03818">
        <ele>2252.39</ele>
        <time>2018-05-12T06:53:47Z</time>
      </trkpt>
      <trkpt lat="44.23154" lon="7.03807">
        <ele>2254.95</ele>
        <time>2018-05-12T06:54:06Z</time>
      </trkpt>
      <trkpt lat="44.23145" lon="7.03803">
        <ele>2258.03</ele>
        <time>2018-05-12T06:54:25Z</time>
      </trkpt>
      <trkpt lat="44.23134" lon="7.03799">
        <ele>2260.55</ele>
        <time>2018-05-12T06:54:42Z</time>
      </trkpt>
      <trkpt lat="44.23127" lon="7.03793">
        <ele>2263.08</ele>
        <time>2018-05-12T06:54:59Z</time>
      </trkpt>
      <trkpt lat="44.23117" lon="7.03788">
        <ele>2265.2</ele>
        <time>2018-05-12T06:55:22Z</time>
      </trkpt>
      <trkpt lat="44.23119" lon="7.0379">
        <ele>2265.74</ele>
        <time>2018-05-12T06:55:55Z</time>
      </trkpt>
      <trkpt lat="44.23117" lon="7.03791">
        <ele>2265.21</ele>
        <time>2018-05-12T06:56:29Z</time>
      </trkpt>
      <trkpt lat="44.23116" lon="7.03792">
        <ele>2265.58</ele>
        <time>2018-05-12T06:56:51Z</time>
      </trkpt>
      <trkpt lat="44.23116" lon="7.03792">
        <ele>2265.12</ele>
        <time>2018-05-12T06:57:18Z</time>
      </trkpt>
      <trkpt lat="44.23115" lon="7.03791">
        <ele>2264.78</ele>
        <time>2018-05-12T06:57:48Z</time>
      </trkpt>
      <trkpt lat="44.23117" lon="7.03795">
        <ele>2265.34</ele>
        <time>2018-05-12T06:58:10Z</time>
      </trkpt>
      <trkpt lat="44.23117" lon="7.03792">
        <ele>2265.04</ele>
        <time>2018-05-12T06:58:28Z</time>
      </trkpt>
      <trkpt lat="44.23117" lon="7.03793">
        <ele>2265.15</ele>
        <time>2018-05-12T06:59:02Z</time>
      </trkpt>
      <trkpt lat="44.23116" lon="7.03794">
        <ele>2265.24</ele>
        <time>2018-05-12T06:59:33Z</time>
      </trkpt>
      <trkpt lat="44.23115" lon="7.03796">
        <ele>2265.09</ele>
        <time>2018-05-12T07:00:08Z</time>
      </trkpt>
      <trkpt lat="44.23117" lon="7.03793">
        <ele>2265</ele>
        <time>2018-05-12T07:00:43Z</time>
      </trkpt>
      <trkpt lat="44.23121" lon="7.03789">
        <ele>2265.46</ele>
        <time>2018-05-12T07:01:12Z</time>
      </trkpt>
      <trkpt lat="44.23117" lon="7.03794">
        <ele>2264.81</ele>
        <time>2018-05-12T07:01:38Z</time>
      </trkpt>
      <trkpt lat="44.23117" lon="7.03794">
        <ele>2265.5</ele>
        <time>2018-05-12T07:02:08Z</time>
      </trkpt>
      <trkpt lat="44.23116" lon="7.03795">
        <ele>2265.53</ele>
        <time>2018-05-12T07:02:28Z</time>
      </trkpt>
      <trkpt lat="44.23116" lon="7.03797">
        <ele>2265.87</ele>
        <time>2018-05-12T07:02:52Z</time>
      </trkpt>
      <trkpt lat="44.23116" lon="7.03796">
        <ele>2266.07</ele>
        <time>2018-05-12T07:03:18Z</time>
      </trkpt>
      <trkpt lat="44.23116" lon="7.03795">
        <ele>2266.09</ele>
        <time>2018-05-12T07:03:47Z</time>
      </trkpt>
      <trkpt lat="44.23115" lon="7.03794">
        <ele>2265.95</ele>
        <time>2018-05-12T07:03:54Z</time>
      </trkpt>
      <trkpt lat="44.23115" lon="7.03795">
        <ele>2266.01</ele>
        <time>2018-05-12T07:04:21Z</time>
      </trkpt>
      <trkpt lat="44.23117" lon="7.03793">
        <ele>2265.63</ele>
        <time>2018-05-12T07:04:55Z</time>
      </trkpt>
      <trkpt lat="44.23115" lon="7.03794">
        <ele>2265.47</ele>
        <time>2018-05-12T07:05:25Z</time>
      </trkpt>
      <trkpt lat="44.23113" lon="7.038">
        <ele>2265.36</ele>
        <time>2018-05-12T07:05:40Z</time>
      </trkpt>
      <trkpt lat="44.23117" lon="7.03791">
        <ele>2265.36</ele>
        <time>2018-05-12T07:06:09Z</time>
      </trkpt>
      <trkpt lat="44.23116" lon="7.03794">
        <ele>2265.33</ele>
        <time>2018-05-12T07:06:44Z</time>
      </trkpt>
      <trkpt lat="44.23115" lon="7.03795">
        <ele>2265.33</ele>
        <time>2018-05-12T07:07:17Z</time>
      </trkpt>
      <trkpt lat="44.23114" lon="7.03796">
        <ele>2265.02</ele>
        <time>2018-05-12T07:07:46Z</time>
      </trkpt>
      <trkpt lat="44.23114" lon="7.03792">
        <ele>2265.04</ele>
        <time>2018-05-12T07:08:18Z</time>
      </trkpt>
      <trkpt lat="44.23115" lon="7.03796">
        <ele>2265.03</ele>
        <time>2018-05-12T07:08:50Z</time>
      </trkpt>
      <trkpt lat="44.23115" lon="7.03796">
        <ele>2265.15</ele>
        <time>2018-05-12T07:09:14Z</time>
      </trkpt>
      <trkpt lat="44.23114" lon="7.03793">
        <ele>2264.88</ele>
        <time>2018-05-12T07:09:40Z</time>
      </trkpt>
      <trkpt lat="44.23114" lon="7.03792">
        <ele>2265</ele>
        <time>2018-05-12T07:10:09Z</time>
      </trkpt>
      <trkpt lat="44.23115" lon="7.03793">
        <ele>2264.56</ele>
        <time>2018-05-12T07:10:38Z</time>
      </trkpt>
      <trkpt lat="44.23115" lon="7.03793">
        <ele>2265.15</ele>
        <time>2018-05-12T07:11:09Z</time>
      </trkpt>
      <trkpt lat="44.23105" lon="7.03781">
        <ele>2267.14</ele>
        <time>2018-05-12T07:11:32Z</time>
      </trkpt>
      <trkpt lat="44.2309" lon="7.03769">
        <ele>2269.5</ele>
        <time>2018-05-12T07:11:57Z</time>
      </trkpt>
      <trkpt lat="44.2308" lon="7.03759">
        <ele>2271.5</ele>
        <time>2018-05-12T07:12:19Z</time>
      </trkpt>
      <trkpt lat="44.23069" lon="7.03748">
        <ele>2274.16</ele>
        <time>2018-05-12T07:12:44Z</time>
      </trkpt>
      <trkpt lat="44.23053" lon="7.03736">
        <ele>2276.18</ele>
        <time>2018-05-12T07:13:07Z</time>
      </trkpt>
      <trkpt lat="44.23039" lon="7.03726">
        <ele>2278.39</ele>
        <time>2018-05-12T07:13:34Z</time>
      </trkpt>
      <trkpt lat="44.23025" lon="7.03719">
        <ele>2280.43</ele>
        <time>2018-05-12T07:13:56Z</time>
      </trkpt>
      <trkpt lat="44.23011" lon="7.03708">
        <ele>2282.7</ele>
        <time>2018-05-12T07:14:22Z</time>
      </trkpt>
      <trkpt lat="44.22996" lon="7.03701">
        <ele>2285.79</ele>
        <time>2018-05-12T07:14:50Z</time>
      </trkpt>
      <trkpt lat="44.22981" lon="7.03699">
        <ele>2288.84</ele>
        <time>2018-05-12T07:15:15Z</time>
      </trkpt>
      <trkpt lat="44.22967" lon="7.03697">
        <ele>2291.86</ele>
        <time>2018-05-12T07:15:40Z</time>
      </trkpt>
      <trkpt lat="44.2296" lon="7.03697">
        <ele>2294.16</ele>
        <time>2018-05-12T07:15:58Z</time>
      </trkpt>
      <trkpt lat="44.22941" lon="7.03693">
        <ele>2297</ele>
        <time>2018-05-12T07:16:24Z</time>
      </trkpt>
      <trkpt lat="44.22936" lon="7.03684">
        <ele>2299.76</ele>
        <time>2018-05-12T07:16:49Z</time>
      </trkpt>
      <trkpt lat="44.22928" lon="7.03676">
        <ele>2302.12</ele>
        <time>2018-05-12T07:17:09Z</time>
      </trkpt>
      <trkpt lat="44.22918" lon="7.03664">
        <ele>2304.5</ele>
        <time>2018-05-12T07:17:31Z</time>
      </trkpt>
      <trkpt lat="44.22904" lon="7.03653">
        <ele>2306.46</ele>
        <time>2018-05-12T07:17:52Z</time>
      </trkpt>
      <trkpt lat="44.22911" lon="7.03654">
        <ele>2306.04</ele>
        <time>2018-05-12T07:18:12Z</time>
      </trkpt>
      <trkpt lat="44.22896" lon="7.03641">
        <ele>2309.2</ele>
        <time>2018-05-12T07:18:36Z</time>
      </trkpt>
      <trkpt lat="44.22881" lon="7.03629">
        <ele>2312.22</ele>
        <time>2018-05-12T07:19:03Z</time>
      </trkpt>
      <trkpt lat="44.22873" lon="7.03619">
        <ele>2314.17</ele>
        <time>2018-05-12T07:19:24Z</time>
      </trkpt>
      <trkpt lat="44.22865" lon="7.03604">
        <ele>2316.85</ele>
        <time>2018-05-12T07:19:46Z</time>
      </trkpt>
      <trkpt lat="44.22855" lon="7.03594">
        <ele>2318.96</ele>
        <time>2018-05-12T07:20:06Z</time>
      </trkpt>
      <trkpt lat="44.22849" lon="7.03585">
        <ele>2320.1</ele>
        <time>2018-05-12T07:20:18Z</time>
      </trkpt>
      <trkpt lat="44.22839" lon="7.03579">
        <ele>2321.51</ele>
        <time>2018-05-12T07:20:33Z</time>
      </trkpt>
      <trkpt lat="44.22839" lon="7.03571">
        <ele>2322.82</ele>
        <time>2018-05-12T07:20:45Z</time>
      </trkpt>
      <trkpt lat="44.22836" lon="7.03561">
        <ele>2324.73</ele>
        <time>2018-05-12T07:21:03Z</time>
      </trkpt>
      <trkpt lat="44.22829" lon="7.03555">
        <ele>2326.2</ele>
        <time>2018-05-12T07:21:18Z</time>
      </trkpt>
      <trkpt lat="44.22824" lon="7.03548">
        <ele>2328.28</ele>
        <time>2018-05-12T07:21:31Z</time>
      </trkpt>
      <trkpt lat="44.22817" lon="7.03542">
        <ele>2330.16</ele>
        <time>2018-05-12T07:21:46Z</time>
      </trkpt>
      <trkpt lat="44.22812" lon="7.03539">
        <ele>2332.18</ele>
        <time>2018-05-12T07:21:59Z</time>
      </trkpt>
      <trkpt lat="44.22811" lon="7.03538">
        <ele>2332.51</ele>
        <time>2018-05-12T07:22:01Z</time>
      </trkpt>
      <trkpt lat="44.22804" lon="7.03533">
        <ele>2334.12</ele>
        <time>2018-05-12T07:22:13Z</time>
      </trkpt>
      <trkpt lat="44.22793" lon="7.03529">
        <ele>2337.09</ele>
        <time>2018-05-12T07:22:36Z</time>
      </trkpt>
      <trkpt lat="44.22781" lon="7.03526">
        <ele>2340.16</ele>
        <time>2018-05-12T07:22:57Z</time>
      </trkpt>
      <trkpt lat="44.22781" lon="7.03527">
        <ele>2340.4</ele>
        <time>2018-05-12T07:23:17Z</time>
      </trkpt>
      <trkpt lat="44.22778" lon="7.03529">
        <ele>2339.99</ele>
        <time>2018-05-12T07:23:44Z</time>
      </trkpt>
      <trkpt lat="44.22782" lon="7.03528">
        <ele>2340.09</ele>
        <time>2018-05-12T07:23:57Z</time>
      </trkpt>
      <trkpt lat="44.22784" lon="7.03525">
        <ele>2340.05</ele>
        <time>2018-05-12T07:24:21Z</time>
      </trkpt>
      <trkpt lat="44.22784" lon="7.03529">
        <ele>2340.18</ele>
        <time>2018-05-12T07:24:46Z</time>
      </trkpt>
      <trkpt lat="44.22781" lon="7.03527">
        <ele>2339.84</ele>
        <time>2018-05-12T07:25:10Z</time>
      </trkpt>
      <trkpt lat="44.2278" lon="7.03527">
        <ele>2340</ele>
        <time>2018-05-12T07:25:30Z</time>
      </trkpt>
      <trkpt lat="44.22784" lon="7.03524">
        <ele>2339.86</ele>
        <time>2018-05-12T07:25:53Z</time>
      </trkpt>
      <trkpt lat="44.22779" lon="7.03523">
        <ele>2341.32</ele>
        <time>2018-05-12T07:26:17Z</time>
      </trkpt>
      <trkpt lat="44.22776" lon="7.03515">
        <ele>2343.32</ele>
        <time>2018-05-12T07:26:33Z</time>
      </trkpt>
      <trkpt lat="44.22766" lon="7.03503">
        <ele>2346.2</ele>
        <time>2018-05-12T07:26:59Z</time>
      </trkpt>
      <trkpt lat="44.2276" lon="7.03491">
        <ele>2348.61</ele>
        <time>2018-05-12T07:27:21Z</time>
      </trkpt>
      <trkpt lat="44.22751" lon="7.03477">
        <ele>2350.99</ele>
        <time>2018-05-12T07:27:44Z</time>
      </trkpt>
      <trkpt lat="44.22746" lon="7.03467">
        <ele>2353.4</ele>
        <time>2018-05-12T07:28:04Z</time>
      </trkpt>
      <trkpt lat="44.22737" lon="7.0346">
        <ele>2355.73</ele>
        <time>2018-05-12T07:28:25Z</time>
      </trkpt>
      <trkpt lat="44.2273" lon="7.03451">
        <ele>2358.39</ele>
        <time>2018-05-12T07:28:46Z</time>
      </trkpt>
      <trkpt lat="44.2273" lon="7.03442">
        <ele>2361.07</ele>
        <time>2018-05-12T07:29:06Z</time>
      </trkpt>
      <trkpt lat="44.2273" lon="7.03431">
        <ele>2364.02</ele>
        <time>2018-05-12T07:29:27Z</time>
      </trkpt>
      <trkpt lat="44.22727" lon="7.03429">
        <ele>2364.43</ele>
        <time>2018-05-12T07:29:46Z</time>
      </trkpt>
      <trkpt lat="44.22722" lon="7.03413">
        <ele>2366.83</ele>
        <time>2018-05-12T07:30:06Z</time>
      </trkpt>
      <trkpt lat="44.22716" lon="7.03397">
        <ele>2368.83</ele>
        <time>2018-05-12T07:30:26Z</time>
      </trkpt>
      <trkpt lat="44.22707" lon="7.03387">
        <ele>2371.63</ele>
        <time>2018-05-12T07:30:44Z</time>
      </trkpt>
      <trkpt lat="44.22695" lon="7.03377">
        <ele>2373.87</ele>
        <time>2018-05-12T07:31:05Z</time>
      </trkpt>
      <trkpt lat="44.22691" lon="7.03366">
        <ele>2376.23</ele>
        <time>2018-05-12T07:31:22Z</time>
      </trkpt>
      <trkpt lat="44.22678" lon="7.03357">
        <ele>2379.22</ele>
        <time>2018-05-12T07:31:44Z</time>
      </trkpt>
      <trkpt lat="44.22674" lon="7.03347">
        <ele>2382.11</ele>
        <time>2018-05-12T07:32:04Z</time>
      </trkpt>
      <trkpt lat="44.22664" lon="7.03339">
        <ele>2384.84</ele>
        <time>2018-05-12T07:32:27Z</time>
      </trkpt>
      <trkpt lat="44.22651" lon="7.03334">
        <ele>2387.91</ele>
        <time>2018-05-12T07:32:48Z</time>
      </trkpt>
      <trkpt lat="44.22642" lon="7.03334">
        <ele>2390.09</ele>
        <time>2018-05-12T07:33:09Z</time>
      </trkpt>
      <trkpt lat="44.2263" lon="7.03336">
        <ele>2392.5</ele>
        <time>2018-05-12T07:33:32Z</time>
      </trkpt>
      <trkpt lat="44.22615" lon="7.03337">
        <ele>2395.56</ele>
        <time>2018-05-12T07:33:55Z</time>
      </trkpt>
      <trkpt lat="44.22606" lon="7.03334">
        <ele>2398.57</ele>
        <time>2018-05-12T07:34:18Z</time>
      </trkpt>
      <trkpt lat="44.22595" lon="7.0333">
        <ele>2401.48</ele>
        <time>2018-05-12T07:34:41Z</time>
      </trkpt>
      <trkpt lat="44.22583" lon="7.03328">
        <ele>2404.24</ele>
        <time>2018-05-12T07:35:04Z</time>
      </trkpt>
      <trkpt lat="44.22575" lon="7.03322">
        <ele>2406.26</ele>
        <time>2018-05-12T07:35:24Z</time>
      </trkpt>
      <trkpt lat="44.22563" lon="7.03325">
        <ele>2409.18</ele>
        <time>2018-05-12T07:35:49Z</time>
      </trkpt>
      <trkpt lat="44.2255" lon="7.03328">
        <ele>2411.55</ele>
        <time>2018-05-12T07:36:11Z</time>
      </trkpt>
      <trkpt lat="44.22537" lon="7.03326">
        <ele>2414.38</ele>
        <time>2018-05-12T07:36:34Z</time>
      </trkpt>
      <trkpt lat="44.22522" lon="7.03327">
        <ele>2417.31</ele>
        <time>2018-05-12T07:37:02Z</time>
      </trkpt>
      <trkpt lat="44.22518" lon="7.03324">
        <ele>2419.27</ele>
        <time>2018-05-12T07:37:28Z</time>
      </trkpt>
      <trkpt lat="44.22514" lon="7.03324">
        <ele>2419.72</ele>
        <time>2018-05-12T07:37:53Z</time>
      </trkpt>
      <trkpt lat="44.22512" lon="7.03322">
        <ele>2419.9</ele>
        <time>2018-05-12T07:38:24Z</time>
      </trkpt>
      <trkpt lat="44.22517" lon="7.03321">
        <ele>2419.75</ele>
        <time>2018-05-12T07:38:50Z</time>
      </trkpt>
      <trkpt lat="44.22521" lon="7.03321">
        <ele>2419.72</ele>
        <time>2018-05-12T07:39:10Z</time>
      </trkpt>
      <trkpt lat="44.22521" lon="7.03319">
        <ele>2419.4</ele>
        <time>2018-05-12T07:39:19Z</time>
      </trkpt>
      <trkpt lat="44.22507" lon="7.03315">
        <ele>2421.59</ele>
        <time>2018-05-12T07:39:44Z</time>
      </trkpt>
      <trkpt lat="44.22496" lon="7.03305">
        <ele>2421.57</ele>
        <time>2018-05-12T07:40:05Z</time>
      </trkpt>
      <trkpt lat="44.22492" lon="7.0329">
        <ele>2421.25</ele>
        <time>2018-05-12T07:40:21Z</time>
      </trkpt>
      <trkpt lat="44.2249" lon="7.03266">
        <ele>2422.2</ele>
        <time>2018-05-12T07:40:43Z</time>
      </trkpt>
      <trkpt lat="44.22487" lon="7.03241">
        <ele>2423.79</ele>
        <time>2018-05-12T07:41:06Z</time>
      </trkpt>
      <trkpt lat="44.22482" lon="7.03223">
        <ele>2425.21</ele>
        <time>2018-05-12T07:41:29Z</time>
      </trkpt>
      <trkpt lat="44.22477" lon="7.03201">
        <ele>2427.68</ele>
        <time>2018-05-12T07:41:52Z</time>
      </trkpt>
      <trkpt lat="44.22473" lon="7.03191">
        <ele>2429.41</ele>
        <time>2018-05-12T07:42:13Z</time>
      </trkpt>
      <trkpt lat="44.22472" lon="7.03186">
        <ele>2431.01</ele>
        <time>2018-05-12T07:42:25Z</time>
      </trkpt>
      <trkpt lat="44.2247" lon="7.03177">
        <ele>2433.07</ele>
        <time>2018-05-12T07:42:40Z</time>
      </trkpt>
      <trkpt lat="44.2247" lon="7.03172">
        <ele>2433.65</ele>
        <time>2018-05-12T07:42:57Z</time>
      </trkpt>
      <trkpt lat="44.22473" lon="7.03174">
        <ele>2434.42</ele>
        <time>2018-05-12T07:43:10Z</time>
      </trkpt>
      <trkpt lat="44.22474" lon="7.03176">
        <ele>2433.31</ele>
        <time>2018-05-12T07:43:34Z</time>
      </trkpt>
      <trkpt lat="44.22476" lon="7.03177">
        <ele>2433.4</ele>
        <time>2018-05-12T07:43:59Z</time>
      </trkpt>
      <trkpt lat="44.22473" lon="7.03178">
        <ele>2433.85</ele>
        <time>2018-05-12T07:44:19Z</time>
      </trkpt>
      <trkpt lat="44.2247" lon="7.03177">
        <ele>2433.3</ele>
        <time>2018-05-12T07:44:47Z</time>
      </trkpt>
      <trkpt lat="44.2247" lon="7.03177">
        <ele>2433.62</ele>
        <time>2018-05-12T07:45:02Z</time>
      </trkpt>
      <trkpt lat="44.22468" lon="7.03177">
        <ele>2433.34</ele>
        <time>2018-05-12T07:45:12Z</time>
      </trkpt>
      <trkpt lat="44.2246" lon="7.03173">
        <ele>2434.3</ele>
        <time>2018-05-12T07:45:37Z</time>
      </trkpt>
      <trkpt lat="44.22465" lon="7.03175">
        <ele>2434.01</ele>
        <time>2018-05-12T07:45:57Z</time>
      </trkpt>
      <trkpt lat="44.22465" lon="7.03176">
        <ele>2433.8</ele>
        <time>2018-05-12T07:46:00Z</time>
      </trkpt>
      <trkpt lat="44.22463" lon="7.03175">
        <ele>2434.09</ele>
        <time>2018-05-12T07:46:27Z</time>
      </trkpt>
      <trkpt lat="44.22466" lon="7.03175">
        <ele>2435.2</ele>
        <time>2018-05-12T07:46:53Z</time>
      </trkpt>
      <trkpt lat="44.22464" lon="7.03175">
        <ele>2435.36</ele>
        <time>2018-05-12T07:47:21Z</time>
      </trkpt>
      <trkpt lat="44.22467" lon="7.03176">
        <ele>2435.11</ele>
        <time>2018-05-12T07:48:37Z</time>
      </trkpt>
      <trkpt lat="44.22465" lon="7.03175">
        <ele>2435</ele>
        <time>2018-05-12T07:49:53Z</time>
      </trkpt>
      <trkpt lat="44.22464" lon="7.0317">
        <ele>2436.16</ele>
        <time>2018-05-12T07:51:21Z</time>
      </trkpt>
      <trkpt lat="44.22464" lon="7.03166">
        <ele>2435.99</ele>
        <time>2018-05-12T07:52:13Z</time>
      </trkpt>
      <trkpt lat="44.22464" lon="7.03166">
        <ele>2436.24</ele>
        <time>2018-05-12T07:52:42Z</time>
      </trkpt>
      <trkpt lat="44.22466" lon="7.03166">
        <ele>2436.48</ele>
        <time>2018-05-12T07:53:00Z</time>
      </trkpt>
      <trkpt lat="44.22463" lon="7.03162">
        <ele>2436.38</ele>
        <time>2018-05-12T07:53:17Z</time>
      </trkpt>
      <trkpt lat="44.22464" lon="7.03162">
        <ele>2436.06</ele>
        <time>2018-05-12T07:53:42Z</time>
      </trkpt>
      <trkpt lat="44.22463" lon="7.03161">
        <ele>2436.38</ele>
        <time>2018-05-12T07:54:13Z</time>
      </trkpt>
      <trkpt lat="44.22463" lon="7.03161">
        <ele>2436.65</ele>
        <time>2018-05-12T07:54:18Z</time>
      </trkpt>
      <trkpt lat="44.22459" lon="7.03161">
        <ele>2436.97</ele>
        <time>2018-05-12T07:54:42Z</time>
      </trkpt>
      <trkpt lat="44.2246" lon="7.03161">
        <ele>2436.83</ele>
        <time>2018-05-12T07:55:03Z</time>
      </trkpt>
      <trkpt lat="44.2246" lon="7.03159">
        <ele>2436.56</ele>
        <time>2018-05-12T07:55:24Z</time>
      </trkpt>
      <trkpt lat="44.22458" lon="7.03146">
        <ele>2438.88</ele>
        <time>2018-05-12T07:55:42Z</time>
      </trkpt>
      <trkpt lat="44.22456" lon="7.03133">
        <ele>2441.57</ele>
        <time>2018-05-12T07:56:00Z</time>
      </trkpt>
      <trkpt lat="44.22451" lon="7.03117">
        <ele>2444.52</ele>
        <time>2018-05-12T07:56:20Z</time>
      </trkpt>
      <trkpt lat="44.22448" lon="7.031">
        <ele>2446.76</ele>
        <time>2018-05-12T07:56:36Z</time>
      </trkpt>
      <trkpt lat="44.22447" lon="7.0309">
        <ele>2449.25</ele>
        <time>2018-05-12T07:56:52Z</time>
      </trkpt>
      <trkpt lat="44.22451" lon="7.03084">
        <ele>2451.18</ele>
        <time>2018-05-12T07:57:04Z</time>
      </trkpt>
      <trkpt lat="44.22454" lon="7.03074">
        <ele>2453.54</ele>
        <time>2018-05-12T07:57:20Z</time>
      </trkpt>
      <trkpt lat="44.22455" lon="7.03061">
        <ele>2455.91</ele>
        <time>2018-05-12T07:57:37Z</time>
      </trkpt>
      <trkpt lat="44.22454" lon="7.03044">
        <ele>2458.49</ele>
        <time>2018-05-12T07:57:57Z</time>
      </trkpt>
      <trkpt lat="44.22456" lon="7.0303">
        <ele>2461.18</ele>
        <time>2018-05-12T07:58:15Z</time>
      </trkpt>
      <trkpt lat="44.22456" lon="7.03018">
        <ele>2464.15</ele>
        <time>2018-05-12T07:58:33Z</time>
      </trkpt>
      <trkpt lat="44.22457" lon="7.0301">
        <ele>2466.55</ele>
        <time>2018-05-12T07:58:50Z</time>
      </trkpt>
      <trkpt lat="44.22454" lon="7.03014">
        <ele>2467.94</ele>
        <time>2018-05-12T07:59:10Z</time>
      </trkpt>
      <trkpt lat="44.22447" lon="7.03025">
        <ele>2470.75</ele>
        <time>2018-05-12T07:59:30Z</time>
      </trkpt>
      <trkpt lat="44.22441" lon="7.03037">
        <ele>2473.74</ele>
        <time>2018-05-12T07:59:50Z</time>
      </trkpt>
      <trkpt lat="44.22435" lon="7.03044">
        <ele>2476.69</ele>
        <time>2018-05-12T08:00:10Z</time>
      </trkpt>
      <trkpt lat="44.22429" lon="7.03055">
        <ele>2479.74</ele>
        <time>2018-05-12T08:00:26Z</time>
      </trkpt>
      <trkpt lat="44.22425" lon="7.03062">
        <ele>2481.53</ele>
        <time>2018-05-12T08:00:45Z</time>
      </trkpt>
      <trkpt lat="44.22424" lon="7.03061">
        <ele>2481.3</ele>
        <time>2018-05-12T08:01:10Z</time>
      </trkpt>
      <trkpt lat="44.2242" lon="7.03068">
        <ele>2482.21</ele>
        <time>2018-05-12T08:01:31Z</time>
      </trkpt>
      <trkpt lat="44.22413" lon="7.03077">
        <ele>2485.21</ele>
        <time>2018-05-12T08:01:49Z</time>
      </trkpt>
      <trkpt lat="44.22405" lon="7.03089">
        <ele>2488.23</ele>
        <time>2018-05-12T08:02:11Z</time>
      </trkpt>
      <trkpt lat="44.22398" lon="7.03102">
        <ele>2491.37</ele>
        <time>2018-05-12T08:02:33Z</time>
      </trkpt>
      <trkpt lat="44.22392" lon="7.03116">
        <ele>2494.41</ele>
        <time>2018-05-12T08:02:55Z</time>
      </trkpt>
      <trkpt lat="44.22387" lon="7.03134">
        <ele>2497.55</ele>
        <time>2018-05-12T08:03:19Z</time>
      </trkpt>
      <trkpt lat="44.22384" lon="7.03149">
        <ele>2500.62</ele>
        <time>2018-05-12T08:03:42Z</time>
      </trkpt>
      <trkpt lat="44.2238" lon="7.03165">
        <ele>2503.31</ele>
        <time>2018-05-12T08:04:04Z</time>
      </trkpt>
      <trkpt lat="44.22378" lon="7.03176">
        <ele>2505.62</ele>
        <time>2018-05-12T08:04:26Z</time>
      </trkpt>
      <trkpt lat="44.22378" lon="7.03187">
        <ele>2507.35</ele>
        <time>2018-05-12T08:04:49Z</time>
      </trkpt>
      <trkpt lat="44.22373" lon="7.032">
        <ele>2508.53</ele>
        <time>2018-05-12T08:05:11Z</time>
      </trkpt>
      <trkpt lat="44.22366" lon="7.03218">
        <ele>2511.01</ele>
        <time>2018-05-12T08:05:34Z</time>
      </trkpt>
      <trkpt lat="44.22365" lon="7.03222">
        <ele>2511.86</ele>
        <time>2018-05-12T08:05:56Z</time>
      </trkpt>
      <trkpt lat="44.22367" lon="7.03225">
        <ele>2513.2</ele>
        <time>2018-05-12T08:06:19Z</time>
      </trkpt>
      <trkpt lat="44.22366" lon="7.03226">
        <ele>2512.39</ele>
        <time>2018-05-12T08:06:39Z</time>
      </trkpt>
      <trkpt lat="44.22368" lon="7.03226">
        <ele>2511.71</ele>
        <time>2018-05-12T08:07:09Z</time>
      </trkpt>
      <trkpt lat="44.22367" lon="7.03226">
        <ele>2512.91</ele>
        <time>2018-05-12T08:07:33Z</time>
      </trkpt>
      <trkpt lat="44.22369" lon="7.03227">
        <ele>2512.71</ele>
        <time>2018-05-12T08:07:58Z</time>
      </trkpt>
      <trkpt lat="44.22372" lon="7.03227">
        <ele>2512.03</ele>
        <time>2018-05-12T08:08:30Z</time>
      </trkpt>
      <trkpt lat="44.22369" lon="7.03226">
        <ele>2512.39</ele>
        <time>2018-05-12T08:09:01Z</time>
      </trkpt>
      <trkpt lat="44.22369" lon="7.03225">
        <ele>2511.64</ele>
        <time>2018-05-12T08:09:32Z</time>
      </trkpt>
      <trkpt lat="44.22368" lon="7.03224">
        <ele>2512.1</ele>
        <time>2018-05-12T08:09:55Z</time>
      </trkpt>
      <trkpt lat="44.22367" lon="7.03224">
        <ele>2511.62</ele>
        <time>2018-05-12T08:10:25Z</time>
      </trkpt>
      <trkpt lat="44.22368" lon="7.03226">
        <ele>2512.12</ele>
        <time>2018-05-12T08:10:52Z</time>
      </trkpt>
      <trkpt lat="44.22367" lon="7.03231">
        <ele>2511.57</ele>
        <time>2018-05-12T08:11:13Z</time>
      </trkpt>
      <trkpt lat="44.22367" lon="7.03231">
        <ele>2512.48</ele>
        <time>2018-05-12T08:11:39Z</time>
      </trkpt>
      <trkpt lat="44.22365" lon="7.03231">
        <ele>2511.92</ele>
        <time>2018-05-12T08:12:02Z</time>
      </trkpt>
      <trkpt lat="44.22366" lon="7.03231">
        <ele>2512.6</ele>
        <time>2018-05-12T08:12:38Z</time>
      </trkpt>
      <trkpt lat="44.22364" lon="7.0324">
        <ele>2513.8</ele>
        <time>2018-05-12T08:13:06Z</time>
      </trkpt>
      <trkpt lat="44.22361" lon="7.0325">
        <ele>2516.09</ele>
        <time>2018-05-12T08:13:22Z</time>
      </trkpt>
      <trkpt lat="44.2236" lon="7.03262">
        <ele>2518.71</ele>
        <time>2018-05-12T08:13:40Z</time>
      </trkpt>
      <trkpt lat="44.22357" lon="7.03273">
        <ele>2521.22</ele>
        <time>2018-05-12T08:13:59Z</time>
      </trkpt>
      <trkpt lat="44.22355" lon="7.03286">
        <ele>2523.14</ele>
        <time>2018-05-12T08:14:19Z</time>
      </trkpt>
      <trkpt lat="44.22354" lon="7.03297">
        <ele>2525.94</ele>
        <time>2018-05-12T08:14:35Z</time>
      </trkpt>
      <trkpt lat="44.22354" lon="7.03304">
        <ele>2527.21</ele>
        <time>2018-05-12T08:14:58Z</time>
      </trkpt>
      <trkpt lat="44.22352" lon="7.03313">
        <ele>2529.09</ele>
        <time>2018-05-12T08:15:14Z</time>
      </trkpt>
      <trkpt lat="44.22353" lon="7.03322">
        <ele>2530.9</ele>
        <time>2018-05-12T08:15:34Z</time>
      </trkpt>
      <trkpt lat="44.22352" lon="7.03328">
        <ele>2532.52</ele>
        <time>2018-05-12T08:15:53Z</time>
      </trkpt>
      <trkpt lat="44.22352" lon="7.03336">
        <ele>2534.09</ele>
        <time>2018-05-12T08:16:08Z</time>
      </trkpt>
      <trkpt lat="44.22348" lon="7.03339">
        <ele>2535.83</ele>
        <time>2018-05-12T08:16:24Z</time>
      </trkpt>
      <trkpt lat="44.22343" lon="7.03333">
        <ele>2537.47</ele>
        <time>2018-05-12T08:16:43Z</time>
      </trkpt>
      <trkpt lat="44.22336" lon="7.03329">
        <ele>2540.63</ele>
        <time>2018-05-12T08:16:59Z</time>
      </trkpt>
      <trkpt lat="44.2233" lon="7.03329">
        <ele>2543.72</ele>
        <time>2018-05-12T08:17:14Z</time>
      </trkpt>
      <trkpt lat="44.22324" lon="7.03335">
        <ele>2546.43</ele>
        <time>2018-05-12T08:17:32Z</time>
      </trkpt>
      <trkpt lat="44.22321" lon="7.03339">
        <ele>2548.44</ele>
        <time>2018-05-12T08:17:41Z</time>
      </trkpt>
      <trkpt lat="44.22319" lon="7.03342">
        <ele>2546.87</ele>
        <time>2018-05-12T08:18:03Z</time>
      </trkpt>
      <trkpt lat="44.2232" lon="7.03343">
        <ele>2547.61</ele>
        <time>2018-05-12T08:18:34Z</time>
      </trkpt>
      <trkpt lat="44.22319" lon="7.03358">
        <ele>2550.06</ele>
        <time>2018-05-12T08:18:53Z</time>
      </trkpt>
      <trkpt lat="44.22318" lon="7.03367">
        <ele>2551.09</ele>
        <time>2018-05-12T08:19:02Z</time>
      </trkpt>
      <trkpt lat="44.22319" lon="7.03382">
        <ele>2552.11</ele>
        <time>2018-05-12T08:19:14Z</time>
      </trkpt>
      <trkpt lat="44.22321" lon="7.03393">
        <ele>2555.12</ele>
        <time>2018-05-12T08:19:27Z</time>
      </trkpt>
      <trkpt lat="44.22325" lon="7.03409">
        <ele>2558.14</ele>
        <time>2018-05-12T08:19:46Z</time>
      </trkpt>
      <trkpt lat="44.22332" lon="7.03415">
        <ele>2558.2</ele>
        <time>2018-05-12T08:19:58Z</time>
      </trkpt>
      <trkpt lat="44.22333" lon="7.03419">
        <ele>2554.43</ele>
        <time>2018-05-12T08:20:03Z</time>
      </trkpt>
      <trkpt lat="44.22331" lon="7.03427">
        <ele>2555.3</ele>
        <time>2018-05-12T08:20:21Z</time>
      </trkpt>
      <trkpt lat="44.2233" lon="7.0343">
        <ele>2555.14</ele>
        <time>2018-05-12T08:20:24Z</time>
      </trkpt>
      <trkpt lat="44.22331" lon="7.03447">
        <ele>2553.3</ele>
        <time>2018-05-12T08:20:33Z</time>
      </trkpt>
      <trkpt lat="44.22334" lon="7.03461">
        <ele>2551.54</ele>
        <time>2018-05-12T08:20:45Z</time>
      </trkpt>
      <trkpt lat="44.22334" lon="7.03475">
        <ele>2551.37</ele>
        <time>2018-05-12T08:20:59Z</time>
      </trkpt>
      <trkpt lat="44.22335" lon="7.03487">
        <ele>2553.02</ele>
        <time>2018-05-12T08:21:13Z</time>
      </trkpt>
      <trkpt lat="44.22335" lon="7.03503">
        <ele>2554.82</ele>
        <time>2018-05-12T08:21:29Z</time>
      </trkpt>
      <trkpt lat="44.22335" lon="7.03519">
        <ele>2556.15</ele>
        <time>2018-05-12T08:21:46Z</time>
      </trkpt>
      <trkpt lat="44.22337" lon="7.03533">
        <ele>2557.88</ele>
        <time>2018-05-12T08:22:04Z</time>
      </trkpt>
      <trkpt lat="44.22342" lon="7.03548">
        <ele>2560.47</ele>
        <time>2018-05-12T08:22:24Z</time>
      </trkpt>
      <trkpt lat="44.22342" lon="7.03549">
        <ele>2560.57</ele>
        <time>2018-05-12T08:22:25Z</time>
      </trkpt>
      <trkpt lat="44.22345" lon="7.03561">
        <ele>2560.93</ele>
        <time>2018-05-12T08:22:38Z</time>
      </trkpt>
      <trkpt lat="44.22349" lon="7.03573">
        <ele>2562.84</ele>
        <time>2018-05-12T08:22:54Z</time>
      </trkpt>
      <trkpt lat="44.22353" lon="7.03582">
        <ele>2565.88</ele>
        <time>2018-05-12T08:23:11Z</time>
      </trkpt>
      <trkpt lat="44.22354" lon="7.03589">
        <ele>2567.53</ele>
        <time>2018-05-12T08:23:31Z</time>
      </trkpt>
      <trkpt lat="44.22359" lon="7.03601">
        <ele>2569.78</ele>
        <time>2018-05-12T08:23:51Z</time>
      </trkpt>
      <trkpt lat="44.22362" lon="7.03609">
        <ele>2572.14</ele>
        <time>2018-05-12T08:24:09Z</time>
      </trkpt>
      <trkpt lat="44.22364" lon="7.03614">
        <ele>2574.37</ele>
        <time>2018-05-12T08:24:28Z</time>
      </trkpt>
      <trkpt lat="44.22369" lon="7.03624">
        <ele>2576.91</ele>
        <time>2018-05-12T08:24:48Z</time>
      </trkpt>
      <trkpt lat="44.22374" lon="7.03633">
        <ele>2580.03</ele>
        <time>2018-05-12T08:25:07Z</time>
      </trkpt>
      <trkpt lat="44.22371" lon="7.03638">
        <ele>2581.9</ele>
        <time>2018-05-12T08:25:22Z</time>
      </trkpt>
      <trkpt lat="44.22364" lon="7.03642">
        <ele>2584.9</ele>
        <time>2018-05-12T08:25:42Z</time>
      </trkpt>
      <trkpt lat="44.22356" lon="7.03647">
        <ele>2587.46</ele>
        <time>2018-05-12T08:26:05Z</time>
      </trkpt>
      <trkpt lat="44.22348" lon="7.03653">
        <ele>2590.14</ele>
        <time>2018-05-12T08:26:27Z</time>
      </trkpt>
      <trkpt lat="44.22343" lon="7.03661">
        <ele>2592.65</ele>
        <time>2018-05-12T08:26:47Z</time>
      </trkpt>
      <trkpt lat="44.22348" lon="7.03669">
        <ele>2594.78</ele>
        <time>2018-05-12T08:27:04Z</time>
      </trkpt>
      <trkpt lat="44.22352" lon="7.03678">
        <ele>2597.31</ele>
        <time>2018-05-12T08:27:23Z</time>
      </trkpt>
      <trkpt lat="44.22352" lon="7.03689">
        <ele>2599.27</ele>
        <time>2018-05-12T08:27:42Z</time>
      </trkpt>
      <trkpt lat="44.22348" lon="7.03697">
        <ele>2600.73</ele>
        <time>2018-05-12T08:27:58Z</time>
      </trkpt>
      <trkpt lat="44.22345" lon="7.03705">
        <ele>2602.58</ele>
        <time>2018-05-12T08:28:14Z</time>
      </trkpt>
      <trkpt lat="44.22341" lon="7.03714">
        <ele>2604.68</ele>
        <time>2018-05-12T08:28:31Z</time>
      </trkpt>
      <trkpt lat="44.22336" lon="7.03723">
        <ele>2606.84</ele>
        <time>2018-05-12T08:28:49Z</time>
      </trkpt>
      <trkpt lat="44.22339" lon="7.03725">
        <ele>2608.76</ele>
        <time>2018-05-12T08:29:09Z</time>
      </trkpt>
      <trkpt lat="44.22346" lon="7.03729">
        <ele>2611.03</ele>
        <time>2018-05-12T08:29:28Z</time>
      </trkpt>
      <trkpt lat="44.22352" lon="7.03733">
        <ele>2613.83</ele>
        <time>2018-05-12T08:29:51Z</time>
      </trkpt>
      <trkpt lat="44.22362" lon="7.03735">
        <ele>2616.12</ele>
        <time>2018-05-12T08:30:11Z</time>
      </trkpt>
      <trkpt lat="44.22369" lon="7.03739">
        <ele>2618.29</ele>
        <time>2018-05-12T08:30:29Z</time>
      </trkpt>
      <trkpt lat="44.22372" lon="7.03741">
        <ele>2619.64</ele>
        <time>2018-05-12T08:30:49Z</time>
      </trkpt>
      <trkpt lat="44.22375" lon="7.03742">
        <ele>2621.08</ele>
        <time>2018-05-12T08:31:12Z</time>
      </trkpt>
      <trkpt lat="44.22378" lon="7.03742">
        <ele>2621.56</ele>
        <time>2018-05-12T08:31:42Z</time>
      </trkpt>
      <trkpt lat="44.22377" lon="7.03742">
        <ele>2621.22</ele>
        <time>2018-05-12T08:32:06Z</time>
      </trkpt>
      <trkpt lat="44.22378" lon="7.03741">
        <ele>2621.71</ele>
        <time>2018-05-12T08:32:33Z</time>
      </trkpt>
      <trkpt lat="44.22373" lon="7.03746">
        <ele>2622.61</ele>
        <time>2018-05-12T08:32:59Z</time>
      </trkpt>
      <trkpt lat="44.22369" lon="7.03753">
        <ele>2624.96</ele>
        <time>2018-05-12T08:33:20Z</time>
      </trkpt>
      <trkpt lat="44.22364" lon="7.0376">
        <ele>2627.82</ele>
        <time>2018-05-12T08:33:40Z</time>
      </trkpt>
      <trkpt lat="44.22362" lon="7.03766">
        <ele>2629.49</ele>
        <time>2018-05-12T08:33:57Z</time>
      </trkpt>
      <trkpt lat="44.22359" lon="7.03771">
        <ele>2631.49</ele>
        <time>2018-05-12T08:34:17Z</time>
      </trkpt>
      <trkpt lat="44.22357" lon="7.03779">
        <ele>2634.63</ele>
        <time>2018-05-12T08:34:37Z</time>
      </trkpt>
      <trkpt lat="44.22356" lon="7.03788">
        <ele>2636.87</ele>
        <time>2018-05-12T08:35:00Z</time>
      </trkpt>
      <trkpt lat="44.22352" lon="7.03795">
        <ele>2639.37</ele>
        <time>2018-05-12T08:35:22Z</time>
      </trkpt>
      <trkpt lat="44.22352" lon="7.03794">
        <ele>2639.05</ele>
        <time>2018-05-12T08:35:47Z</time>
      </trkpt>
      <trkpt lat="44.2235" lon="7.03804">
        <ele>2640.43</ele>
        <time>2018-05-12T08:36:10Z</time>
      </trkpt>
      <trkpt lat="44.2235" lon="7.03806">
        <ele>2642.43</ele>
        <time>2018-05-12T08:36:30Z</time>
      </trkpt>
      <trkpt lat="44.22353" lon="7.03802">
        <ele>2643</ele>
        <time>2018-05-12T08:36:49Z</time>
      </trkpt>
      <trkpt lat="44.22362" lon="7.03801">
        <ele>2644.81</ele>
        <time>2018-05-12T08:37:09Z</time>
      </trkpt>
      <trkpt lat="44.22367" lon="7.03798">
        <ele>2646.83</ele>
        <time>2018-05-12T08:37:32Z</time>
      </trkpt>
      <trkpt lat="44.22365" lon="7.03803">
        <ele>2646.71</ele>
        <time>2018-05-12T08:37:50Z</time>
      </trkpt>
      <trkpt lat="44.22362" lon="7.03808">
        <ele>2648.02</ele>
        <time>2018-05-12T08:38:11Z</time>
      </trkpt>
      <trkpt lat="44.22363" lon="7.03808">
        <ele>2648.62</ele>
        <time>2018-05-12T08:38:40Z</time>
      </trkpt>
      <trkpt lat="44.22361" lon="7.0381">
        <ele>2648.12</ele>
        <time>2018-05-12T08:39:05Z</time>
      </trkpt>
      <trkpt lat="44.22362" lon="7.03811">
        <ele>2649.19</ele>
        <time>2018-05-12T08:39:29Z</time>
      </trkpt>
      <trkpt lat="44.22362" lon="7.03811">
        <ele>2648.37</ele>
        <time>2018-05-12T08:39:57Z</time>
      </trkpt>
      <trkpt lat="44.22362" lon="7.03811">
        <ele>2648.12</ele>
        <time>2018-05-12T08:40:28Z</time>
      </trkpt>
      <trkpt lat="44.22363" lon="7.03808">
        <ele>2648.25</ele>
        <time>2018-05-12T08:40:59Z</time>
      </trkpt>
      <trkpt lat="44.22362" lon="7.03809">
        <ele>2648.17</ele>
        <time>2018-05-12T08:41:29Z</time>
      </trkpt>
      <trkpt lat="44.22363" lon="7.0381">
        <ele>2648.25</ele>
        <time>2018-05-12T08:42:02Z</time>
      </trkpt>
      <trkpt lat="44.22364" lon="7.0381">
        <ele>2648.13</ele>
        <time>2018-05-12T08:42:36Z</time>
      </trkpt>
      <trkpt lat="44.22363" lon="7.03811">
        <ele>2648.01</ele>
        <time>2018-05-12T08:43:08Z</time>
      </trkpt>
      <trkpt lat="44.22363" lon="7.03811">
        <ele>2647.92</ele>
        <time>2018-05-12T08:43:41Z</time>
      </trkpt>
      <trkpt lat="44.22362" lon="7.03811">
        <ele>2647.88</ele>
        <time>2018-05-12T08:44:07Z</time>
      </trkpt>
      <trkpt lat="44.22361" lon="7.0381">
        <ele>2647.86</ele>
        <time>2018-05-12T08:44:33Z</time>
      </trkpt>
      <trkpt lat="44.22361" lon="7.03812">
        <ele>2647.7</ele>
        <time>2018-05-12T08:45:03Z</time>
      </trkpt>
      <trkpt lat="44.22362" lon="7.03812">
        <ele>2648.08</ele>
        <time>2018-05-12T08:45:34Z</time>
      </trkpt>
      <trkpt lat="44.22362" lon="7.0381">
        <ele>2647.67</ele>
        <time>2018-05-12T08:45:58Z</time>
      </trkpt>
      <trkpt lat="44.22361" lon="7.03812">
        <ele>2647.78</ele>
        <time>2018-05-12T08:46:20Z</time>
      </trkpt>
      <trkpt lat="44.2236" lon="7.03814">
        <ele>2648.55</ele>
        <time>2018-05-12T08:46:40Z</time>
      </trkpt>
      <trkpt lat="44.22361" lon="7.03813">
        <ele>2647.81</ele>
        <time>2018-05-12T08:47:01Z</time>
      </trkpt>
      <trkpt lat="44.2236" lon="7.03814">
        <ele>2648.04</ele>
        <time>2018-05-12T08:47:34Z</time>
      </trkpt>
      <trkpt lat="44.2236" lon="7.03813">
        <ele>2647.73</ele>
        <time>2018-05-12T08:48:03Z</time>
      </trkpt>
      <trkpt lat="44.2236" lon="7.03814">
        <ele>2647.43</ele>
        <time>2018-05-12T08:48:32Z</time>
      </trkpt>
      <trkpt lat="44.22359" lon="7.03813">
        <ele>2648.31</ele>
        <time>2018-05-12T08:48:59Z</time>
      </trkpt>
      <trkpt lat="44.22361" lon="7.03813">
        <ele>2648.44</ele>
        <time>2018-05-12T08:49:25Z</time>
      </trkpt>
      <trkpt lat="44.22362" lon="7.03811">
        <ele>2648.28</ele>
        <time>2018-05-12T08:50:02Z</time>
      </trkpt>
      <trkpt lat="44.22362" lon="7.0381">
        <ele>2648.14</ele>
        <time>2018-05-12T08:50:37Z</time>
      </trkpt>
      <trkpt lat="44.22364" lon="7.03814">
        <ele>2648.35</ele>
        <time>2018-05-12T08:51:10Z</time>
      </trkpt>
      <trkpt lat="44.22364" lon="7.03815">
        <ele>2648.11</ele>
        <time>2018-05-12T08:51:40Z</time>
      </trkpt>
      <trkpt lat="44.22365" lon="7.03815">
        <ele>2648.23</ele>
        <time>2018-05-12T08:51:58Z</time>
      </trkpt>
      <trkpt lat="44.22361" lon="7.03813">
        <ele>2647.8</ele>
        <time>2018-05-12T08:52:30Z</time>
      </trkpt>
      <trkpt lat="44.22359" lon="7.03813">
        <ele>2648.07</ele>
        <time>2018-05-12T08:52:56Z</time>
      </trkpt>
      <trkpt lat="44.22359" lon="7.03814">
        <ele>2647.75</ele>
        <time>2018-05-12T08:53:25Z</time>
      </trkpt>
      <trkpt lat="44.22359" lon="7.03815">
        <ele>2647.55</ele>
        <time>2018-05-12T08:53:50Z</time>
      </trkpt>
      <trkpt lat="44.2236" lon="7.03816">
        <ele>2647.66</ele>
        <time>2018-05-12T08:54:18Z</time>
      </trkpt>
      <trkpt lat="44.2236" lon="7.03816">
        <ele>2648.68</ele>
        <time>2018-05-12T08:55:11Z</time>
      </trkpt>
      <trkpt lat="44.22358" lon="7.03822">
        <ele>2650.93</ele>
        <time>2018-05-12T08:55:35Z</time>
      </trkpt>
      <trkpt lat="44.22357" lon="7.03824">
        <ele>2650.99</ele>
        <time>2018-05-12T08:55:55Z</time>
      </trkpt>
      <trkpt lat="44.22357" lon="7.03827">
        <ele>2652.09</ele>
        <time>2018-05-12T08:56:15Z</time>
      </trkpt>
      <trkpt lat="44.22357" lon="7.0383">
        <ele>2653.05</ele>
        <time>2018-05-12T08:56:34Z</time>
      </trkpt>
      <trkpt lat="44.22355" lon="7.03835">
        <ele>2654.54</ele>
        <time>2018-05-12T08:56:52Z</time>
      </trkpt>
      <trkpt lat="44.22355" lon="7.03837">
        <ele>2655.51</ele>
        <time>2018-05-12T08:57:10Z</time>
      </trkpt>
      <trkpt lat="44.22353" lon="7.03842">
        <ele>2656.52</ele>
        <time>2018-05-12T08:57:35Z</time>
      </trkpt>
      <trkpt lat="44.22353" lon="7.03849">
        <ele>2659.51</ele>
        <time>2018-05-12T08:57:55Z</time>
      </trkpt>
      <trkpt lat="44.22351" lon="7.03854">
        <ele>2660.11</ele>
        <time>2018-05-12T08:58:17Z</time>
      </trkpt>
      <trkpt lat="44.2235" lon="7.03858">
        <ele>2661.42</ele>
        <time>2018-05-12T08:58:42Z</time>
      </trkpt>
      <trkpt lat="44.2235" lon="7.03862">
        <ele>2662.34</ele>
        <time>2018-05-12T08:59:01Z</time>
      </trkpt>
      <trkpt lat="44.2235" lon="7.03862">
        <ele>2662.02</ele>
        <time>2018-05-12T08:59:29Z</time>
      </trkpt>
      <trkpt lat="44.2235" lon="7.03862">
        <ele>2662.8</ele>
        <time>2018-05-12T08:59:57Z</time>
      </trkpt>
      <trkpt lat="44.2235" lon="7.03864">
        <ele>2662.64</ele>
        <time>2018-05-12T09:00:23Z</time>
      </trkpt>
      <trkpt lat="44.22351" lon="7.03863">
        <ele>2664.06</ele>
        <time>2018-05-12T09:01:43Z</time>
      </trkpt>
      <trkpt lat="44.22352" lon="7.03862">
        <ele>2663.62</ele>
        <time>2018-05-12T09:01:59Z</time>
      </trkpt>
      <trkpt lat="44.22356" lon="7.0386">
        <ele>2665.59</ele>
        <time>2018-05-12T09:02:24Z</time>
      </trkpt>
      <trkpt lat="44.22358" lon="7.03859">
        <ele>2666.28</ele>
        <time>2018-05-12T09:02:41Z</time>
      </trkpt>
      <trkpt lat="44.22361" lon="7.03858">
        <ele>2667.87</ele>
        <time>2018-05-12T09:03:02Z</time>
      </trkpt>
      <trkpt lat="44.22364" lon="7.03857">
        <ele>2668.61</ele>
        <time>2018-05-12T09:03:21Z</time>
      </trkpt>
      <trkpt lat="44.22364" lon="7.03855">
        <ele>2668.76</ele>
        <time>2018-05-12T09:03:48Z</time>
      </trkpt>
      <trkpt lat="44.22368" lon="7.03854">
        <ele>2670.77</ele>
        <time>2018-05-12T09:04:10Z</time>
      </trkpt>
      <trkpt lat="44.22369" lon="7.03861">
        <ele>2672.41</ele>
        <time>2018-05-12T09:04:27Z</time>
      </trkpt>
      <trkpt lat="44.22368" lon="7.03864">
        <ele>2673.15</ele>
        <time>2018-05-12T09:04:54Z</time>
      </trkpt>
      <trkpt lat="44.22368" lon="7.03871">
        <ele>2675.67</ele>
        <time>2018-05-12T09:05:09Z</time>
      </trkpt>
      <trkpt lat="44.2237" lon="7.03879">
        <ele>2677.56</ele>
        <time>2018-05-12T09:05:23Z</time>
      </trkpt>
      <trkpt lat="44.2237" lon="7.03886">
        <ele>2679.61</ele>
        <time>2018-05-12T09:05:39Z</time>
      </trkpt>
      <trkpt lat="44.22371" lon="7.03891">
        <ele>2680.79</ele>
        <time>2018-05-12T09:05:54Z</time>
      </trkpt>
      <trkpt lat="44.22373" lon="7.039">
        <ele>2683.1</ele>
        <time>2018-05-12T09:06:11Z</time>
      </trkpt>
      <trkpt lat="44.22374" lon="7.03904">
        <ele>2683.38</ele>
        <time>2018-05-12T09:06:29Z</time>
      </trkpt>
      <trkpt lat="44.22375" lon="7.03904">
        <ele>2683</ele>
        <time>2018-05-12T09:06:51Z</time>
      </trkpt>
      <trkpt lat="44.22376" lon="7.03902">
        <ele>2682.93</ele>
        <time>2018-05-12T09:07:10Z</time>
      </trkpt>
      <trkpt lat="44.22374" lon="7.03901">
        <ele>2683.13</ele>
        <time>2018-05-12T09:07:35Z</time>
      </trkpt>
      <trkpt lat="44.22374" lon="7.03902">
        <ele>2683.07</ele>
        <time>2018-05-12T09:07:58Z</time>
      </trkpt>
      <trkpt lat="44.22374" lon="7.03902">
        <ele>2682.49</ele>
        <time>2018-05-12T09:08:23Z</time>
      </trkpt>
      <trkpt lat="44.22374" lon="7.039">
        <ele>2682.87</ele>
        <time>2018-05-12T09:08:50Z</time>
      </trkpt>
      <trkpt lat="44.22374" lon="7.03901">
        <ele>2683.22</ele>
        <time>2018-05-12T09:09:20Z</time>
      </trkpt>
      <trkpt lat="44.22375" lon="7.039">
        <ele>2682.98</ele>
        <time>2018-05-12T09:09:48Z</time>
      </trkpt>
      <trkpt lat="44.22374" lon="7.039">
        <ele>2682.76</ele>
        <time>2018-05-12T09:10:15Z</time>
      </trkpt>
      <trkpt lat="44.22373" lon="7.03901">
        <ele>2682.75</ele>
        <time>2018-05-12T09:10:40Z</time>
      </trkpt>
      <trkpt lat="44.22375" lon="7.03899">
        <ele>2682.77</ele>
        <time>2018-05-12T09:11:08Z</time>
      </trkpt>
      <trkpt lat="44.22374" lon="7.03901">
        <ele>2682.95</ele>
        <time>2018-05-12T09:11:28Z</time>
      </trkpt>
      <trkpt lat="44.22373" lon="7.03901">
        <ele>2681.76</ele>
        <time>2018-05-12T09:11:53Z</time>
      </trkpt>
      <trkpt lat="44.22372" lon="7.03898">
        <ele>2682.41</ele>
        <time>2018-05-12T09:12:17Z</time>
      </trkpt>
      <trkpt lat="44.22375" lon="7.03899">
        <ele>2682.77</ele>
        <time>2018-05-12T09:12:44Z</time>
      </trkpt>
      <trkpt lat="44.22374" lon="7.039">
        <ele>2681.94</ele>
        <time>2018-05-12T09:13:03Z</time>
      </trkpt>
      <trkpt lat="44.2237" lon="7.03901">
        <ele>2682.42</ele>
        <time>2018-05-12T09:13:27Z</time>
      </trkpt>
      <trkpt lat="44.22369" lon="7.039">
        <ele>2681.59</ele>
        <time>2018-05-12T09:13:55Z</time>
      </trkpt>
      <trkpt lat="44.22372" lon="7.03898">
        <ele>2681.91</ele>
        <time>2018-05-12T09:14:21Z</time>
      </trkpt>
      <trkpt lat="44.22372" lon="7.039">
        <ele>2681.72</ele>
        <time>2018-05-12T09:14:53Z</time>
      </trkpt>
      <trkpt lat="44.22373" lon="7.03898">
        <ele>2681.98</ele>
        <time>2018-05-12T09:15:22Z</time>
      </trkpt>
      <trkpt lat="44.22372" lon="7.03898">
        <ele>2681.57</ele>
        <time>2018-05-12T09:15:53Z</time>
      </trkpt>
      <trkpt lat="44.22372" lon="7.03899">
        <ele>2682.34</ele>
        <time>2018-05-12T09:16:22Z</time>
      </trkpt>
      <trkpt lat="44.22372" lon="7.03899">
        <ele>2681.05</ele>
        <time>2018-05-12T09:16:24Z</time>
      </trkpt>
      <trkpt lat="44.22374" lon="7.03901">
        <ele>2682.77</ele>
        <time>2018-05-12T09:16:49Z</time>
      </trkpt>
      <trkpt lat="44.22373" lon="7.03903">
        <ele>2682.61</ele>
        <time>2018-05-12T09:17:16Z</time>
      </trkpt>
      <trkpt lat="44.22381" lon="7.03916">
        <ele>2684.3</ele>
        <time>2018-05-12T09:17:35Z</time>
      </trkpt>
      <trkpt lat="44.22381" lon="7.03917">
        <ele>2684.01</ele>
        <time>2018-05-12T09:17:52Z</time>
      </trkpt>
      <trkpt lat="44.22383" lon="7.03926">
        <ele>2686.03</ele>
        <time>2018-05-12T09:18:11Z</time>
      </trkpt>
      <trkpt lat="44.22386" lon="7.03934">
        <ele>2688.62</ele>
        <time>2018-05-12T09:18:29Z</time>
      </trkpt>
      <trkpt lat="44.22388" lon="7.03939">
        <ele>2690.16</ele>
        <time>2018-05-12T09:18:45Z</time>
      </trkpt>
      <trkpt lat="44.22389" lon="7.03943">
        <ele>2691.31</ele>
        <time>2018-05-12T09:19:04Z</time>
      </trkpt>
      <trkpt lat="44.22393" lon="7.03952">
        <ele>2694.27</ele>
        <time>2018-05-12T09:19:31Z</time>
      </trkpt>
      <trkpt lat="44.22398" lon="7.0396">
        <ele>2697.34</ele>
        <time>2018-05-12T09:19:55Z</time>
      </trkpt>
      <trkpt lat="44.22403" lon="7.03968">
        <ele>2699.21</ele>
        <time>2018-05-12T09:20:17Z</time>
      </trkpt>
      <trkpt lat="44.22408" lon="7.03976">
        <ele>2701.36</ele>
        <time>2018-05-12T09:20:38Z</time>
      </trkpt>
      <trkpt lat="44.22411" lon="7.0398">
        <ele>2702.71</ele>
        <time>2018-05-12T09:20:56Z</time>
      </trkpt>
      <trkpt lat="44.22413" lon="7.03982">
        <ele>2704.45</ele>
        <time>2018-05-12T09:21:10Z</time>
      </trkpt>
      <trkpt lat="44.22416" lon="7.03985">
        <ele>2706.04</ele>
        <time>2018-05-12T09:21:24Z</time>
      </trkpt>
      <trkpt lat="44.22415" lon="7.03985">
        <ele>2706.61</ele>
        <time>2018-05-12T09:21:46Z</time>
      </trkpt>
      <trkpt lat="44.22417" lon="7.03988">
        <ele>2706.15</ele>
        <time>2018-05-12T09:22:14Z</time>
      </trkpt>
      <trkpt lat="44.22416" lon="7.03987">
        <ele>2706.26</ele>
        <time>2018-05-12T09:22:41Z</time>
      </trkpt>
      <trkpt lat="44.22417" lon="7.03985">
        <ele>2706.18</ele>
        <time>2018-05-12T09:23:12Z</time>
      </trkpt>
      <trkpt lat="44.22417" lon="7.03984">
        <ele>2706.17</ele>
        <time>2018-05-12T09:23:37Z</time>
      </trkpt>
      <trkpt lat="44.22418" lon="7.03985">
        <ele>2706.29</ele>
        <time>2018-05-12T09:24:05Z</time>
      </trkpt>
      <trkpt lat="44.2242" lon="7.0399">
        <ele>2708.9</ele>
        <time>2018-05-12T09:24:22Z</time>
      </trkpt>
      <trkpt lat="44.2242" lon="7.03994">
        <ele>2710.99</ele>
        <time>2018-05-12T09:24:43Z</time>
      </trkpt>
      <trkpt lat="44.22422" lon="7.03996">
        <ele>2711.66</ele>
        <time>2018-05-12T09:25:07Z</time>
      </trkpt>
      <trkpt lat="44.22423" lon="7.03996">
        <ele>2712.78</ele>
        <time>2018-05-12T09:25:31Z</time>
      </trkpt>
      <trkpt lat="44.22424" lon="7.03999">
        <ele>2714</ele>
        <time>2018-05-12T09:25:55Z</time>
      </trkpt>
      <trkpt lat="44.22425" lon="7.04001">
        <ele>2715.81</ele>
        <time>2018-05-12T09:26:15Z</time>
      </trkpt>
      <trkpt lat="44.22429" lon="7.04001">
        <ele>2717.24</ele>
        <time>2018-05-12T09:26:40Z</time>
      </trkpt>
      <trkpt lat="44.22427" lon="7.04003">
        <ele>2718.57</ele>
        <time>2018-05-12T09:27:00Z</time>
      </trkpt>
      <trkpt lat="44.22428" lon="7.04002">
        <ele>2719.36</ele>
        <time>2018-05-12T09:27:21Z</time>
      </trkpt>
      <trkpt lat="44.22428" lon="7.04004">
        <ele>2719.89</ele>
        <time>2018-05-12T09:27:38Z</time>
      </trkpt>
      <trkpt lat="44.22428" lon="7.04005">
        <ele>2721.89</ele>
        <time>2018-05-12T09:28:02Z</time>
      </trkpt>
      <trkpt lat="44.22429" lon="7.04006">
        <ele>2722.89</ele>
        <time>2018-05-12T09:28:20Z</time>
      </trkpt>
      <trkpt lat="44.22428" lon="7.04009">
        <ele>2724.13</ele>
        <time>2018-05-12T09:28:39Z</time>
      </trkpt>
      <trkpt lat="44.22428" lon="7.04014">
        <ele>2726.61</ele>
        <time>2018-05-12T09:29:02Z</time>
      </trkpt>
      <trkpt lat="44.2243" lon="7.04015">
        <ele>2726.59</ele>
        <time>2018-05-12T09:29:23Z</time>
      </trkpt>
      <trkpt lat="44.22431" lon="7.04015">
        <ele>2726.65</ele>
        <time>2018-05-12T09:29:52Z</time>
      </trkpt>
      <trkpt lat="44.22429" lon="7.04018">
        <ele>2727.21</ele>
        <time>2018-05-12T09:30:10Z</time>
      </trkpt>
      <trkpt lat="44.22428" lon="7.04019">
        <ele>2726.27</ele>
        <time>2018-05-12T09:30:35Z</time>
      </trkpt>
      <trkpt lat="44.22428" lon="7.04019">
        <ele>2725.94</ele>
        <time>2018-05-12T09:31:07Z</time>
      </trkpt>
      <trkpt lat="44.22429" lon="7.04017">
        <ele>2726.9</ele>
        <time>2018-05-12T09:31:40Z</time>
      </trkpt>
      <trkpt lat="44.2243" lon="7.04018">
        <ele>2726.09</ele>
        <time>2018-05-12T09:32:13Z</time>
      </trkpt>
      <trkpt lat="44.22431" lon="7.04017">
        <ele>2726.89</ele>
        <time>2018-05-12T09:32:45Z</time>
      </trkpt>
      <trkpt lat="44.22428" lon="7.04016">
        <ele>2726.85</ele>
        <time>2018-05-12T09:33:04Z</time>
      </trkpt>
      <trkpt lat="44.22428" lon="7.04019">
        <ele>2726.02</ele>
        <time>2018-05-12T09:33:35Z</time>
      </trkpt>
      <trkpt lat="44.22429" lon="7.04018">
        <ele>2726.16</ele>
        <time>2018-05-12T09:34:12Z</time>
      </trkpt>
      <trkpt lat="44.22428" lon="7.04018">
        <ele>2727.38</ele>
        <time>2018-05-12T09:34:41Z</time>
      </trkpt>
      <trkpt lat="44.2243" lon="7.04018">
        <ele>2727.59</ele>
        <time>2018-05-12T09:35:06Z</time>
      </trkpt>
      <trkpt lat="44.22429" lon="7.04016">
        <ele>2727.57</ele>
        <time>2018-05-12T09:35:37Z</time>
      </trkpt>
      <trkpt lat="44.2243" lon="7.04017">
        <ele>2726.61</ele>
        <time>2018-05-12T09:36:08Z</time>
      </trkpt>
      <trkpt lat="44.22429" lon="7.04017">
        <ele>2726.75</ele>
        <time>2018-05-12T09:36:53Z</time>
      </trkpt>
      <trkpt lat="44.22428" lon="7.04013">
        <ele>2727.26</ele>
        <time>2018-05-12T09:37:11Z</time>
      </trkpt>
      <trkpt lat="44.22428" lon="7.04008">
        <ele>2725.92</ele>
        <time>2018-05-12T09:37:32Z</time>
      </trkpt>
      <trkpt lat="44.22429" lon="7.04006">
        <ele>2725</ele>
        <time>2018-05-12T09:37:49Z</time>
      </trkpt>
      <trkpt lat="44.2243" lon="7.04005">
        <ele>2723.55</ele>
        <time>2018-05-12T09:38:04Z</time>
      </trkpt>
      <trkpt lat="44.2243" lon="7.04005">
        <ele>2723.04</ele>
        <time>2018-05-12T09:38:40Z</time>
      </trkpt>
      <trkpt lat="44.22431" lon="7.04003">
        <ele>2722.56</ele>
        <time>2018-05-12T09:39:01Z</time>
      </trkpt>
      <trkpt lat="44.22431" lon="7.04004">
        <ele>2722.29</ele>
        <time>2018-05-12T09:39:29Z</time>
      </trkpt>
      <trkpt lat="44.22431" lon="7.04004">
        <ele>2723.24</ele>
        <time>2018-05-12T09:39:53Z</time>
      </trkpt>
      <trkpt lat="44.22431" lon="7.04003">
        <ele>2723.44</ele>
        <time>2018-05-12T09:40:16Z</time>
      </trkpt>
      <trkpt lat="44.2243" lon="7.04002">
        <ele>2722.17</ele>
        <time>2018-05-12T09:40:40Z</time>
      </trkpt>
      <trkpt lat="44.22428" lon="7.04003">
        <ele>2721.37</ele>
        <time>2018-05-12T09:41:05Z</time>
      </trkpt>
      <trkpt lat="44.22429" lon="7.04002">
        <ele>2721.17</ele>
        <time>2018-05-12T09:41:35Z</time>
      </trkpt>
      <trkpt lat="44.22428" lon="7.03997">
        <ele>2719.92</ele>
        <time>2018-05-12T09:41:59Z</time>
      </trkpt>
      <trkpt lat="44.22426" lon="7.03995">
        <ele>2719.05</ele>
        <time>2018-05-12T09:42:25Z</time>
      </trkpt>
      <trkpt lat="44.22427" lon="7.03995">
        <ele>2718.92</ele>
        <time>2018-05-12T09:43:00Z</time>
      </trkpt>
      <trkpt lat="44.22425" lon="7.03992">
        <ele>2717.8</ele>
        <time>2018-05-12T09:43:33Z</time>
      </trkpt>
      <trkpt lat="44.22426" lon="7.03996">
        <ele>2717.06</ele>
        <time>2018-05-12T09:43:54Z</time>
      </trkpt>
      <trkpt lat="44.22422" lon="7.03994">
        <ele>2714.66</ele>
        <time>2018-05-12T09:44:18Z</time>
      </trkpt>
      <trkpt lat="44.2242" lon="7.03991">
        <ele>2712.53</ele>
        <time>2018-05-12T09:44:41Z</time>
      </trkpt>
      <trkpt lat="44.22419" lon="7.03989">
        <ele>2710.67</ele>
        <time>2018-05-12T09:45:02Z</time>
      </trkpt>
      <trkpt lat="44.22419" lon="7.03987">
        <ele>2709.49</ele>
        <time>2018-05-12T09:45:25Z</time>
      </trkpt>
      <trkpt lat="44.22418" lon="7.03986">
        <ele>2707.34</ele>
        <time>2018-05-12T09:45:50Z</time>
      </trkpt>
      <trkpt lat="44.22417" lon="7.03986">
        <ele>2707.46</ele>
        <time>2018-05-12T09:46:15Z</time>
      </trkpt>
      <trkpt lat="44.22418" lon="7.03987">
        <ele>2708.62</ele>
        <time>2018-05-12T09:46:47Z</time>
      </trkpt>
      <trkpt lat="44.22414" lon="7.03984">
        <ele>2706.74</ele>
        <time>2018-05-12T09:47:09Z</time>
      </trkpt>
      <trkpt lat="44.2241" lon="7.0398">
        <ele>2703.92</ele>
        <time>2018-05-12T09:47:30Z</time>
      </trkpt>
      <trkpt lat="44.22404" lon="7.03971">
        <ele>2700.96</ele>
        <time>2018-05-12T09:47:45Z</time>
      </trkpt>
      <trkpt lat="44.224" lon="7.03964">
        <ele>2699.33</ele>
        <time>2018-05-12T09:48:03Z</time>
      </trkpt>
      <trkpt lat="44.22396" lon="7.03959">
        <ele>2697.68</ele>
        <time>2018-05-12T09:48:22Z</time>
      </trkpt>
      <trkpt lat="44.22393" lon="7.03951">
        <ele>2695</ele>
        <time>2018-05-12T09:48:42Z</time>
      </trkpt>
      <trkpt lat="44.2239" lon="7.03943">
        <ele>2692.46</ele>
        <time>2018-05-12T09:48:58Z</time>
      </trkpt>
      <trkpt lat="44.22388" lon="7.03937">
        <ele>2690.41</ele>
        <time>2018-05-12T09:49:12Z</time>
      </trkpt>
      <trkpt lat="44.22386" lon="7.03931">
        <ele>2688.67</ele>
        <time>2018-05-12T09:49:25Z</time>
      </trkpt>
      <trkpt lat="44.22387" lon="7.03932">
        <ele>2689.49</ele>
        <time>2018-05-12T09:49:55Z</time>
      </trkpt>
      <trkpt lat="44.22383" lon="7.03923">
        <ele>2686.27</ele>
        <time>2018-05-12T09:50:20Z</time>
      </trkpt>
      <trkpt lat="44.22379" lon="7.03914">
        <ele>2684.73</ele>
        <time>2018-05-12T09:50:34Z</time>
      </trkpt>
      <trkpt lat="44.22374" lon="7.03902">
        <ele>2682.63</ele>
        <time>2018-05-12T09:50:46Z</time>
      </trkpt>
      <trkpt lat="44.22374" lon="7.03901">
        <ele>2682.8</ele>
        <time>2018-05-12T09:51:09Z</time>
      </trkpt>
      <trkpt lat="44.22375" lon="7.03901">
        <ele>2682.74</ele>
        <time>2018-05-12T09:51:31Z</time>
      </trkpt>
      <trkpt lat="44.22375" lon="7.03901">
        <ele>2682.37</ele>
        <time>2018-05-12T09:51:56Z</time>
      </trkpt>
      <trkpt lat="44.22375" lon="7.039">
        <ele>2682.23</ele>
        <time>2018-05-12T09:52:24Z</time>
      </trkpt>
      <trkpt lat="44.22374" lon="7.03901">
        <ele>2682.56</ele>
        <time>2018-05-12T09:52:54Z</time>
      </trkpt>
      <trkpt lat="44.22375" lon="7.03899">
        <ele>2682.46</ele>
        <time>2018-05-12T09:53:18Z</time>
      </trkpt>
      <trkpt lat="44.22375" lon="7.039">
        <ele>2682.52</ele>
        <time>2018-05-12T09:53:45Z</time>
      </trkpt>
      <trkpt lat="44.22376" lon="7.03901">
        <ele>2682.56</ele>
        <time>2018-05-12T09:54:09Z</time>
      </trkpt>
      <trkpt lat="44.22376" lon="7.03902">
        <ele>2682.7</ele>
        <time>2018-05-12T09:54:38Z</time>
      </trkpt>
      <trkpt lat="44.22375" lon="7.03901">
        <ele>2682.41</ele>
        <time>2018-05-12T09:55:04Z</time>
      </trkpt>
      <trkpt lat="44.22375" lon="7.03901">
        <ele>2682.27</ele>
        <time>2018-05-12T09:55:37Z</time>
      </trkpt>
      <trkpt lat="44.22375" lon="7.03902">
        <ele>2682.72</ele>
        <time>2018-05-12T09:55:57Z</time>
      </trkpt>
      <trkpt lat="44.22376" lon="7.03901">
        <ele>2682.44</ele>
        <time>2018-05-12T09:56:20Z</time>
      </trkpt>
      <trkpt lat="44.22375" lon="7.03901">
        <ele>2682.41</ele>
        <time>2018-05-12T09:56:43Z</time>
      </trkpt>
      <trkpt lat="44.22375" lon="7.039">
        <ele>2682.84</ele>
        <time>2018-05-12T09:57:08Z</time>
      </trkpt>
      <trkpt lat="44.22375" lon="7.039">
        <ele>2682.14</ele>
        <time>2018-05-12T09:57:28Z</time>
      </trkpt>
      <trkpt lat="44.22374" lon="7.039">
        <ele>2682.64</ele>
        <time>2018-05-12T09:57:48Z</time>
      </trkpt>
      <trkpt lat="44.22375" lon="7.03902">
        <ele>2683.36</ele>
        <time>2018-05-12T09:58:13Z</time>
      </trkpt>
      <trkpt lat="44.22374" lon="7.03901">
        <ele>2683.36</ele>
        <time>2018-05-12T09:58:49Z</time>
      </trkpt>
      <trkpt lat="44.22374" lon="7.039">
        <ele>2682.69</ele>
        <time>2018-05-12T09:59:37Z</time>
      </trkpt>
      <trkpt lat="44.22368" lon="7.03884">
        <ele>2680.05</ele>
        <time>2018-05-12T09:59:46Z</time>
      </trkpt>
      <trkpt lat="44.22368" lon="7.03883">
        <ele>2679.96</ele>
        <time>2018-05-12T09:59:51Z</time>
      </trkpt>
      <trkpt lat="44.22367" lon="7.03872">
        <ele>2676.8</ele>
        <time>2018-05-12T09:59:58Z</time>
      </trkpt>
      <trkpt lat="44.22366" lon="7.03869">
        <ele>2676.21</ele>
        <time>2018-05-12T10:00:09Z</time>
      </trkpt>
      <trkpt lat="44.22367" lon="7.0386">
        <ele>2672.93</ele>
        <time>2018-05-12T10:00:15Z</time>
      </trkpt>
      <trkpt lat="44.22368" lon="7.0386">
        <ele>2672.74</ele>
        <time>2018-05-12T10:00:21Z</time>
      </trkpt>
      <trkpt lat="44.22371" lon="7.03848">
        <ele>2669.73</ele>
        <time>2018-05-12T10:00:28Z</time>
      </trkpt>
      <trkpt lat="44.22371" lon="7.03848">
        <ele>2669.44</ele>
        <time>2018-05-12T10:00:46Z</time>
      </trkpt>
      <trkpt lat="44.2237" lon="7.0385">
        <ele>2669.43</ele>
        <time>2018-05-12T10:00:57Z</time>
      </trkpt>
      <trkpt lat="44.22364" lon="7.03854">
        <ele>2668.98</ele>
        <time>2018-05-12T10:01:01Z</time>
      </trkpt>
      <trkpt lat="44.22361" lon="7.03857">
        <ele>2666.88</ele>
        <time>2018-05-12T10:01:14Z</time>
      </trkpt>
      <trkpt lat="44.22353" lon="7.03858">
        <ele>2666.53</ele>
        <time>2018-05-12T10:01:27Z</time>
      </trkpt>
      <trkpt lat="44.22342" lon="7.03854">
        <ele>2661.84</ele>
        <time>2018-05-12T10:01:30Z</time>
      </trkpt>
      <trkpt lat="44.22332" lon="7.03859">
        <ele>2657.91</ele>
        <time>2018-05-12T10:01:32Z</time>
      </trkpt>
      <trkpt lat="44.22325" lon="7.03857">
        <ele>2653.95</ele>
        <time>2018-05-12T10:01:34Z</time>
      </trkpt>
      <trkpt lat="44.22318" lon="7.03855">
        <ele>2650.04</ele>
        <time>2018-05-12T10:01:36Z</time>
      </trkpt>
      <trkpt lat="44.22317" lon="7.03854">
        <ele>2646.37</ele>
        <time>2018-05-12T10:01:38Z</time>
      </trkpt>
      <trkpt lat="44.22317" lon="7.03853">
        <ele>2644.68</ele>
        <time>2018-05-12T10:01:40Z</time>
      </trkpt>
      <trkpt lat="44.22321" lon="7.03851">
        <ele>2644.91</ele>
        <time>2018-05-12T10:02:07Z</time>
      </trkpt>
      <trkpt lat="44.22321" lon="7.03851">
        <ele>2645.01</ele>
        <time>2018-05-12T10:02:50Z</time>
      </trkpt>
      <trkpt lat="44.22321" lon="7.03855">
        <ele>2644.76</ele>
        <time>2018-05-12T10:02:59Z</time>
      </trkpt>
      <trkpt lat="44.22319" lon="7.03861">
        <ele>2643.92</ele>
        <time>2018-05-12T10:03:03Z</time>
      </trkpt>
      <trkpt lat="44.22315" lon="7.03869">
        <ele>2643.29</ele>
        <time>2018-05-12T10:03:17Z</time>
      </trkpt>
      <trkpt lat="44.22315" lon="7.03869">
        <ele>2642.69</ele>
        <time>2018-05-12T10:03:35Z</time>
      </trkpt>
      <trkpt lat="44.22315" lon="7.03869">
        <ele>2642.1</ele>
        <time>2018-05-12T10:04:06Z</time>
      </trkpt>
      <trkpt lat="44.22316" lon="7.03868">
        <ele>2642.5</ele>
        <time>2018-05-12T10:04:29Z</time>
      </trkpt>
      <trkpt lat="44.22316" lon="7.03868">
        <ele>2642.16</ele>
        <time>2018-05-12T10:04:53Z</time>
      </trkpt>
      <trkpt lat="44.22317" lon="7.03868">
        <ele>2642.41</ele>
        <time>2018-05-12T10:05:23Z</time>
      </trkpt>
      <trkpt lat="44.22317" lon="7.03869">
        <ele>2642.01</ele>
        <time>2018-05-12T10:05:51Z</time>
      </trkpt>
      <trkpt lat="44.22316" lon="7.0387">
        <ele>2641.97</ele>
        <time>2018-05-12T10:06:25Z</time>
      </trkpt>
      <trkpt lat="44.22317" lon="7.03871">
        <ele>2641.67</ele>
        <time>2018-05-12T10:06:52Z</time>
      </trkpt>
      <trkpt lat="44.22316" lon="7.03868">
        <ele>2641.88</ele>
        <time>2018-05-12T10:07:24Z</time>
      </trkpt>
      <trkpt lat="44.22315" lon="7.03868">
        <ele>2642.08</ele>
        <time>2018-05-12T10:07:41Z</time>
      </trkpt>
      <trkpt lat="44.22316" lon="7.03869">
        <ele>2641.84</ele>
        <time>2018-05-12T10:08:04Z</time>
      </trkpt>
      <trkpt lat="44.22316" lon="7.03866">
        <ele>2642.32</ele>
        <time>2018-05-12T10:08:11Z</time>
      </trkpt>
      <trkpt lat="44.22316" lon="7.03852">
        <ele>2642.14</ele>
        <time>2018-05-12T10:08:23Z</time>
      </trkpt>
      <trkpt lat="44.22317" lon="7.03851">
        <ele>2642.35</ele>
        <time>2018-05-12T10:08:48Z</time>
      </trkpt>
      <trkpt lat="44.22318" lon="7.03848">
        <ele>2642.08</ele>
        <time>2018-05-12T10:09:22Z</time>
      </trkpt>
      <trkpt lat="44.22322" lon="7.03838">
        <ele>2641.38</ele>
        <time>2018-05-12T10:09:25Z</time>
      </trkpt>
      <trkpt lat="44.2233" lon="7.03813">
        <ele>2637.09</ele>
        <time>2018-05-12T10:09:29Z</time>
      </trkpt>
      <trkpt lat="44.22339" lon="7.03793">
        <ele>2633.09</ele>
        <time>2018-05-12T10:09:34Z</time>
      </trkpt>
      <trkpt lat="44.22342" lon="7.03789">
        <ele>2632.24</ele>
        <time>2018-05-12T10:09:36Z</time>
      </trkpt>
      <trkpt lat="44.22346" lon="7.03775">
        <ele>2628.46</ele>
        <time>2018-05-12T10:09:42Z</time>
      </trkpt>
      <trkpt lat="44.22346" lon="7.03776">
        <ele>2628.19</ele>
        <time>2018-05-12T10:09:43Z</time>
      </trkpt>
      <trkpt lat="44.22347" lon="7.03778">
        <ele>2627.97</ele>
        <time>2018-05-12T10:10:08Z</time>
      </trkpt>
      <trkpt lat="44.22347" lon="7.0378">
        <ele>2628.04</ele>
        <time>2018-05-12T10:10:23Z</time>
      </trkpt>
      <trkpt lat="44.22341" lon="7.03747">
        <ele>2623.21</ele>
        <time>2018-05-12T10:10:29Z</time>
      </trkpt>
      <trkpt lat="44.22342" lon="7.03712">
        <ele>2613.69</ele>
        <time>2018-05-12T10:10:32Z</time>
      </trkpt>
      <trkpt lat="44.22346" lon="7.03701">
        <ele>2610.22</ele>
        <time>2018-05-12T10:10:33Z</time>
      </trkpt>
      <trkpt lat="44.2235" lon="7.03671">
        <ele>2601.94</ele>
        <time>2018-05-12T10:10:36Z</time>
      </trkpt>
      <trkpt lat="44.22351" lon="7.03663">
        <ele>2599.34</ele>
        <time>2018-05-12T10:10:37Z</time>
      </trkpt>
      <trkpt lat="44.22351" lon="7.03658">
        <ele>2593.48</ele>
        <time>2018-05-12T10:10:40Z</time>
      </trkpt>
      <trkpt lat="44.22351" lon="7.0366">
        <ele>2592.81</ele>
        <time>2018-05-12T10:10:42Z</time>
      </trkpt>
      <trkpt lat="44.22351" lon="7.03662">
        <ele>2592.52</ele>
        <time>2018-05-12T10:10:54Z</time>
      </trkpt>
      <trkpt lat="44.2234" lon="7.03665">
        <ele>2589.23</ele>
        <time>2018-05-12T10:11:01Z</time>
      </trkpt>
      <trkpt lat="44.22339" lon="7.03666">
        <ele>2590.13</ele>
        <time>2018-05-12T10:11:35Z</time>
      </trkpt>
      <trkpt lat="44.22338" lon="7.03664">
        <ele>2590.27</ele>
        <time>2018-05-12T10:11:43Z</time>
      </trkpt>
      <trkpt lat="44.22321" lon="7.03637">
        <ele>2585.01</ele>
        <time>2018-05-12T10:11:48Z</time>
      </trkpt>
      <trkpt lat="44.22315" lon="7.0361">
        <ele>2577.48</ele>
        <time>2018-05-12T10:11:50Z</time>
      </trkpt>
      <trkpt lat="44.22317" lon="7.03595">
        <ele>2573.45</ele>
        <time>2018-05-12T10:11:51Z</time>
      </trkpt>
      <trkpt lat="44.22326" lon="7.03573">
        <ele>2568.03</ele>
        <time>2018-05-12T10:11:53Z</time>
      </trkpt>
      <trkpt lat="44.22328" lon="7.03562">
        <ele>2566.49</ele>
        <time>2018-05-12T10:11:54Z</time>
      </trkpt>
      <trkpt lat="44.22329" lon="7.03544">
        <ele>2564.28</ele>
        <time>2018-05-12T10:11:56Z</time>
      </trkpt>
      <trkpt lat="44.22336" lon="7.03507">
        <ele>2558.99</ele>
        <time>2018-05-12T10:12:00Z</time>
      </trkpt>
      <trkpt lat="44.22335" lon="7.03499">
        <ele>2557.76</ele>
        <time>2018-05-12T10:12:01Z</time>
      </trkpt>
      <trkpt lat="44.22334" lon="7.03466">
        <ele>2553.1</ele>
        <time>2018-05-12T10:12:05Z</time>
      </trkpt>
      <trkpt lat="44.22332" lon="7.0345">
        <ele>2551.58</ele>
        <time>2018-05-12T10:12:08Z</time>
      </trkpt>
      <trkpt lat="44.2233" lon="7.03445">
        <ele>2551.87</ele>
        <time>2018-05-12T10:12:14Z</time>
      </trkpt>
      <trkpt lat="44.2233" lon="7.0343">
        <ele>2552.84</ele>
        <time>2018-05-12T10:12:32Z</time>
      </trkpt>
      <trkpt lat="44.22334" lon="7.03429">
        <ele>2553.99</ele>
        <time>2018-05-12T10:12:51Z</time>
      </trkpt>
      <trkpt lat="44.22335" lon="7.03423">
        <ele>2553.72</ele>
        <time>2018-05-12T10:13:09Z</time>
      </trkpt>
      <trkpt lat="44.22335" lon="7.0342">
        <ele>2554.32</ele>
        <time>2018-05-12T10:13:27Z</time>
      </trkpt>
      <trkpt lat="44.22332" lon="7.03412">
        <ele>2554.33</ele>
        <time>2018-05-12T10:13:48Z</time>
      </trkpt>
      <trkpt lat="44.22329" lon="7.03412">
        <ele>2554.82</ele>
        <time>2018-05-12T10:14:03Z</time>
      </trkpt>
      <trkpt lat="44.22328" lon="7.03411">
        <ele>2555.04</ele>
        <time>2018-05-12T10:14:09Z</time>
      </trkpt>
      <trkpt lat="44.22326" lon="7.03402">
        <ele>2554.29</ele>
        <time>2018-05-12T10:14:22Z</time>
      </trkpt>
      <trkpt lat="44.22324" lon="7.0337">
        <ele>2551.99</ele>
        <time>2018-05-12T10:14:34Z</time>
      </trkpt>
      <trkpt lat="44.22325" lon="7.03348">
        <ele>2549.21</ele>
        <time>2018-05-12T10:14:38Z</time>
      </trkpt>
      <trkpt lat="44.22329" lon="7.0332">
        <ele>2544.95</ele>
        <time>2018-05-12T10:14:43Z</time>
      </trkpt>
      <trkpt lat="44.22328" lon="7.03299">
        <ele>2542.32</ele>
        <time>2018-05-12T10:14:54Z</time>
      </trkpt>
      <trkpt lat="44.22328" lon="7.03292">
        <ele>2542.34</ele>
        <time>2018-05-12T10:14:57Z</time>
      </trkpt>
      <trkpt lat="44.22332" lon="7.03262">
        <ele>2538.37</ele>
        <time>2018-05-12T10:15:02Z</time>
      </trkpt>
      <trkpt lat="44.22334" lon="7.03256">
        <ele>2537.05</ele>
        <time>2018-05-12T10:15:03Z</time>
      </trkpt>
      <trkpt lat="44.22336" lon="7.03243">
        <ele>2533.7</ele>
        <time>2018-05-12T10:15:12Z</time>
      </trkpt>
      <trkpt lat="44.22336" lon="7.03233">
        <ele>2533.67</ele>
        <time>2018-05-12T10:15:32Z</time>
      </trkpt>
      <trkpt lat="44.22336" lon="7.03225">
        <ele>2533.02</ele>
        <time>2018-05-12T10:15:33Z</time>
      </trkpt>
      <trkpt lat="44.22339" lon="7.03197">
        <ele>2528.65</ele>
        <time>2018-05-12T10:15:36Z</time>
      </trkpt>
      <trkpt lat="44.22339" lon="7.03173">
        <ele>2524.8</ele>
        <time>2018-05-12T10:15:39Z</time>
      </trkpt>
      <trkpt lat="44.22344" lon="7.03154">
        <ele>2520.88</ele>
        <time>2018-05-12T10:15:43Z</time>
      </trkpt>
      <trkpt lat="44.22342" lon="7.03153">
        <ele>2519.32</ele>
        <time>2018-05-12T10:15:55Z</time>
      </trkpt>
      <trkpt lat="44.22344" lon="7.03155">
        <ele>2519.2</ele>
        <time>2018-05-12T10:16:25Z</time>
      </trkpt>
      <trkpt lat="44.22344" lon="7.03155">
        <ele>2518.56</ele>
        <time>2018-05-12T10:16:39Z</time>
      </trkpt>
      <trkpt lat="44.22345" lon="7.03155">
        <ele>2518.72</ele>
        <time>2018-05-12T10:17:03Z</time>
      </trkpt>
      <trkpt lat="44.22345" lon="7.03154">
        <ele>2519.03</ele>
        <time>2018-05-12T10:17:28Z</time>
      </trkpt>
      <trkpt lat="44.22344" lon="7.03153">
        <ele>2518.87</ele>
        <time>2018-05-12T10:17:53Z</time>
      </trkpt>
      <trkpt lat="44.22344" lon="7.03154">
        <ele>2518.8</ele>
        <time>2018-05-12T10:18:14Z</time>
      </trkpt>
      <trkpt lat="44.22344" lon="7.03154">
        <ele>2518.83</ele>
        <time>2018-05-12T10:18:35Z</time>
      </trkpt>
      <trkpt lat="44.22344" lon="7.03153">
        <ele>2519.14</ele>
        <time>2018-05-12T10:18:57Z</time>
      </trkpt>
      <trkpt lat="44.22342" lon="7.03153">
        <ele>2518.78</ele>
        <time>2018-05-12T10:19:22Z</time>
      </trkpt>
      <trkpt lat="44.22344" lon="7.03154">
        <ele>2519.12</ele>
        <time>2018-05-12T10:19:44Z</time>
      </trkpt>
      <trkpt lat="44.22343" lon="7.03155">
        <ele>2519.29</ele>
        <time>2018-05-12T10:20:10Z</time>
      </trkpt>
      <trkpt lat="44.22343" lon="7.03154">
        <ele>2519.32</ele>
        <time>2018-05-12T10:20:36Z</time>
      </trkpt>
      <trkpt lat="44.22343" lon="7.03154">
        <ele>2519.23</ele>
        <time>2018-05-12T10:21:03Z</time>
      </trkpt>
      <trkpt lat="44.22343" lon="7.03155">
        <ele>2519.31</ele>
        <time>2018-05-12T10:21:25Z</time>
      </trkpt>
      <trkpt lat="44.22344" lon="7.03154">
        <ele>2519.31</ele>
        <time>2018-05-12T10:21:47Z</time>
      </trkpt>
      <trkpt lat="44.22344" lon="7.03153">
        <ele>2519.22</ele>
        <time>2018-05-12T10:22:09Z</time>
      </trkpt>
      <trkpt lat="44.22343" lon="7.03153">
        <ele>2519.47</ele>
        <time>2018-05-12T10:22:30Z</time>
      </trkpt>
      <trkpt lat="44.22343" lon="7.03154">
        <ele>2519.18</ele>
        <time>2018-05-12T10:22:48Z</time>
      </trkpt>
      <trkpt lat="44.22343" lon="7.03153">
        <ele>2519.52</ele>
        <time>2018-05-12T10:23:11Z</time>
      </trkpt>
      <trkpt lat="44.22343" lon="7.03154">
        <ele>2519.06</ele>
        <time>2018-05-12T10:23:34Z</time>
      </trkpt>
      <trkpt lat="44.22344" lon="7.03154">
        <ele>2519.9</ele>
        <time>2018-05-12T10:24:43Z</time>
      </trkpt>
      <trkpt lat="44.22344" lon="7.03154">
        <ele>2519.83</ele>
        <time>2018-05-12T10:26:21Z</time>
      </trkpt>
      <trkpt lat="44.22345" lon="7.03152">
        <ele>2519.21</ele>
        <time>2018-05-12T10:27:14Z</time>
      </trkpt>
      <trkpt lat="44.22344" lon="7.03153">
        <ele>2518.86</ele>
        <time>2018-05-12T10:27:54Z</time>
      </trkpt>
      <trkpt lat="44.22344" lon="7.03153">
        <ele>2519.17</ele>
        <time>2018-05-12T10:28:09Z</time>
      </trkpt>
      <trkpt lat="44.22344" lon="7.03152">
        <ele>2519.2</ele>
        <time>2018-05-12T10:28:30Z</time>
      </trkpt>
      <trkpt lat="44.2234" lon="7.03144">
        <ele>2519.73</ele>
        <time>2018-05-12T10:28:44Z</time>
      </trkpt>
      <trkpt lat="44.22344" lon="7.0312">
        <ele>2516.89</ele>
        <time>2018-05-12T10:28:56Z</time>
      </trkpt>
      <trkpt lat="44.22348" lon="7.03102">
        <ele>2515.77</ele>
        <time>2018-05-12T10:29:07Z</time>
      </trkpt>
      <trkpt lat="44.22353" lon="7.03082">
        <ele>2514.06</ele>
        <time>2018-05-12T10:29:18Z</time>
      </trkpt>
      <trkpt lat="44.22358" lon="7.03062">
        <ele>2512.84</ele>
        <time>2018-05-12T10:29:32Z</time>
      </trkpt>
      <trkpt lat="44.22364" lon="7.03045">
        <ele>2512.13</ele>
        <time>2018-05-12T10:29:45Z</time>
      </trkpt>
      <trkpt lat="44.22369" lon="7.03032">
        <ele>2512.27</ele>
        <time>2018-05-12T10:29:56Z</time>
      </trkpt>
      <trkpt lat="44.22374" lon="7.03017">
        <ele>2512.06</ele>
        <time>2018-05-12T10:30:09Z</time>
      </trkpt>
      <trkpt lat="44.2238" lon="7.03">
        <ele>2512.81</ele>
        <time>2018-05-12T10:30:25Z</time>
      </trkpt>
      <trkpt lat="44.22387" lon="7.02983">
        <ele>2513.71</ele>
        <time>2018-05-12T10:30:43Z</time>
      </trkpt>
      <trkpt lat="44.22395" lon="7.0297">
        <ele>2514.77</ele>
        <time>2018-05-12T10:30:58Z</time>
      </trkpt>
      <trkpt lat="44.22401" lon="7.02955">
        <ele>2515.69</ele>
        <time>2018-05-12T10:31:13Z</time>
      </trkpt>
      <trkpt lat="44.22407" lon="7.0294">
        <ele>2516.54</ele>
        <time>2018-05-12T10:31:30Z</time>
      </trkpt>
      <trkpt lat="44.22411" lon="7.02931">
        <ele>2517.19</ele>
        <time>2018-05-12T10:31:45Z</time>
      </trkpt>
      <trkpt lat="44.22412" lon="7.0293">
        <ele>2517.98</ele>
        <time>2018-05-12T10:32:05Z</time>
      </trkpt>
      <trkpt lat="44.22416" lon="7.02927">
        <ele>2518.26</ele>
        <time>2018-05-12T10:32:29Z</time>
      </trkpt>
      <trkpt lat="44.22425" lon="7.02911">
        <ele>2519.59</ele>
        <time>2018-05-12T10:32:48Z</time>
      </trkpt>
      <trkpt lat="44.2243" lon="7.02898">
        <ele>2520.78</ele>
        <time>2018-05-12T10:33:06Z</time>
      </trkpt>
      <trkpt lat="44.22433" lon="7.02887">
        <ele>2522.37</ele>
        <time>2018-05-12T10:33:25Z</time>
      </trkpt>
      <trkpt lat="44.22434" lon="7.02886">
        <ele>2522.94</ele>
        <time>2018-05-12T10:33:45Z</time>
      </trkpt>
      <trkpt lat="44.22434" lon="7.02884">
        <ele>2523.04</ele>
        <time>2018-05-12T10:34:09Z</time>
      </trkpt>
      <trkpt lat="44.22437" lon="7.02875">
        <ele>2524.93</ele>
        <time>2018-05-12T10:34:25Z</time>
      </trkpt>
      <trkpt lat="44.2244" lon="7.02864">
        <ele>2526.8</ele>
        <time>2018-05-12T10:34:43Z</time>
      </trkpt>
      <trkpt lat="44.22443" lon="7.02854">
        <ele>2529</ele>
        <time>2018-05-12T10:35:02Z</time>
      </trkpt>
      <trkpt lat="44.22446" lon="7.02844">
        <ele>2530.88</ele>
        <time>2018-05-12T10:35:19Z</time>
      </trkpt>
      <trkpt lat="44.22451" lon="7.02832">
        <ele>2532.36</ele>
        <time>2018-05-12T10:35:37Z</time>
      </trkpt>
      <trkpt lat="44.2246" lon="7.02813">
        <ele>2532.28</ele>
        <time>2018-05-12T10:35:59Z</time>
      </trkpt>
      <trkpt lat="44.22462" lon="7.02809">
        <ele>2531.9</ele>
        <time>2018-05-12T10:36:03Z</time>
      </trkpt>
      <trkpt lat="44.2247" lon="7.02799">
        <ele>2530.44</ele>
        <time>2018-05-12T10:36:18Z</time>
      </trkpt>
      <trkpt lat="44.22477" lon="7.02786">
        <ele>2529.83</ele>
        <time>2018-05-12T10:36:35Z</time>
      </trkpt>
      <trkpt lat="44.22485" lon="7.02765">
        <ele>2529.27</ele>
        <time>2018-05-12T10:36:56Z</time>
      </trkpt>
      <trkpt lat="44.22493" lon="7.02751">
        <ele>2529.8</ele>
        <time>2018-05-12T10:37:14Z</time>
      </trkpt>
      <trkpt lat="44.22495" lon="7.02751">
        <ele>2529.43</ele>
        <time>2018-05-12T10:37:40Z</time>
      </trkpt>
      <trkpt lat="44.22495" lon="7.0275">
        <ele>2529.66</ele>
        <time>2018-05-12T10:38:12Z</time>
      </trkpt>
      <trkpt lat="44.22494" lon="7.02751">
        <ele>2529.39</ele>
        <time>2018-05-12T10:38:53Z</time>
      </trkpt>
      <trkpt lat="44.22494" lon="7.02751">
        <ele>2529.16</ele>
        <time>2018-05-12T10:39:30Z</time>
      </trkpt>
      <trkpt lat="44.2249" lon="7.02753">
        <ele>2529.52</ele>
        <time>2018-05-12T10:40:35Z</time>
      </trkpt>
      <trkpt lat="44.2249" lon="7.0275">
        <ele>2529.13</ele>
        <time>2018-05-12T10:41:42Z</time>
      </trkpt>
      <trkpt lat="44.22491" lon="7.02751">
        <ele>2529.42</ele>
        <time>2018-05-12T10:43:28Z</time>
      </trkpt>
      <trkpt lat="44.22491" lon="7.0275">
        <ele>2529.2</ele>
        <time>2018-05-12T10:45:02Z</time>
      </trkpt>
      <trkpt lat="44.22491" lon="7.02753">
        <ele>2529.63</ele>
        <time>2018-05-12T10:46:24Z</time>
      </trkpt>
      <trkpt lat="44.22491" lon="7.0275">
        <ele>2529.63</ele>
        <time>2018-05-12T10:47:38Z</time>
      </trkpt>
      <trkpt lat="44.22496" lon="7.02744">
        <ele>2529.8</ele>
        <time>2018-05-12T10:48:29Z</time>
      </trkpt>
      <trkpt lat="44.22502" lon="7.02727">
        <ele>2531.58</ele>
        <time>2018-05-12T10:48:46Z</time>
      </trkpt>
      <trkpt lat="44.22505" lon="7.02712">
        <ele>2532.11</ele>
        <time>2018-05-12T10:49:01Z</time>
      </trkpt>
      <trkpt lat="44.22511" lon="7.02696">
        <ele>2531.49</ele>
        <time>2018-05-12T10:49:17Z</time>
      </trkpt>
      <trkpt lat="44.22515" lon="7.0268">
        <ele>2531.22</ele>
        <time>2018-05-12T10:49:32Z</time>
      </trkpt>
      <trkpt lat="44.22522" lon="7.02662">
        <ele>2530.7</ele>
        <time>2018-05-12T10:49:50Z</time>
      </trkpt>
      <trkpt lat="44.22527" lon="7.02647">
        <ele>2530.44</ele>
        <time>2018-05-12T10:50:05Z</time>
      </trkpt>
      <trkpt lat="44.22531" lon="7.02634">
        <ele>2531.1</ele>
        <time>2018-05-12T10:50:19Z</time>
      </trkpt>
      <trkpt lat="44.22537" lon="7.02614">
        <ele>2531.3</ele>
        <time>2018-05-12T10:50:39Z</time>
      </trkpt>
      <trkpt lat="44.22541" lon="7.02606">
        <ele>2531.31</ele>
        <time>2018-05-12T10:50:56Z</time>
      </trkpt>
      <trkpt lat="44.22545" lon="7.02595">
        <ele>2533.83</ele>
        <time>2018-05-12T10:51:12Z</time>
      </trkpt>
      <trkpt lat="44.22551" lon="7.02578">
        <ele>2535.83</ele>
        <time>2018-05-12T10:51:34Z</time>
      </trkpt>
      <trkpt lat="44.22556" lon="7.02567">
        <ele>2537.04</ele>
        <time>2018-05-12T10:51:49Z</time>
      </trkpt>
      <trkpt lat="44.22559" lon="7.02563">
        <ele>2537.89</ele>
        <time>2018-05-12T10:52:05Z</time>
      </trkpt>
      <trkpt lat="44.22564" lon="7.02551">
        <ele>2540.01</ele>
        <time>2018-05-12T10:52:24Z</time>
      </trkpt>
      <trkpt lat="44.22568" lon="7.02543">
        <ele>2541.64</ele>
        <time>2018-05-12T10:52:40Z</time>
      </trkpt>
      <trkpt lat="44.2257" lon="7.02533">
        <ele>2544.71</ele>
        <time>2018-05-12T10:53:01Z</time>
      </trkpt>
      <trkpt lat="44.22574" lon="7.02521">
        <ele>2547.11</ele>
        <time>2018-05-12T10:53:19Z</time>
      </trkpt>
      <trkpt lat="44.22578" lon="7.0251">
        <ele>2549.84</ele>
        <time>2018-05-12T10:53:40Z</time>
      </trkpt>
      <trkpt lat="44.22582" lon="7.02503">
        <ele>2551.77</ele>
        <time>2018-05-12T10:53:59Z</time>
      </trkpt>
      <trkpt lat="44.22582" lon="7.02499">
        <ele>2552.86</ele>
        <time>2018-05-12T10:54:21Z</time>
      </trkpt>
      <trkpt lat="44.22589" lon="7.02488">
        <ele>2553.88</ele>
        <time>2018-05-12T10:54:41Z</time>
      </trkpt>
      <trkpt lat="44.22599" lon="7.02483">
        <ele>2553.35</ele>
        <time>2018-05-12T10:55:03Z</time>
      </trkpt>
      <trkpt lat="44.22608" lon="7.02482">
        <ele>2552.53</ele>
        <time>2018-05-12T10:55:23Z</time>
      </trkpt>
      <trkpt lat="44.22615" lon="7.02479">
        <ele>2550.65</ele>
        <time>2018-05-12T10:55:43Z</time>
      </trkpt>
      <trkpt lat="44.2262" lon="7.02475">
        <ele>2549.73</ele>
        <time>2018-05-12T10:56:00Z</time>
      </trkpt>
      <trkpt lat="44.22628" lon="7.02472">
        <ele>2547.68</ele>
        <time>2018-05-12T10:56:12Z</time>
      </trkpt>
      <trkpt lat="44.22632" lon="7.0247">
        <ele>2547.66</ele>
        <time>2018-05-12T10:56:35Z</time>
      </trkpt>
      <trkpt lat="44.2265" lon="7.02469">
        <ele>2544.83</ele>
        <time>2018-05-12T10:56:56Z</time>
      </trkpt>
      <trkpt lat="44.22652" lon="7.02471">
        <ele>2542.05</ele>
        <time>2018-05-12T10:57:05Z</time>
      </trkpt>
      <trkpt lat="44.22654" lon="7.02469">
        <ele>2541.96</ele>
        <time>2018-05-12T10:57:29Z</time>
      </trkpt>
      <trkpt lat="44.2266" lon="7.02465">
        <ele>2542.15</ele>
        <time>2018-05-12T10:57:51Z</time>
      </trkpt>
      <trkpt lat="44.22663" lon="7.02464">
        <ele>2541.49</ele>
        <time>2018-05-12T10:58:13Z</time>
      </trkpt>
      <trkpt lat="44.22667" lon="7.02461">
        <ele>2540.98</ele>
        <time>2018-05-12T10:58:43Z</time>
      </trkpt>
      <trkpt lat="44.22675" lon="7.02457">
        <ele>2540.3</ele>
        <time>2018-05-12T10:59:05Z</time>
      </trkpt>
      <trkpt lat="44.22684" lon="7.02452">
        <ele>2539.58</ele>
        <time>2018-05-12T10:59:24Z</time>
      </trkpt>
      <trkpt lat="44.22694" lon="7.02449">
        <ele>2538.48</ele>
        <time>2018-05-12T10:59:46Z</time>
      </trkpt>
      <trkpt lat="44.22703" lon="7.02448">
        <ele>2537.04</ele>
        <time>2018-05-12T11:00:03Z</time>
      </trkpt>
      <trkpt lat="44.22719" lon="7.02447">
        <ele>2534.36</ele>
        <time>2018-05-12T11:00:24Z</time>
      </trkpt>
      <trkpt lat="44.22737" lon="7.02447">
        <ele>2531.4</ele>
        <time>2018-05-12T11:00:38Z</time>
      </trkpt>
      <trkpt lat="44.22752" lon="7.02448">
        <ele>2528.69</ele>
        <time>2018-05-12T11:00:49Z</time>
      </trkpt>
      <trkpt lat="44.22758" lon="7.0245">
        <ele>2526.92</ele>
        <time>2018-05-12T11:01:03Z</time>
      </trkpt>
      <trkpt lat="44.22769" lon="7.02454">
        <ele>2524.75</ele>
        <time>2018-05-12T11:01:28Z</time>
      </trkpt>
      <trkpt lat="44.22784" lon="7.02459">
        <ele>2521.65</ele>
        <time>2018-05-12T11:01:39Z</time>
      </trkpt>
      <trkpt lat="44.22796" lon="7.02461">
        <ele>2519.83</ele>
        <time>2018-05-12T11:01:48Z</time>
      </trkpt>
      <trkpt lat="44.22809" lon="7.02464">
        <ele>2517.88</ele>
        <time>2018-05-12T11:01:57Z</time>
      </trkpt>
      <trkpt lat="44.2282" lon="7.02468">
        <ele>2516.03</ele>
        <time>2018-05-12T11:02:06Z</time>
      </trkpt>
      <trkpt lat="44.22832" lon="7.02473">
        <ele>2513.86</ele>
        <time>2018-05-12T11:02:17Z</time>
      </trkpt>
      <trkpt lat="44.22846" lon="7.02475">
        <ele>2512.48</ele>
        <time>2018-05-12T11:02:29Z</time>
      </trkpt>
      <trkpt lat="44.22855" lon="7.02477">
        <ele>2512.02</ele>
        <time>2018-05-12T11:02:39Z</time>
      </trkpt>
      <trkpt lat="44.22868" lon="7.02483">
        <ele>2512.91</ele>
        <time>2018-05-12T11:02:58Z</time>
      </trkpt>
      <trkpt lat="44.22881" lon="7.0249">
        <ele>2513.46</ele>
        <time>2018-05-12T11:03:16Z</time>
      </trkpt>
      <trkpt lat="44.22895" lon="7.02491">
        <ele>2514.42</ele>
        <time>2018-05-12T11:03:35Z</time>
      </trkpt>
      <trkpt lat="44.22902" lon="7.02481">
        <ele>2515.11</ele>
        <time>2018-05-12T11:03:55Z</time>
      </trkpt>
      <trkpt lat="44.22909" lon="7.02462">
        <ele>2515.58</ele>
        <time>2018-05-12T11:04:19Z</time>
      </trkpt>
      <trkpt lat="44.22915" lon="7.02452">
        <ele>2515.24</ele>
        <time>2018-05-12T11:04:31Z</time>
      </trkpt>
      <trkpt lat="44.22925" lon="7.02441">
        <ele>2514.4</ele>
        <time>2018-05-12T11:04:47Z</time>
      </trkpt>
      <trkpt lat="44.22936" lon="7.02433">
        <ele>2512.86</ele>
        <time>2018-05-12T11:05:01Z</time>
      </trkpt>
      <trkpt lat="44.22956" lon="7.02427">
        <ele>2511.15</ele>
        <time>2018-05-12T11:05:24Z</time>
      </trkpt>
      <trkpt lat="44.2297" lon="7.02431">
        <ele>2512.08</ele>
        <time>2018-05-12T11:05:43Z</time>
      </trkpt>
      <trkpt lat="44.22985" lon="7.02435">
        <ele>2513.46</ele>
        <time>2018-05-12T11:06:03Z</time>
      </trkpt>
      <trkpt lat="44.22986" lon="7.02436">
        <ele>2513.46</ele>
        <time>2018-05-12T11:06:04Z</time>
      </trkpt>
      <trkpt lat="44.22995" lon="7.02441">
        <ele>2513.59</ele>
        <time>2018-05-12T11:06:15Z</time>
      </trkpt>
      <trkpt lat="44.23007" lon="7.02451">
        <ele>2513.46</ele>
        <time>2018-05-12T11:06:32Z</time>
      </trkpt>
      <trkpt lat="44.23016" lon="7.02468">
        <ele>2514.38</ele>
        <time>2018-05-12T11:06:53Z</time>
      </trkpt>
      <trkpt lat="44.23021" lon="7.0249">
        <ele>2515.41</ele>
        <time>2018-05-12T11:07:13Z</time>
      </trkpt>
      <trkpt lat="44.23027" lon="7.02509">
        <ele>2517.22</ele>
        <time>2018-05-12T11:07:36Z</time>
      </trkpt>
      <trkpt lat="44.23031" lon="7.02529">
        <ele>2518.57</ele>
        <time>2018-05-12T11:07:59Z</time>
      </trkpt>
      <trkpt lat="44.23033" lon="7.02547">
        <ele>2520.17</ele>
        <time>2018-05-12T11:08:21Z</time>
      </trkpt>
      <trkpt lat="44.23033" lon="7.02559">
        <ele>2521.84</ele>
        <time>2018-05-12T11:08:40Z</time>
      </trkpt>
      <trkpt lat="44.23033" lon="7.02572">
        <ele>2523.41</ele>
        <time>2018-05-12T11:09:00Z</time>
      </trkpt>
      <trkpt lat="44.23033" lon="7.02583">
        <ele>2525.34</ele>
        <time>2018-05-12T11:09:22Z</time>
      </trkpt>
      <trkpt lat="44.23034" lon="7.02599">
        <ele>2526.94</ele>
        <time>2018-05-12T11:09:43Z</time>
      </trkpt>
      <trkpt lat="44.23035" lon="7.02614">
        <ele>2528.17</ele>
        <time>2018-05-12T11:10:03Z</time>
      </trkpt>
      <trkpt lat="44.23034" lon="7.0263">
        <ele>2529.44</ele>
        <time>2018-05-12T11:10:22Z</time>
      </trkpt>
      <trkpt lat="44.23035" lon="7.02645">
        <ele>2531.93</ele>
        <time>2018-05-12T11:10:46Z</time>
      </trkpt>
      <trkpt lat="44.23036" lon="7.02662">
        <ele>2534.24</ele>
        <time>2018-05-12T11:11:10Z</time>
      </trkpt>
      <trkpt lat="44.2304" lon="7.02678">
        <ele>2535.65</ele>
        <time>2018-05-12T11:11:30Z</time>
      </trkpt>
      <trkpt lat="44.23046" lon="7.02695">
        <ele>2537.43</ele>
        <time>2018-05-12T11:11:51Z</time>
      </trkpt>
      <trkpt lat="44.23052" lon="7.02713">
        <ele>2539.15</ele>
        <time>2018-05-12T11:12:10Z</time>
      </trkpt>
      <trkpt lat="44.23051" lon="7.02719">
        <ele>2540.33</ele>
        <time>2018-05-12T11:12:26Z</time>
      </trkpt>
      <trkpt lat="44.23055" lon="7.02734">
        <ele>2541.83</ele>
        <time>2018-05-12T11:12:45Z</time>
      </trkpt>
      <trkpt lat="44.23063" lon="7.02747">
        <ele>2542.43</ele>
        <time>2018-05-12T11:13:04Z</time>
      </trkpt>
      <trkpt lat="44.23068" lon="7.02757">
        <ele>2542.12</ele>
        <time>2018-05-12T11:13:21Z</time>
      </trkpt>
      <trkpt lat="44.23072" lon="7.02759">
        <ele>2542.07</ele>
        <time>2018-05-12T11:13:39Z</time>
      </trkpt>
      <trkpt lat="44.2308" lon="7.02768">
        <ele>2543.01</ele>
        <time>2018-05-12T11:14:00Z</time>
      </trkpt>
      <trkpt lat="44.23089" lon="7.02781">
        <ele>2543.64</ele>
        <time>2018-05-12T11:14:21Z</time>
      </trkpt>
      <trkpt lat="44.23093" lon="7.02788">
        <ele>2543.26</ele>
        <time>2018-05-12T11:14:40Z</time>
      </trkpt>
      <trkpt lat="44.23096" lon="7.02795">
        <ele>2542.7</ele>
        <time>2018-05-12T11:14:57Z</time>
      </trkpt>
      <trkpt lat="44.23096" lon="7.02799">
        <ele>2541.56</ele>
        <time>2018-05-12T11:15:14Z</time>
      </trkpt>
      <trkpt lat="44.23097" lon="7.02802">
        <ele>2540.85</ele>
        <time>2018-05-12T11:15:36Z</time>
      </trkpt>
      <trkpt lat="44.23101" lon="7.02807">
        <ele>2540.31</ele>
        <time>2018-05-12T11:15:57Z</time>
      </trkpt>
      <trkpt lat="44.23101" lon="7.02809">
        <ele>2540.36</ele>
        <time>2018-05-12T11:16:14Z</time>
      </trkpt>
      <trkpt lat="44.23106" lon="7.02815">
        <ele>2541.53</ele>
        <time>2018-05-12T11:17:04Z</time>
      </trkpt>
      <trkpt lat="44.23113" lon="7.02827">
        <ele>2539.5</ele>
        <time>2018-05-12T11:17:14Z</time>
      </trkpt>
      <trkpt lat="44.23121" lon="7.02829">
        <ele>2539.7</ele>
        <time>2018-05-12T11:17:29Z</time>
      </trkpt>
      <trkpt lat="44.2312" lon="7.02829">
        <ele>2539.34</ele>
        <time>2018-05-12T11:17:52Z</time>
      </trkpt>
      <trkpt lat="44.23127" lon="7.02825">
        <ele>2539.64</ele>
        <time>2018-05-12T11:18:13Z</time>
      </trkpt>
      <trkpt lat="44.2313" lon="7.02827">
        <ele>2538.62</ele>
        <time>2018-05-12T11:18:29Z</time>
      </trkpt>
      <trkpt lat="44.2313" lon="7.02826">
        <ele>2538.47</ele>
        <time>2018-05-12T11:18:55Z</time>
      </trkpt>
      <trkpt lat="44.23129" lon="7.02826">
        <ele>2538.02</ele>
        <time>2018-05-12T11:19:19Z</time>
      </trkpt>
      <trkpt lat="44.23129" lon="7.02826">
        <ele>2538.03</ele>
        <time>2018-05-12T11:19:43Z</time>
      </trkpt>
      <trkpt lat="44.2313" lon="7.02825">
        <ele>2538.44</ele>
        <time>2018-05-12T11:20:03Z</time>
      </trkpt>
      <trkpt lat="44.2313" lon="7.02826">
        <ele>2538.56</ele>
        <time>2018-05-12T11:20:23Z</time>
      </trkpt>
      <trkpt lat="44.2313" lon="7.02826">
        <ele>2538.5</ele>
        <time>2018-05-12T11:20:50Z</time>
      </trkpt>
      <trkpt lat="44.2313" lon="7.02827">
        <ele>2538.41</ele>
        <time>2018-05-12T11:21:15Z</time>
      </trkpt>
      <trkpt lat="44.2313" lon="7.02827">
        <ele>2538.8</ele>
        <time>2018-05-12T11:21:40Z</time>
      </trkpt>
      <trkpt lat="44.2313" lon="7.02827">
        <ele>2538.45</ele>
        <time>2018-05-12T11:22:04Z</time>
      </trkpt>
      <trkpt lat="44.2313" lon="7.02826">
        <ele>2538.68</ele>
        <time>2018-05-12T11:22:28Z</time>
      </trkpt>
      <trkpt lat="44.23129" lon="7.02828">
        <ele>2538.75</ele>
        <time>2018-05-12T11:22:51Z</time>
      </trkpt>
      <trkpt lat="44.23128" lon="7.02827">
        <ele>2538.7</ele>
        <time>2018-05-12T11:23:10Z</time>
      </trkpt>
      <trkpt lat="44.2313" lon="7.02828">
        <ele>2538.69</ele>
        <time>2018-05-12T11:23:37Z</time>
      </trkpt>
      <trkpt lat="44.2313" lon="7.02827">
        <ele>2538.7</ele>
        <time>2018-05-12T11:23:57Z</time>
      </trkpt>
      <trkpt lat="44.2313" lon="7.02827">
        <ele>2539.06</ele>
        <time>2018-05-12T11:24:26Z</time>
      </trkpt>
      <trkpt lat="44.23129" lon="7.02827">
        <ele>2538.47</ele>
        <time>2018-05-12T11:24:52Z</time>
      </trkpt>
      <trkpt lat="44.23128" lon="7.02829">
        <ele>2538.47</ele>
        <time>2018-05-12T11:25:38Z</time>
      </trkpt>
      <trkpt lat="44.23127" lon="7.02831">
        <ele>2538.25</ele>
        <time>2018-05-12T11:26:08Z</time>
      </trkpt>
      <trkpt lat="44.23128" lon="7.02829">
        <ele>2538.51</ele>
        <time>2018-05-12T11:26:29Z</time>
      </trkpt>
      <trkpt lat="44.2313" lon="7.02828">
        <ele>2538.3</ele>
        <time>2018-05-12T11:26:45Z</time>
      </trkpt>
      <trkpt lat="44.23129" lon="7.02828">
        <ele>2539.2</ele>
        <time>2018-05-12T11:27:13Z</time>
      </trkpt>
      <trkpt lat="44.2313" lon="7.02827">
        <ele>2539.31</ele>
        <time>2018-05-12T11:27:57Z</time>
      </trkpt>
      <trkpt lat="44.23129" lon="7.02826">
        <ele>2539.62</ele>
        <time>2018-05-12T11:29:01Z</time>
      </trkpt>
      <trkpt lat="44.23129" lon="7.02827">
        <ele>2539.24</ele>
        <time>2018-05-12T11:29:47Z</time>
      </trkpt>
      <trkpt lat="44.23127" lon="7.02827">
        <ele>2539.63</ele>
        <time>2018-05-12T11:31:21Z</time>
      </trkpt>
      <trkpt lat="44.23129" lon="7.02823">
        <ele>2539.79</ele>
        <time>2018-05-12T11:32:32Z</time>
      </trkpt>
      <trkpt lat="44.23128" lon="7.02827">
        <ele>2539.55</ele>
        <time>2018-05-12T11:33:08Z</time>
      </trkpt>
      <trkpt lat="44.2313" lon="7.02826">
        <ele>2538.99</ele>
        <time>2018-05-12T11:33:40Z</time>
      </trkpt>
      <trkpt lat="44.23131" lon="7.02829">
        <ele>2538.79</ele>
        <time>2018-05-12T11:34:18Z</time>
      </trkpt>
      <trkpt lat="44.23142" lon="7.02833">
        <ele>2537.99</ele>
        <time>2018-05-12T11:34:39Z</time>
      </trkpt>
      <trkpt lat="44.23156" lon="7.02822">
        <ele>2534.01</ele>
        <time>2018-05-12T11:34:42Z</time>
      </trkpt>
      <trkpt lat="44.23164" lon="7.02825">
        <ele>2530.75</ele>
        <time>2018-05-12T11:34:43Z</time>
      </trkpt>
      <trkpt lat="44.23171" lon="7.02829">
        <ele>2527.71</ele>
        <time>2018-05-12T11:34:44Z</time>
      </trkpt>
      <trkpt lat="44.23183" lon="7.02841">
        <ele>2522.43</ele>
        <time>2018-05-12T11:34:46Z</time>
      </trkpt>
      <trkpt lat="44.23189" lon="7.02844">
        <ele>2520.68</ele>
        <time>2018-05-12T11:34:47Z</time>
      </trkpt>
      <trkpt lat="44.23206" lon="7.02853">
        <ele>2515.99</ele>
        <time>2018-05-12T11:34:50Z</time>
      </trkpt>
      <trkpt lat="44.23223" lon="7.02859">
        <ele>2512.36</ele>
        <time>2018-05-12T11:34:53Z</time>
      </trkpt>
      <trkpt lat="44.23242" lon="7.02866">
        <ele>2508.75</ele>
        <time>2018-05-12T11:34:56Z</time>
      </trkpt>
      <trkpt lat="44.23268" lon="7.02877">
        <ele>2505.15</ele>
        <time>2018-05-12T11:35:00Z</time>
      </trkpt>
      <trkpt lat="44.23291" lon="7.02883">
        <ele>2502.11</ele>
        <time>2018-05-12T11:35:04Z</time>
      </trkpt>
      <trkpt lat="44.23315" lon="7.02891">
        <ele>2499.23</ele>
        <time>2018-05-12T11:35:09Z</time>
      </trkpt>
      <trkpt lat="44.23334" lon="7.02894">
        <ele>2496.72</ele>
        <time>2018-05-12T11:35:13Z</time>
      </trkpt>
      <trkpt lat="44.23355" lon="7.02892">
        <ele>2494.39</ele>
        <time>2018-05-12T11:35:17Z</time>
      </trkpt>
      <trkpt lat="44.23383" lon="7.02875">
        <ele>2489.31</ele>
        <time>2018-05-12T11:35:22Z</time>
      </trkpt>
      <trkpt lat="44.23415" lon="7.02847">
        <ele>2483.48</ele>
        <time>2018-05-12T11:35:27Z</time>
      </trkpt>
      <trkpt lat="44.23425" lon="7.02837">
        <ele>2481.3</ele>
        <time>2018-05-12T11:35:29Z</time>
      </trkpt>
      <trkpt lat="44.23436" lon="7.0282">
        <ele>2478.36</ele>
        <time>2018-05-12T11:35:39Z</time>
      </trkpt>
      <trkpt lat="44.23433" lon="7.0282">
        <ele>2478.36</ele>
        <time>2018-05-12T11:36:10Z</time>
      </trkpt>
      <trkpt lat="44.23438" lon="7.02818">
        <ele>2477.55</ele>
        <time>2018-05-12T11:36:33Z</time>
      </trkpt>
      <trkpt lat="44.23441" lon="7.02818">
        <ele>2477.39</ele>
        <time>2018-05-12T11:36:50Z</time>
      </trkpt>
      <trkpt lat="44.23439" lon="7.02816">
        <ele>2477.42</ele>
        <time>2018-05-12T11:37:17Z</time>
      </trkpt>
      <trkpt lat="44.23441" lon="7.02816">
        <ele>2477.57</ele>
        <time>2018-05-12T11:37:30Z</time>
      </trkpt>
      <trkpt lat="44.23458" lon="7.02781">
        <ele>2474.29</ele>
        <time>2018-05-12T11:37:39Z</time>
      </trkpt>
      <trkpt lat="44.23469" lon="7.02761">
        <ele>2471.13</ele>
        <time>2018-05-12T11:37:42Z</time>
      </trkpt>
      <trkpt lat="44.23478" lon="7.02748">
        <ele>2468.15</ele>
        <time>2018-05-12T11:37:44Z</time>
      </trkpt>
      <trkpt lat="44.23499" lon="7.02737">
        <ele>2464.68</ele>
        <time>2018-05-12T11:37:48Z</time>
      </trkpt>
      <trkpt lat="44.23526" lon="7.02733">
        <ele>2461.67</ele>
        <time>2018-05-12T11:37:52Z</time>
      </trkpt>
      <trkpt lat="44.23553" lon="7.02728">
        <ele>2457.34</ele>
        <time>2018-05-12T11:37:59Z</time>
      </trkpt>
      <trkpt lat="44.2358" lon="7.02715">
        <ele>2454.07</ele>
        <time>2018-05-12T11:38:07Z</time>
      </trkpt>
      <trkpt lat="44.23588" lon="7.02709">
        <ele>2451.77</ele>
        <time>2018-05-12T11:38:17Z</time>
      </trkpt>
      <trkpt lat="44.23585" lon="7.02709">
        <ele>2451.91</ele>
        <time>2018-05-12T11:39:11Z</time>
      </trkpt>
      <trkpt lat="44.23597" lon="7.02708">
        <ele>2451.28</ele>
        <time>2018-05-12T11:39:22Z</time>
      </trkpt>
      <trkpt lat="44.23615" lon="7.0271">
        <ele>2447.53</ele>
        <time>2018-05-12T11:39:26Z</time>
      </trkpt>
      <trkpt lat="44.23626" lon="7.02715">
        <ele>2444.2</ele>
        <time>2018-05-12T11:39:28Z</time>
      </trkpt>
      <trkpt lat="44.23637" lon="7.02717">
        <ele>2440.27</ele>
        <time>2018-05-12T11:39:30Z</time>
      </trkpt>
      <trkpt lat="44.23652" lon="7.02716">
        <ele>2435.72</ele>
        <time>2018-05-12T11:39:32Z</time>
      </trkpt>
      <trkpt lat="44.23659" lon="7.02713">
        <ele>2433.16</ele>
        <time>2018-05-12T11:39:33Z</time>
      </trkpt>
      <trkpt lat="44.23683" lon="7.02701">
        <ele>2426</ele>
        <time>2018-05-12T11:39:37Z</time>
      </trkpt>
      <trkpt lat="44.23691" lon="7.02696">
        <ele>2424.1</ele>
        <time>2018-05-12T11:39:39Z</time>
      </trkpt>
      <trkpt lat="44.23712" lon="7.02681">
        <ele>2419.89</ele>
        <time>2018-05-12T11:39:45Z</time>
      </trkpt>
      <trkpt lat="44.23726" lon="7.02665">
        <ele>2416.54</ele>
        <time>2018-05-12T11:39:52Z</time>
      </trkpt>
      <trkpt lat="44.23731" lon="7.02659">
        <ele>2415.48</ele>
        <time>2018-05-12T11:39:54Z</time>
      </trkpt>
      <trkpt lat="44.23746" lon="7.02636">
        <ele>2412.12</ele>
        <time>2018-05-12T11:39:59Z</time>
      </trkpt>
      <trkpt lat="44.23765" lon="7.02613">
        <ele>2408.38</ele>
        <time>2018-05-12T11:40:06Z</time>
      </trkpt>
      <trkpt lat="44.23779" lon="7.02606">
        <ele>2406.69</ele>
        <time>2018-05-12T11:40:14Z</time>
      </trkpt>
      <trkpt lat="44.23797" lon="7.02618">
        <ele>2402.66</ele>
        <time>2018-05-12T11:40:20Z</time>
      </trkpt>
      <trkpt lat="44.23802" lon="7.02614">
        <ele>2399.56</ele>
        <time>2018-05-12T11:40:23Z</time>
      </trkpt>
      <trkpt lat="44.23802" lon="7.02615">
        <ele>2399.46</ele>
        <time>2018-05-12T11:40:42Z</time>
      </trkpt>
      <trkpt lat="44.23827" lon="7.02614">
        <ele>2395.24</ele>
        <time>2018-05-12T11:40:49Z</time>
      </trkpt>
      <trkpt lat="44.23836" lon="7.02612">
        <ele>2391.58</ele>
        <time>2018-05-12T11:40:51Z</time>
      </trkpt>
      <trkpt lat="44.23845" lon="7.02607">
        <ele>2387.22</ele>
        <time>2018-05-12T11:40:53Z</time>
      </trkpt>
      <trkpt lat="44.23849" lon="7.02597">
        <ele>2384.22</ele>
        <time>2018-05-12T11:40:55Z</time>
      </trkpt>
      <trkpt lat="44.2385" lon="7.02595">
        <ele>2383.31</ele>
        <time>2018-05-12T11:40:56Z</time>
      </trkpt>
      <trkpt lat="44.23851" lon="7.0259">
        <ele>2381.91</ele>
        <time>2018-05-12T11:40:59Z</time>
      </trkpt>
      <trkpt lat="44.23852" lon="7.02582">
        <ele>2381.63</ele>
        <time>2018-05-12T11:41:12Z</time>
      </trkpt>
      <trkpt lat="44.23851" lon="7.02575">
        <ele>2382.13</ele>
        <time>2018-05-12T11:41:27Z</time>
      </trkpt>
      <trkpt lat="44.2385" lon="7.02569">
        <ele>2382.39</ele>
        <time>2018-05-12T11:41:37Z</time>
      </trkpt>
      <trkpt lat="44.23852" lon="7.02559">
        <ele>2382.53</ele>
        <time>2018-05-12T11:41:53Z</time>
      </trkpt>
      <trkpt lat="44.23853" lon="7.0255">
        <ele>2382.67</ele>
        <time>2018-05-12T11:42:09Z</time>
      </trkpt>
      <trkpt lat="44.23851" lon="7.02537">
        <ele>2382.29</ele>
        <time>2018-05-12T11:42:25Z</time>
      </trkpt>
      <trkpt lat="44.2385" lon="7.02519">
        <ele>2380.91</ele>
        <time>2018-05-12T11:42:55Z</time>
      </trkpt>
      <trkpt lat="44.23857" lon="7.02494">
        <ele>2376.98</ele>
        <time>2018-05-12T11:42:59Z</time>
      </trkpt>
      <trkpt lat="44.23869" lon="7.02492">
        <ele>2373.34</ele>
        <time>2018-05-12T11:43:01Z</time>
      </trkpt>
      <trkpt lat="44.23876" lon="7.02491">
        <ele>2370.81</ele>
        <time>2018-05-12T11:43:02Z</time>
      </trkpt>
      <trkpt lat="44.23902" lon="7.02487">
        <ele>2360.8</ele>
        <time>2018-05-12T11:43:05Z</time>
      </trkpt>
      <trkpt lat="44.23912" lon="7.02486">
        <ele>2357.46</ele>
        <time>2018-05-12T11:43:06Z</time>
      </trkpt>
      <trkpt lat="44.23923" lon="7.02483">
        <ele>2354.3</ele>
        <time>2018-05-12T11:43:07Z</time>
      </trkpt>
      <trkpt lat="44.23943" lon="7.02483">
        <ele>2348.71</ele>
        <time>2018-05-12T11:43:09Z</time>
      </trkpt>
      <trkpt lat="44.23952" lon="7.02486">
        <ele>2346.88</ele>
        <time>2018-05-12T11:43:10Z</time>
      </trkpt>
      <trkpt lat="44.23975" lon="7.02497">
        <ele>2342.83</ele>
        <time>2018-05-12T11:43:15Z</time>
      </trkpt>
      <trkpt lat="44.23992" lon="7.02506">
        <ele>2341.36</ele>
        <time>2018-05-12T11:43:27Z</time>
      </trkpt>
      <trkpt lat="44.24007" lon="7.02511">
        <ele>2339.48</ele>
        <time>2018-05-12T11:43:42Z</time>
      </trkpt>
      <trkpt lat="44.24025" lon="7.02508">
        <ele>2337.27</ele>
        <time>2018-05-12T11:43:53Z</time>
      </trkpt>
      <trkpt lat="44.24031" lon="7.02518">
        <ele>2336.25</ele>
        <time>2018-05-12T11:43:56Z</time>
      </trkpt>
      <trkpt lat="44.24044" lon="7.02538">
        <ele>2331.58</ele>
        <time>2018-05-12T11:44:00Z</time>
      </trkpt>
      <trkpt lat="44.24055" lon="7.02553">
        <ele>2328.44</ele>
        <time>2018-05-12T11:44:03Z</time>
      </trkpt>
      <trkpt lat="44.24057" lon="7.02558">
        <ele>2327.55</ele>
        <time>2018-05-12T11:44:04Z</time>
      </trkpt>
      <trkpt lat="44.24068" lon="7.02572">
        <ele>2324.43</ele>
        <time>2018-05-12T11:44:09Z</time>
      </trkpt>
      <trkpt lat="44.24071" lon="7.02572">
        <ele>2323.57</ele>
        <time>2018-05-12T11:44:13Z</time>
      </trkpt>
      <trkpt lat="44.24077" lon="7.02572">
        <ele>2322.69</ele>
        <time>2018-05-12T11:44:22Z</time>
      </trkpt>
      <trkpt lat="44.24081" lon="7.02574">
        <ele>2322.19</ele>
        <time>2018-05-12T11:44:43Z</time>
      </trkpt>
      <trkpt lat="44.24084" lon="7.02576">
        <ele>2322.15</ele>
        <time>2018-05-12T11:45:11Z</time>
      </trkpt>
      <trkpt lat="44.24089" lon="7.02552">
        <ele>2318.59</ele>
        <time>2018-05-12T11:45:18Z</time>
      </trkpt>
      <trkpt lat="44.24089" lon="7.02545">
        <ele>2317.74</ele>
        <time>2018-05-12T11:45:20Z</time>
      </trkpt>
      <trkpt lat="44.24089" lon="7.02541">
        <ele>2315.89</ele>
        <time>2018-05-12T11:45:23Z</time>
      </trkpt>
      <trkpt lat="44.24086" lon="7.02539">
        <ele>2315.89</ele>
        <time>2018-05-12T11:45:56Z</time>
      </trkpt>
      <trkpt lat="44.24087" lon="7.02536">
        <ele>2316.06</ele>
        <time>2018-05-12T11:46:49Z</time>
      </trkpt>
      <trkpt lat="44.24088" lon="7.02525">
        <ele>2315.16</ele>
        <time>2018-05-12T11:46:52Z</time>
      </trkpt>
      <trkpt lat="44.24097" lon="7.02513">
        <ele>2310.44</ele>
        <time>2018-05-12T11:46:56Z</time>
      </trkpt>
      <trkpt lat="44.24101" lon="7.02503">
        <ele>2305.64</ele>
        <time>2018-05-12T11:46:58Z</time>
      </trkpt>
      <trkpt lat="44.24104" lon="7.02494">
        <ele>2302.42</ele>
        <time>2018-05-12T11:47:00Z</time>
      </trkpt>
      <trkpt lat="44.24109" lon="7.02493">
        <ele>2298.63</ele>
        <time>2018-05-12T11:47:03Z</time>
      </trkpt>
      <trkpt lat="44.2411" lon="7.02485">
        <ele>2294.89</ele>
        <time>2018-05-12T11:47:06Z</time>
      </trkpt>
      <trkpt lat="44.2411" lon="7.02484">
        <ele>2293.61</ele>
        <time>2018-05-12T11:47:27Z</time>
      </trkpt>
      <trkpt lat="44.24111" lon="7.02483">
        <ele>2293.98</ele>
        <time>2018-05-12T11:47:33Z</time>
      </trkpt>
      <trkpt lat="44.24115" lon="7.02477">
        <ele>2293.5</ele>
        <time>2018-05-12T11:47:35Z</time>
      </trkpt>
      <trkpt lat="44.24129" lon="7.02471">
        <ele>2289.11</ele>
        <time>2018-05-12T11:47:38Z</time>
      </trkpt>
      <trkpt lat="44.2414" lon="7.02462">
        <ele>2285.07</ele>
        <time>2018-05-12T11:47:40Z</time>
      </trkpt>
      <trkpt lat="44.24156" lon="7.02447">
        <ele>2279.99</ele>
        <time>2018-05-12T11:47:45Z</time>
      </trkpt>
      <trkpt lat="44.24172" lon="7.02436">
        <ele>2276.55</ele>
        <time>2018-05-12T11:47:49Z</time>
      </trkpt>
      <trkpt lat="44.24187" lon="7.02427">
        <ele>2272.98</ele>
        <time>2018-05-12T11:47:53Z</time>
      </trkpt>
      <trkpt lat="44.24208" lon="7.02417">
        <ele>2268.65</ele>
        <time>2018-05-12T11:47:58Z</time>
      </trkpt>
      <trkpt lat="44.24224" lon="7.0241">
        <ele>2264.57</ele>
        <time>2018-05-12T11:48:01Z</time>
      </trkpt>
      <trkpt lat="44.24235" lon="7.02405">
        <ele>2261.56</ele>
        <time>2018-05-12T11:48:03Z</time>
      </trkpt>
      <trkpt lat="44.24242" lon="7.02403">
        <ele>2258.16</ele>
        <time>2018-05-12T11:48:07Z</time>
      </trkpt>
      <trkpt lat="44.24243" lon="7.02405">
        <ele>2257.43</ele>
        <time>2018-05-12T11:48:25Z</time>
      </trkpt>
      <trkpt lat="44.24242" lon="7.02407">
        <ele>2257.2</ele>
        <time>2018-05-12T11:48:51Z</time>
      </trkpt>
      <trkpt lat="44.24243" lon="7.02405">
        <ele>2257.22</ele>
        <time>2018-05-12T11:49:15Z</time>
      </trkpt>
      <trkpt lat="44.24243" lon="7.02406">
        <ele>2257.24</ele>
        <time>2018-05-12T11:49:36Z</time>
      </trkpt>
      <trkpt lat="44.24243" lon="7.02407">
        <ele>2257.63</ele>
        <time>2018-05-12T11:50:07Z</time>
      </trkpt>
      <trkpt lat="44.2424" lon="7.02404">
        <ele>2257.69</ele>
        <time>2018-05-12T11:50:37Z</time>
      </trkpt>
      <trkpt lat="44.24241" lon="7.02403">
        <ele>2257.93</ele>
        <time>2018-05-12T11:51:01Z</time>
      </trkpt>
      <trkpt lat="44.24239" lon="7.02399">
        <ele>2258.06</ele>
        <time>2018-05-12T11:51:30Z</time>
      </trkpt>
      <trkpt lat="44.24241" lon="7.02402">
        <ele>2257.71</ele>
        <time>2018-05-12T11:51:56Z</time>
      </trkpt>
      <trkpt lat="44.24242" lon="7.02403">
        <ele>2257.42</ele>
        <time>2018-05-12T11:51:58Z</time>
      </trkpt>
      <trkpt lat="44.2424" lon="7.02401">
        <ele>2257.5</ele>
        <time>2018-05-12T11:52:27Z</time>
      </trkpt>
      <trkpt lat="44.24239" lon="7.02403">
        <ele>2257.26</ele>
        <time>2018-05-12T11:52:54Z</time>
      </trkpt>
      <trkpt lat="44.2424" lon="7.02404">
        <ele>2257.79</ele>
        <time>2018-05-12T11:53:26Z</time>
      </trkpt>
      <trkpt lat="44.24241" lon="7.02406">
        <ele>2257.65</ele>
        <time>2018-05-12T11:53:42Z</time>
      </trkpt>
      <trkpt lat="44.2424" lon="7.02405">
        <ele>2257.58</ele>
        <time>2018-05-12T11:54:06Z</time>
      </trkpt>
      <trkpt lat="44.24241" lon="7.02408">
        <ele>2257.93</ele>
        <time>2018-05-12T11:54:32Z</time>
      </trkpt>
      <trkpt lat="44.24245" lon="7.02416">
        <ele>2257.29</ele>
        <time>2018-05-12T11:54:36Z</time>
      </trkpt>
      <trkpt lat="44.24252" lon="7.02426">
        <ele>2254.13</ele>
        <time>2018-05-12T11:54:38Z</time>
      </trkpt>
      <trkpt lat="44.24267" lon="7.02426">
        <ele>2248.05</ele>
        <time>2018-05-12T11:54:41Z</time>
      </trkpt>
      <trkpt lat="44.24276" lon="7.02415">
        <ele>2244.74</ele>
        <time>2018-05-12T11:54:43Z</time>
      </trkpt>
      <trkpt lat="44.2429" lon="7.02402">
        <ele>2241</ele>
        <time>2018-05-12T11:54:46Z</time>
      </trkpt>
      <trkpt lat="44.24307" lon="7.02393">
        <ele>2236.67</ele>
        <time>2018-05-12T11:54:49Z</time>
      </trkpt>
      <trkpt lat="44.24317" lon="7.02389">
        <ele>2233.41</ele>
        <time>2018-05-12T11:54:51Z</time>
      </trkpt>
      <trkpt lat="44.24335" lon="7.02377">
        <ele>2229.02</ele>
        <time>2018-05-12T11:54:55Z</time>
      </trkpt>
      <trkpt lat="44.24352" lon="7.02367">
        <ele>2225.62</ele>
        <time>2018-05-12T11:55:00Z</time>
      </trkpt>
      <trkpt lat="44.24374" lon="7.02354">
        <ele>2221.82</ele>
        <time>2018-05-12T11:55:07Z</time>
      </trkpt>
      <trkpt lat="44.2439" lon="7.02338">
        <ele>2218.52</ele>
        <time>2018-05-12T11:55:13Z</time>
      </trkpt>
      <trkpt lat="44.24394" lon="7.02335">
        <ele>2217.04</ele>
        <time>2018-05-12T11:55:24Z</time>
      </trkpt>
      <trkpt lat="44.24403" lon="7.02333">
        <ele>2216.42</ele>
        <time>2018-05-12T11:55:48Z</time>
      </trkpt>
      <trkpt lat="44.24424" lon="7.02333">
        <ele>2210.52</ele>
        <time>2018-05-12T11:55:52Z</time>
      </trkpt>
      <trkpt lat="44.24447" lon="7.02321">
        <ele>2202.73</ele>
        <time>2018-05-12T11:55:56Z</time>
      </trkpt>
      <trkpt lat="44.24458" lon="7.02314">
        <ele>2198.75</ele>
        <time>2018-05-12T11:55:58Z</time>
      </trkpt>
      <trkpt lat="44.2447" lon="7.02314">
        <ele>2194.62</ele>
        <time>2018-05-12T11:56:00Z</time>
      </trkpt>
      <trkpt lat="44.24476" lon="7.02311">
        <ele>2192.41</ele>
        <time>2018-05-12T11:56:01Z</time>
      </trkpt>
      <trkpt lat="44.2449" lon="7.02299">
        <ele>2186.81</ele>
        <time>2018-05-12T11:56:04Z</time>
      </trkpt>
      <trkpt lat="44.24498" lon="7.02291">
        <ele>2183.49</ele>
        <time>2018-05-12T11:56:08Z</time>
      </trkpt>
      <trkpt lat="44.24499" lon="7.02292">
        <ele>2182.22</ele>
        <time>2018-05-12T11:56:11Z</time>
      </trkpt>
      <trkpt lat="44.24501" lon="7.02293">
        <ele>2182.22</ele>
        <time>2018-05-12T11:56:27Z</time>
      </trkpt>
      <trkpt lat="44.2452" lon="7.02298">
        <ele>2178.88</ele>
        <time>2018-05-12T11:56:33Z</time>
      </trkpt>
      <trkpt lat="44.24545" lon="7.02306">
        <ele>2168.35</ele>
        <time>2018-05-12T11:56:37Z</time>
      </trkpt>
      <trkpt lat="44.2455" lon="7.02303">
        <ele>2166.5</ele>
        <time>2018-05-12T11:56:38Z</time>
      </trkpt>
      <trkpt lat="44.2457" lon="7.02293">
        <ele>2161.4</ele>
        <time>2018-05-12T11:56:43Z</time>
      </trkpt>
      <trkpt lat="44.24577" lon="7.0229">
        <ele>2159.93</ele>
        <time>2018-05-12T11:56:45Z</time>
      </trkpt>
      <trkpt lat="44.24597" lon="7.02294">
        <ele>2155.42</ele>
        <time>2018-05-12T11:56:49Z</time>
      </trkpt>
      <trkpt lat="44.24604" lon="7.02295">
        <ele>2153.44</ele>
        <time>2018-05-12T11:56:50Z</time>
      </trkpt>
      <trkpt lat="44.24617" lon="7.02299">
        <ele>2148.7</ele>
        <time>2018-05-12T11:56:52Z</time>
      </trkpt>
      <trkpt lat="44.24633" lon="7.02301">
        <ele>2142.02</ele>
        <time>2018-05-12T11:56:55Z</time>
      </trkpt>
      <trkpt lat="44.24645" lon="7.02298">
        <ele>2138.02</ele>
        <time>2018-05-12T11:56:58Z</time>
      </trkpt>
      <trkpt lat="44.24648" lon="7.02295">
        <ele>2136.59</ele>
        <time>2018-05-12T11:56:59Z</time>
      </trkpt>
      <trkpt lat="44.24656" lon="7.02285">
        <ele>2133.68</ele>
        <time>2018-05-12T11:57:03Z</time>
      </trkpt>
      <trkpt lat="44.24658" lon="7.02279">
        <ele>2132</ele>
        <time>2018-05-12T11:57:16Z</time>
      </trkpt>
      <trkpt lat="44.2467" lon="7.02269">
        <ele>2131.08</ele>
        <time>2018-05-12T11:57:23Z</time>
      </trkpt>
      <trkpt lat="44.24683" lon="7.02266">
        <ele>2126.3</ele>
        <time>2018-05-12T11:57:26Z</time>
      </trkpt>
      <trkpt lat="44.24687" lon="7.0226">
        <ele>2124.15</ele>
        <time>2018-05-12T11:57:27Z</time>
      </trkpt>
      <trkpt lat="44.24693" lon="7.0225">
        <ele>2119.24</ele>
        <time>2018-05-12T11:57:31Z</time>
      </trkpt>
      <trkpt lat="44.24693" lon="7.0225">
        <ele>2117.58</ele>
        <time>2018-05-12T11:57:49Z</time>
      </trkpt>
      <trkpt lat="44.24695" lon="7.02244">
        <ele>2117.88</ele>
        <time>2018-05-12T11:58:11Z</time>
      </trkpt>
      <trkpt lat="44.24696" lon="7.02241">
        <ele>2117.81</ele>
        <time>2018-05-12T11:58:27Z</time>
      </trkpt>
      <trkpt lat="44.24696" lon="7.0224">
        <ele>2117.27</ele>
        <time>2018-05-12T11:58:43Z</time>
      </trkpt>
      <trkpt lat="44.24698" lon="7.02248">
        <ele>2116.53</ele>
        <time>2018-05-12T11:58:57Z</time>
      </trkpt>
      <trkpt lat="44.24699" lon="7.02248">
        <ele>2116.31</ele>
        <time>2018-05-12T11:59:19Z</time>
      </trkpt>
      <trkpt lat="44.24698" lon="7.02257">
        <ele>2115</ele>
        <time>2018-05-12T11:59:28Z</time>
      </trkpt>
      <trkpt lat="44.24697" lon="7.02258">
        <ele>2115.24</ele>
        <time>2018-05-12T11:59:51Z</time>
      </trkpt>
      <trkpt lat="44.24697" lon="7.02252">
        <ele>2115.9</ele>
        <time>2018-05-12T12:00:12Z</time>
      </trkpt>
      <trkpt lat="44.24696" lon="7.02252">
        <ele>2115.93</ele>
        <time>2018-05-12T12:00:30Z</time>
      </trkpt>
      <trkpt lat="44.24698" lon="7.0225">
        <ele>2115.55</ele>
        <time>2018-05-12T12:00:48Z</time>
      </trkpt>
      <trkpt lat="44.24697" lon="7.02251">
        <ele>2116.04</ele>
        <time>2018-05-12T12:01:09Z</time>
      </trkpt>
      <trkpt lat="44.24696" lon="7.02252">
        <ele>2115.64</ele>
        <time>2018-05-12T12:01:35Z</time>
      </trkpt>
      <trkpt lat="44.24696" lon="7.0225">
        <ele>2115.85</ele>
        <time>2018-05-12T12:02:00Z</time>
      </trkpt>
      <trkpt lat="44.24697" lon="7.02249">
        <ele>2115.29</ele>
        <time>2018-05-12T12:02:22Z</time>
      </trkpt>
      <trkpt lat="44.24699" lon="7.02251">
        <ele>2115.7</ele>
        <time>2018-05-12T12:02:50Z</time>
      </trkpt>
      <trkpt lat="44.24699" lon="7.0225">
        <ele>2115.59</ele>
        <time>2018-05-12T12:03:17Z</time>
      </trkpt>
      <trkpt lat="44.24698" lon="7.02251">
        <ele>2115.3</ele>
        <time>2018-05-12T12:03:36Z</time>
      </trkpt>
      <trkpt lat="44.247" lon="7.02251">
        <ele>2115.21</ele>
        <time>2018-05-12T12:04:04Z</time>
      </trkpt>
      <trkpt lat="44.24698" lon="7.0225">
        <ele>2115.16</ele>
        <time>2018-05-12T12:04:27Z</time>
      </trkpt>
      <trkpt lat="44.24699" lon="7.02251">
        <ele>2115.31</ele>
        <time>2018-05-12T12:04:47Z</time>
      </trkpt>
      <trkpt lat="44.24698" lon="7.02251">
        <ele>2114.82</ele>
        <time>2018-05-12T12:05:11Z</time>
      </trkpt>
      <trkpt lat="44.24698" lon="7.02251">
        <ele>2114.94</ele>
        <time>2018-05-12T12:05:37Z</time>
      </trkpt>
      <trkpt lat="44.24697" lon="7.02252">
        <ele>2115.61</ele>
        <time>2018-05-12T12:05:52Z</time>
      </trkpt>
      <trkpt lat="44.24699" lon="7.02251">
        <ele>2115.3</ele>
        <time>2018-05-12T12:06:10Z</time>
      </trkpt>
      <trkpt lat="44.24699" lon="7.02251">
        <ele>2115.59</ele>
        <time>2018-05-12T12:06:36Z</time>
      </trkpt>
      <trkpt lat="44.24699" lon="7.02253">
        <ele>2115.8</ele>
        <time>2018-05-12T12:06:59Z</time>
      </trkpt>
      <trkpt lat="44.24697" lon="7.02251">
        <ele>2115.72</ele>
        <time>2018-05-12T12:07:23Z</time>
      </trkpt>
      <trkpt lat="44.24693" lon="7.02259">
        <ele>2117.18</ele>
        <time>2018-05-12T12:07:43Z</time>
      </trkpt>
      <trkpt lat="44.24688" lon="7.02265">
        <ele>2118.96</ele>
        <time>2018-05-12T12:07:57Z</time>
      </trkpt>
      <trkpt lat="44.24683" lon="7.02274">
        <ele>2120.31</ele>
        <time>2018-05-12T12:08:15Z</time>
      </trkpt>
      <trkpt lat="44.24681" lon="7.02276">
        <ele>2120.38</ele>
        <time>2018-05-12T12:08:42Z</time>
      </trkpt>
      <trkpt lat="44.24678" lon="7.02274">
        <ele>2121.03</ele>
        <time>2018-05-12T12:09:11Z</time>
      </trkpt>
      <trkpt lat="44.24676" lon="7.02278">
        <ele>2120.91</ele>
        <time>2018-05-12T12:09:40Z</time>
      </trkpt>
      <trkpt lat="44.24673" lon="7.02279">
        <ele>2120.4</ele>
        <time>2018-05-12T12:10:07Z</time>
      </trkpt>
      <trkpt lat="44.24677" lon="7.02277">
        <ele>2120.42</ele>
        <time>2018-05-12T12:10:35Z</time>
      </trkpt>
      <trkpt lat="44.24677" lon="7.02276">
        <ele>2120.34</ele>
        <time>2018-05-12T12:11:05Z</time>
      </trkpt>
      <trkpt lat="44.24677" lon="7.0228">
        <ele>2120.46</ele>
        <time>2018-05-12T12:11:27Z</time>
      </trkpt>
      <trkpt lat="44.24675" lon="7.02278">
        <ele>2119.63</ele>
        <time>2018-05-12T12:11:55Z</time>
      </trkpt>
      <trkpt lat="44.24673" lon="7.02281">
        <ele>2120.89</ele>
        <time>2018-05-12T12:12:21Z</time>
      </trkpt>
      <trkpt lat="44.24676" lon="7.02278">
        <ele>2120.18</ele>
        <time>2018-05-12T12:12:49Z</time>
      </trkpt>
      <trkpt lat="44.24678" lon="7.02279">
        <ele>2119.75</ele>
        <time>2018-05-12T12:13:19Z</time>
      </trkpt>
      <trkpt lat="44.24678" lon="7.02277">
        <ele>2119.81</ele>
        <time>2018-05-12T12:13:47Z</time>
      </trkpt>
      <trkpt lat="44.24676" lon="7.02278">
        <ele>2119.96</ele>
        <time>2018-05-12T12:14:10Z</time>
      </trkpt>
      <trkpt lat="44.24674" lon="7.02278">
        <ele>2120.36</ele>
        <time>2018-05-12T12:14:33Z</time>
      </trkpt>
      <trkpt lat="44.24674" lon="7.0228">
        <ele>2120.19</ele>
        <time>2018-05-12T12:15:03Z</time>
      </trkpt>
      <trkpt lat="44.24673" lon="7.02281">
        <ele>2120.14</ele>
        <time>2018-05-12T12:15:29Z</time>
      </trkpt>
      <trkpt lat="44.24674" lon="7.02279">
        <ele>2120.41</ele>
        <time>2018-05-12T12:15:52Z</time>
      </trkpt>
      <trkpt lat="44.24673" lon="7.02282">
        <ele>2120.79</ele>
        <time>2018-05-12T12:16:21Z</time>
      </trkpt>
      <trkpt lat="44.24678" lon="7.02282">
        <ele>2120.88</ele>
        <time>2018-05-12T12:16:53Z</time>
      </trkpt>
      <trkpt lat="44.24683" lon="7.0228">
        <ele>2121.03</ele>
        <time>2018-05-12T12:17:23Z</time>
      </trkpt>
      <trkpt lat="44.24689" lon="7.02279">
        <ele>2120.13</ele>
        <time>2018-05-12T12:17:50Z</time>
      </trkpt>
      <trkpt lat="44.24674" lon="7.02279">
        <ele>2120.83</ele>
        <time>2018-05-12T12:18:23Z</time>
      </trkpt>
      <trkpt lat="44.24677" lon="7.02277">
        <ele>2120.2</ele>
        <time>2018-05-12T12:18:48Z</time>
      </trkpt>
      <trkpt lat="44.2467" lon="7.02281">
        <ele>2121.97</ele>
        <time>2018-05-12T12:19:14Z</time>
      </trkpt>
      <trkpt lat="44.24664" lon="7.02286">
        <ele>2124.01</ele>
        <time>2018-05-12T12:19:31Z</time>
      </trkpt>
      <trkpt lat="44.24658" lon="7.0229">
        <ele>2125.44</ele>
        <time>2018-05-12T12:19:55Z</time>
      </trkpt>
      <trkpt lat="44.24652" lon="7.02296">
        <ele>2127.83</ele>
        <time>2018-05-12T12:20:14Z</time>
      </trkpt>
      <trkpt lat="44.24645" lon="7.02301">
        <ele>2130.01</ele>
        <time>2018-05-12T12:20:32Z</time>
      </trkpt>
      <trkpt lat="44.24641" lon="7.02306">
        <ele>2131.52</ele>
        <time>2018-05-12T12:20:50Z</time>
      </trkpt>
      <trkpt lat="44.24636" lon="7.02312">
        <ele>2133.31</ele>
        <time>2018-05-12T12:21:08Z</time>
      </trkpt>
      <trkpt lat="44.24633" lon="7.02315">
        <ele>2134.55</ele>
        <time>2018-05-12T12:21:29Z</time>
      </trkpt>
      <trkpt lat="44.24626" lon="7.02321">
        <ele>2136.8</ele>
        <time>2018-05-12T12:21:51Z</time>
      </trkpt>
      <trkpt lat="44.24617" lon="7.0232">
        <ele>2139.28</ele>
        <time>2018-05-12T12:22:12Z</time>
      </trkpt>
      <trkpt lat="44.2461" lon="7.02319">
        <ele>2141.61</ele>
        <time>2018-05-12T12:22:37Z</time>
      </trkpt>
      <trkpt lat="44.24605" lon="7.0232">
        <ele>2142.2</ele>
        <time>2018-05-12T12:23:08Z</time>
      </trkpt>
      <trkpt lat="44.24595" lon="7.02321">
        <ele>2144.21</ele>
        <time>2018-05-12T12:23:30Z</time>
      </trkpt>
      <trkpt lat="44.24587" lon="7.02323">
        <ele>2146.98</ele>
        <time>2018-05-12T12:23:51Z</time>
      </trkpt>
      <trkpt lat="44.24584" lon="7.0232">
        <ele>2148.52</ele>
        <time>2018-05-12T12:24:14Z</time>
      </trkpt>
      <trkpt lat="44.24582" lon="7.02321">
        <ele>2149.79</ele>
        <time>2018-05-12T12:24:41Z</time>
      </trkpt>
      <trkpt lat="44.24586" lon="7.02324">
        <ele>2149.43</ele>
        <time>2018-05-12T12:25:07Z</time>
      </trkpt>
      <trkpt lat="44.24584" lon="7.02319">
        <ele>2150.3</ele>
        <time>2018-05-12T12:25:40Z</time>
      </trkpt>
      <trkpt lat="44.24574" lon="7.02313">
        <ele>2152.61</ele>
        <time>2018-05-12T12:26:00Z</time>
      </trkpt>
      <trkpt lat="44.24569" lon="7.02314">
        <ele>2153.54</ele>
        <time>2018-05-12T12:26:23Z</time>
      </trkpt>
      <trkpt lat="44.2457" lon="7.02313">
        <ele>2153.95</ele>
        <time>2018-05-12T12:26:47Z</time>
      </trkpt>
      <trkpt lat="44.2456" lon="7.02306">
        <ele>2156.91</ele>
        <time>2018-05-12T12:27:06Z</time>
      </trkpt>
      <trkpt lat="44.24556" lon="7.02307">
        <ele>2157.75</ele>
        <time>2018-05-12T12:27:28Z</time>
      </trkpt>
      <trkpt lat="44.24559" lon="7.02307">
        <ele>2157.66</ele>
        <time>2018-05-12T12:27:58Z</time>
      </trkpt>
      <trkpt lat="44.24558" lon="7.02307">
        <ele>2157.61</ele>
        <time>2018-05-12T12:28:28Z</time>
      </trkpt>
      <trkpt lat="44.24555" lon="7.02299">
        <ele>2159.86</ele>
        <time>2018-05-12T12:28:46Z</time>
      </trkpt>
      <trkpt lat="44.24557" lon="7.02292">
        <ele>2161.16</ele>
        <time>2018-05-12T12:29:07Z</time>
      </trkpt>
      <trkpt lat="44.24559" lon="7.02285">
        <ele>2162.54</ele>
        <time>2018-05-12T12:29:25Z</time>
      </trkpt>
      <trkpt lat="44.2456" lon="7.02281">
        <ele>2163.61</ele>
        <time>2018-05-12T12:29:46Z</time>
      </trkpt>
      <trkpt lat="44.24563" lon="7.02278">
        <ele>2164.52</ele>
        <time>2018-05-12T12:30:07Z</time>
      </trkpt>
      <trkpt lat="44.24562" lon="7.02278">
        <ele>2164.58</ele>
        <time>2018-05-12T12:30:23Z</time>
      </trkpt>
      <trkpt lat="44.24562" lon="7.02277">
        <ele>2165.61</ele>
        <time>2018-05-12T12:30:54Z</time>
      </trkpt>
      <trkpt lat="44.24563" lon="7.02277">
        <ele>2165.6</ele>
        <time>2018-05-12T12:30:56Z</time>
      </trkpt>
      <trkpt lat="44.24567" lon="7.02271">
        <ele>2166.18</ele>
        <time>2018-05-12T12:31:18Z</time>
      </trkpt>
      <trkpt lat="44.24569" lon="7.02268">
        <ele>2166.84</ele>
        <time>2018-05-12T12:31:36Z</time>
      </trkpt>
      <trkpt lat="44.24574" lon="7.02264">
        <ele>2167.37</ele>
        <time>2018-05-12T12:32:01Z</time>
      </trkpt>
      <trkpt lat="44.24581" lon="7.02261">
        <ele>2168.3</ele>
        <time>2018-05-12T12:32:23Z</time>
      </trkpt>
      <trkpt lat="44.24583" lon="7.0226">
        <ele>2169.02</ele>
        <time>2018-05-12T12:32:46Z</time>
      </trkpt>
      <trkpt lat="44.24587" lon="7.02256">
        <ele>2169.68</ele>
        <time>2018-05-12T12:33:08Z</time>
      </trkpt>
      <trkpt lat="44.24591" lon="7.02249">
        <ele>2171.25</ele>
        <time>2018-05-12T12:33:27Z</time>
      </trkpt>
      <trkpt lat="44.24595" lon="7.02238">
        <ele>2173.07</ele>
        <time>2018-05-12T12:33:46Z</time>
      </trkpt>
      <trkpt lat="44.24597" lon="7.0223">
        <ele>2174</ele>
        <time>2018-05-12T12:34:05Z</time>
      </trkpt>
      <trkpt lat="44.24593" lon="7.02224">
        <ele>2175.46</ele>
        <time>2018-05-12T12:34:24Z</time>
      </trkpt>
      <trkpt lat="44.24592" lon="7.02223">
        <ele>2174.92</ele>
        <time>2018-05-12T12:34:40Z</time>
      </trkpt>
      <trkpt lat="44.24589" lon="7.02225">
        <ele>2175.74</ele>
        <time>2018-05-12T12:35:10Z</time>
      </trkpt>
      <trkpt lat="44.24587" lon="7.02225">
        <ele>2175.12</ele>
        <time>2018-05-12T12:35:32Z</time>
      </trkpt>
      <trkpt lat="44.2459" lon="7.02225">
        <ele>2175.1</ele>
        <time>2018-05-12T12:35:55Z</time>
      </trkpt>
      <trkpt lat="44.24592" lon="7.02222">
        <ele>2175.15</ele>
        <time>2018-05-12T12:36:18Z</time>
      </trkpt>
      <trkpt lat="44.24591" lon="7.02223">
        <ele>2175.21</ele>
        <time>2018-05-12T12:36:45Z</time>
      </trkpt>
      <trkpt lat="44.24591" lon="7.02223">
        <ele>2174.6</ele>
        <time>2018-05-12T12:37:03Z</time>
      </trkpt>
      <trkpt lat="44.24593" lon="7.02222">
        <ele>2175.01</ele>
        <time>2018-05-12T12:37:28Z</time>
      </trkpt>
      <trkpt lat="44.24593" lon="7.02222">
        <ele>2174.79</ele>
        <time>2018-05-12T12:37:51Z</time>
      </trkpt>
      <trkpt lat="44.24592" lon="7.02223">
        <ele>2174.93</ele>
        <time>2018-05-12T12:38:17Z</time>
      </trkpt>
      <trkpt lat="44.24589" lon="7.02223">
        <ele>2174.8</ele>
        <time>2018-05-12T12:38:44Z</time>
      </trkpt>
      <trkpt lat="44.24592" lon="7.02223">
        <ele>2174.42</ele>
        <time>2018-05-12T12:39:04Z</time>
      </trkpt>
      <trkpt lat="44.24591" lon="7.02223">
        <ele>2174.91</ele>
        <time>2018-05-12T12:39:27Z</time>
      </trkpt>
      <trkpt lat="44.24593" lon="7.02221">
        <ele>2175.11</ele>
        <time>2018-05-12T12:39:52Z</time>
      </trkpt>
      <trkpt lat="44.24593" lon="7.02222">
        <ele>2175.13</ele>
        <time>2018-05-12T12:40:16Z</time>
      </trkpt>
      <trkpt lat="44.24591" lon="7.02221">
        <ele>2174.62</ele>
        <time>2018-05-12T12:40:32Z</time>
      </trkpt>
      <trkpt lat="44.24591" lon="7.02222">
        <ele>2175.05</ele>
        <time>2018-05-12T12:40:40Z</time>
      </trkpt>
      <trkpt lat="44.24591" lon="7.02222">
        <ele>2174.98</ele>
        <time>2018-05-12T12:41:08Z</time>
      </trkpt>
      <trkpt lat="44.24589" lon="7.02224">
        <ele>2175.29</ele>
        <time>2018-05-12T12:41:34Z</time>
      </trkpt>
      <trkpt lat="44.24587" lon="7.02228">
        <ele>2174.73</ele>
        <time>2018-05-12T12:42:01Z</time>
      </trkpt>
      <trkpt lat="44.24588" lon="7.02226">
        <ele>2174.18</ele>
        <time>2018-05-12T12:42:10Z</time>
      </trkpt>
      <trkpt lat="44.24589" lon="7.02225">
        <ele>2174.8</ele>
        <time>2018-05-12T12:42:34Z</time>
      </trkpt>
      <trkpt lat="44.24589" lon="7.02224">
        <ele>2174.7</ele>
        <time>2018-05-12T12:42:59Z</time>
      </trkpt>
      <trkpt lat="44.24594" lon="7.02219">
        <ele>2175.1</ele>
        <time>2018-05-12T12:43:25Z</time>
      </trkpt>
      <trkpt lat="44.24591" lon="7.02222">
        <ele>2174.99</ele>
        <time>2018-05-12T12:43:56Z</time>
      </trkpt>
      <trkpt lat="44.24593" lon="7.02219">
        <ele>2174.56</ele>
        <time>2018-05-12T12:44:25Z</time>
      </trkpt>
      <trkpt lat="44.24588" lon="7.02208">
        <ele>2175.38</ele>
        <time>2018-05-12T12:45:08Z</time>
      </trkpt>
      <trkpt lat="44.24573" lon="7.02201">
        <ele>2176.36</ele>
        <time>2018-05-12T12:45:37Z</time>
      </trkpt>
      <trkpt lat="44.24567" lon="7.02193">
        <ele>2176.79</ele>
        <time>2018-05-12T12:45:58Z</time>
      </trkpt>
      <trkpt lat="44.24561" lon="7.0219">
        <ele>2177.15</ele>
        <time>2018-05-12T12:46:21Z</time>
      </trkpt>
      <trkpt lat="44.24561" lon="7.02188">
        <ele>2177.34</ele>
        <time>2018-05-12T12:46:43Z</time>
      </trkpt>
      <trkpt lat="44.24562" lon="7.02185">
        <ele>2177.1</ele>
        <time>2018-05-12T12:47:13Z</time>
      </trkpt>
      <trkpt lat="44.24558" lon="7.02184">
        <ele>2177.59</ele>
        <time>2018-05-12T12:47:36Z</time>
      </trkpt>
      <trkpt lat="44.24553" lon="7.02184">
        <ele>2177.7</ele>
        <time>2018-05-12T12:47:55Z</time>
      </trkpt>
      <trkpt lat="44.24536" lon="7.02161">
        <ele>2174.57</ele>
        <time>2018-05-12T12:48:04Z</time>
      </trkpt>
      <trkpt lat="44.24536" lon="7.02159">
        <ele>2173.46</ele>
        <time>2018-05-12T12:48:17Z</time>
      </trkpt>
      <trkpt lat="44.24536" lon="7.0216">
        <ele>2173.65</ele>
        <time>2018-05-12T12:48:47Z</time>
      </trkpt>
      <trkpt lat="44.24536" lon="7.02159">
        <ele>2173.74</ele>
        <time>2018-05-12T12:49:15Z</time>
      </trkpt>
      <trkpt lat="44.2454" lon="7.02159">
        <ele>2173.92</ele>
        <time>2018-05-12T12:49:43Z</time>
      </trkpt>
      <trkpt lat="44.24545" lon="7.02155">
        <ele>2173.69</ele>
        <time>2018-05-12T12:50:09Z</time>
      </trkpt>
      <trkpt lat="44.24541" lon="7.02152">
        <ele>2174.06</ele>
        <time>2018-05-12T12:50:30Z</time>
      </trkpt>
      <trkpt lat="44.24533" lon="7.02128">
        <ele>2170.97</ele>
        <time>2018-05-12T12:50:35Z</time>
      </trkpt>
      <trkpt lat="44.24528" lon="7.02104">
        <ele>2167.62</ele>
        <time>2018-05-12T12:50:40Z</time>
      </trkpt>
      <trkpt lat="44.2453" lon="7.02077">
        <ele>2163.58</ele>
        <time>2018-05-12T12:50:44Z</time>
      </trkpt>
      <trkpt lat="44.24532" lon="7.02051">
        <ele>2159.25</ele>
        <time>2018-05-12T12:50:50Z</time>
      </trkpt>
      <trkpt lat="44.24541" lon="7.02011">
        <ele>2155.76</ele>
        <time>2018-05-12T12:50:59Z</time>
      </trkpt>
      <trkpt lat="44.24546" lon="7.01988">
        <ele>2152.14</ele>
        <time>2018-05-12T12:51:03Z</time>
      </trkpt>
      <trkpt lat="44.24548" lon="7.01982">
        <ele>2151.03</ele>
        <time>2018-05-12T12:51:04Z</time>
      </trkpt>
      <trkpt lat="44.24553" lon="7.01957">
        <ele>2146.31</ele>
        <time>2018-05-12T12:51:09Z</time>
      </trkpt>
      <trkpt lat="44.24563" lon="7.0194">
        <ele>2143.01</ele>
        <time>2018-05-12T12:51:15Z</time>
      </trkpt>
      <trkpt lat="44.24565" lon="7.01939">
        <ele>2142.73</ele>
        <time>2018-05-12T12:51:16Z</time>
      </trkpt>
      <trkpt lat="44.24581" lon="7.01944">
        <ele>2138.83</ele>
        <time>2018-05-12T12:51:21Z</time>
      </trkpt>
      <trkpt lat="44.24588" lon="7.01946">
        <ele>2136.92</ele>
        <time>2018-05-12T12:51:23Z</time>
      </trkpt>
      <trkpt lat="44.24604" lon="7.01939">
        <ele>2132.59</ele>
        <time>2018-05-12T12:51:28Z</time>
      </trkpt>
      <trkpt lat="44.24617" lon="7.01937">
        <ele>2129.19</ele>
        <time>2018-05-12T12:51:31Z</time>
      </trkpt>
      <trkpt lat="44.24633" lon="7.01937">
        <ele>2125.01</ele>
        <time>2018-05-12T12:51:34Z</time>
      </trkpt>
      <trkpt lat="44.24651" lon="7.01939">
        <ele>2120.64</ele>
        <time>2018-05-12T12:51:37Z</time>
      </trkpt>
      <trkpt lat="44.24664" lon="7.01938">
        <ele>2117.19</ele>
        <time>2018-05-12T12:51:40Z</time>
      </trkpt>
      <trkpt lat="44.24678" lon="7.01935">
        <ele>2113.6</ele>
        <time>2018-05-12T12:51:44Z</time>
      </trkpt>
      <trkpt lat="44.24688" lon="7.0193">
        <ele>2111.62</ele>
        <time>2018-05-12T12:51:47Z</time>
      </trkpt>
      <trkpt lat="44.24704" lon="7.01925">
        <ele>2108.47</ele>
        <time>2018-05-12T12:51:57Z</time>
      </trkpt>
      <trkpt lat="44.24712" lon="7.01923">
        <ele>2108.31</ele>
        <time>2018-05-12T12:52:10Z</time>
      </trkpt>
      <trkpt lat="44.2473" lon="7.01937">
        <ele>2104.58</ele>
        <time>2018-05-12T12:52:16Z</time>
      </trkpt>
      <trkpt lat="44.24737" lon="7.01934">
        <ele>2100.86</ele>
        <time>2018-05-12T12:52:19Z</time>
      </trkpt>
      <trkpt lat="44.24735" lon="7.01935">
        <ele>2099.55</ele>
        <time>2018-05-12T12:52:33Z</time>
      </trkpt>
      <trkpt lat="44.24736" lon="7.01934">
        <ele>2099.68</ele>
        <time>2018-05-12T12:52:38Z</time>
      </trkpt>
      <trkpt lat="44.24754" lon="7.0194">
        <ele>2096.07</ele>
        <time>2018-05-12T12:52:43Z</time>
      </trkpt>
      <trkpt lat="44.24754" lon="7.01934">
        <ele>2092.89</ele>
        <time>2018-05-12T12:52:47Z</time>
      </trkpt>
      <trkpt lat="44.24755" lon="7.01923">
        <ele>2092.63</ele>
        <time>2018-05-12T12:52:57Z</time>
      </trkpt>
      <trkpt lat="44.2476" lon="7.01915">
        <ele>2091.31</ele>
        <time>2018-05-12T12:53:17Z</time>
      </trkpt>
      <trkpt lat="44.24756" lon="7.01913">
        <ele>2091.34</ele>
        <time>2018-05-12T12:53:49Z</time>
      </trkpt>
      <trkpt lat="44.24761" lon="7.01906">
        <ele>2090.93</ele>
        <time>2018-05-12T12:54:15Z</time>
      </trkpt>
      <trkpt lat="44.2478" lon="7.01912">
        <ele>2086.77</ele>
        <time>2018-05-12T12:54:19Z</time>
      </trkpt>
      <trkpt lat="44.24796" lon="7.01922">
        <ele>2080.16</ele>
        <time>2018-05-12T12:54:22Z</time>
      </trkpt>
      <trkpt lat="44.24807" lon="7.01929">
        <ele>2074.8</ele>
        <time>2018-05-12T12:54:24Z</time>
      </trkpt>
      <trkpt lat="44.24813" lon="7.01931">
        <ele>2070.93</ele>
        <time>2018-05-12T12:54:25Z</time>
      </trkpt>
      <trkpt lat="44.2482" lon="7.01932">
        <ele>2067.75</ele>
        <time>2018-05-12T12:54:26Z</time>
      </trkpt>
      <trkpt lat="44.24832" lon="7.01941">
        <ele>2061.62</ele>
        <time>2018-05-12T12:54:28Z</time>
      </trkpt>
      <trkpt lat="44.24839" lon="7.01946">
        <ele>2058.5</ele>
        <time>2018-05-12T12:54:29Z</time>
      </trkpt>
      <trkpt lat="44.24845" lon="7.01952">
        <ele>2055.15</ele>
        <time>2018-05-12T12:54:30Z</time>
      </trkpt>
      <trkpt lat="44.24847" lon="7.0196">
        <ele>2051.43</ele>
        <time>2018-05-12T12:54:31Z</time>
      </trkpt>
      <trkpt lat="44.24847" lon="7.01976">
        <ele>2045.91</ele>
        <time>2018-05-12T12:54:33Z</time>
      </trkpt>
      <trkpt lat="44.24846" lon="7.01985">
        <ele>2042.3</ele>
        <time>2018-05-12T12:54:35Z</time>
      </trkpt>
      <trkpt lat="44.2484" lon="7.01987">
        <ele>2039.72</ele>
        <time>2018-05-12T12:54:39Z</time>
      </trkpt>
      <trkpt lat="44.2484" lon="7.01986">
        <ele>2039.48</ele>
        <time>2018-05-12T12:54:40Z</time>
      </trkpt>
      <trkpt lat="44.24838" lon="7.01987">
        <ele>2038.96</ele>
        <time>2018-05-12T12:55:08Z</time>
      </trkpt>
      <trkpt lat="44.24835" lon="7.01991">
        <ele>2038.79</ele>
        <time>2018-05-12T12:55:26Z</time>
      </trkpt>
      <trkpt lat="44.24848" lon="7.02017">
        <ele>2033.2</ele>
        <time>2018-05-12T12:55:30Z</time>
      </trkpt>
      <trkpt lat="44.24842" lon="7.02033">
        <ele>2028.94</ele>
        <time>2018-05-12T12:55:32Z</time>
      </trkpt>
      <trkpt lat="44.24838" lon="7.02049">
        <ele>2025.12</ele>
        <time>2018-05-12T12:55:34Z</time>
      </trkpt>
      <trkpt lat="44.24828" lon="7.02085">
        <ele>2017.29</ele>
        <time>2018-05-12T12:55:39Z</time>
      </trkpt>
      <trkpt lat="44.24824" lon="7.02099">
        <ele>2013.95</ele>
        <time>2018-05-12T12:55:42Z</time>
      </trkpt>
      <trkpt lat="44.24822" lon="7.02103">
        <ele>2013.21</ele>
        <time>2018-05-12T12:55:43Z</time>
      </trkpt>
      <trkpt lat="44.24827" lon="7.02128">
        <ele>2009.6</ele>
        <time>2018-05-12T12:55:48Z</time>
      </trkpt>
      <trkpt lat="44.24832" lon="7.02133">
        <ele>2008.34</ele>
        <time>2018-05-12T12:55:49Z</time>
      </trkpt>
      <trkpt lat="44.24852" lon="7.02153">
        <ele>2001.27</ele>
        <time>2018-05-12T12:55:53Z</time>
      </trkpt>
      <trkpt lat="44.24862" lon="7.02167">
        <ele>1997.7</ele>
        <time>2018-05-12T12:55:55Z</time>
      </trkpt>
      <trkpt lat="44.24873" lon="7.02185">
        <ele>1993.95</ele>
        <time>2018-05-12T12:55:58Z</time>
      </trkpt>
      <trkpt lat="44.24882" lon="7.02197">
        <ele>1990.62</ele>
        <time>2018-05-12T12:56:01Z</time>
      </trkpt>
      <trkpt lat="44.24893" lon="7.02219">
        <ele>1987.18</ele>
        <time>2018-05-12T12:56:08Z</time>
      </trkpt>
      <trkpt lat="44.24899" lon="7.02241">
        <ele>1983.88</ele>
        <time>2018-05-12T12:56:15Z</time>
      </trkpt>
      <trkpt lat="44.24901" lon="7.02262">
        <ele>1980.89</ele>
        <time>2018-05-12T12:56:26Z</time>
      </trkpt>
      <trkpt lat="44.24896" lon="7.02262">
        <ele>1981.36</ele>
        <time>2018-05-12T12:56:50Z</time>
      </trkpt>
      <trkpt lat="44.24896" lon="7.0226">
        <ele>1981.53</ele>
        <time>2018-05-12T12:57:19Z</time>
      </trkpt>
      <trkpt lat="44.24904" lon="7.02294">
        <ele>1977.63</ele>
        <time>2018-05-12T12:57:31Z</time>
      </trkpt>
      <trkpt lat="44.24906" lon="7.02298">
        <ele>1976.72</ele>
        <time>2018-05-12T12:57:32Z</time>
      </trkpt>
      <trkpt lat="44.24912" lon="7.02308">
        <ele>1975.23</ele>
        <time>2018-05-12T12:57:34Z</time>
      </trkpt>
      <trkpt lat="44.24926" lon="7.02327">
        <ele>1970.89</ele>
        <time>2018-05-12T12:57:38Z</time>
      </trkpt>
      <trkpt lat="44.2494" lon="7.02341">
        <ele>1967.54</ele>
        <time>2018-05-12T12:57:43Z</time>
      </trkpt>
      <trkpt lat="44.24955" lon="7.02351">
        <ele>1964.42</ele>
        <time>2018-05-12T12:57:48Z</time>
      </trkpt>
      <trkpt lat="44.24977" lon="7.02362">
        <ele>1960.76</ele>
        <time>2018-05-12T12:57:53Z</time>
      </trkpt>
      <trkpt lat="44.24994" lon="7.02374">
        <ele>1957.11</ele>
        <time>2018-05-12T12:57:57Z</time>
      </trkpt>
      <trkpt lat="44.25012" lon="7.02389">
        <ele>1953.92</ele>
        <time>2018-05-12T12:58:05Z</time>
      </trkpt>
      <trkpt lat="44.25026" lon="7.02404">
        <ele>1950.91</ele>
        <time>2018-05-12T12:58:10Z</time>
      </trkpt>
      <trkpt lat="44.25041" lon="7.02422">
        <ele>1947.39</ele>
        <time>2018-05-12T12:58:16Z</time>
      </trkpt>
      <trkpt lat="44.25045" lon="7.02427">
        <ele>1946.49</ele>
        <time>2018-05-12T12:58:18Z</time>
      </trkpt>
      <trkpt lat="44.25059" lon="7.02448">
        <ele>1943.36</ele>
        <time>2018-05-12T12:58:26Z</time>
      </trkpt>
      <trkpt lat="44.25059" lon="7.02449">
        <ele>1942.07</ele>
        <time>2018-05-12T12:58:37Z</time>
      </trkpt>
      <trkpt lat="44.25059" lon="7.02451">
        <ele>1942.13</ele>
        <time>2018-05-12T12:58:57Z</time>
      </trkpt>
      <trkpt lat="44.25068" lon="7.02462">
        <ele>1941.07</ele>
        <time>2018-05-12T12:59:02Z</time>
      </trkpt>
      <trkpt lat="44.25075" lon="7.02471">
        <ele>1939.44</ele>
        <time>2018-05-12T12:59:04Z</time>
      </trkpt>
      <trkpt lat="44.25086" lon="7.02473">
        <ele>1937.07</ele>
        <time>2018-05-12T12:59:06Z</time>
      </trkpt>
      <trkpt lat="44.25108" lon="7.02473">
        <ele>1929.26</ele>
        <time>2018-05-12T12:59:09Z</time>
      </trkpt>
      <trkpt lat="44.25117" lon="7.02473">
        <ele>1925.46</ele>
        <time>2018-05-12T12:59:10Z</time>
      </trkpt>
      <trkpt lat="44.25134" lon="7.02469">
        <ele>1918.46</ele>
        <time>2018-05-12T12:59:12Z</time>
      </trkpt>
      <trkpt lat="44.25142" lon="7.02465">
        <ele>1913.13</ele>
        <time>2018-05-12T12:59:13Z</time>
      </trkpt>
      <trkpt lat="44.25149" lon="7.0246">
        <ele>1909.49</ele>
        <time>2018-05-12T12:59:14Z</time>
      </trkpt>
      <trkpt lat="44.25166" lon="7.02461">
        <ele>1902.82</ele>
        <time>2018-05-12T12:59:17Z</time>
      </trkpt>
      <trkpt lat="44.2517" lon="7.02462">
        <ele>1901.66</ele>
        <time>2018-05-12T12:59:18Z</time>
      </trkpt>
      <trkpt lat="44.25175" lon="7.02464">
        <ele>1900.15</ele>
        <time>2018-05-12T12:59:21Z</time>
      </trkpt>
      <trkpt lat="44.25176" lon="7.02464">
        <ele>1899.82</ele>
        <time>2018-05-12T12:59:23Z</time>
      </trkpt>
      <trkpt lat="44.25174" lon="7.02463">
        <ele>1899.35</ele>
        <time>2018-05-12T12:59:58Z</time>
      </trkpt>
      <trkpt lat="44.25175" lon="7.02464">
        <ele>1899.29</ele>
        <time>2018-05-12T13:00:30Z</time>
      </trkpt>
      <trkpt lat="44.25176" lon="7.02463">
        <ele>1899.78</ele>
        <time>2018-05-12T13:01:00Z</time>
      </trkpt>
      <trkpt lat="44.25177" lon="7.02469">
        <ele>1898.47</ele>
        <time>2018-05-12T13:02:09Z</time>
      </trkpt>
      <trkpt lat="44.25201" lon="7.02487">
        <ele>1894.66</ele>
        <time>2018-05-12T13:02:17Z</time>
      </trkpt>
      <trkpt lat="44.25218" lon="7.025">
        <ele>1891.6</ele>
        <time>2018-05-12T13:02:24Z</time>
      </trkpt>
      <trkpt lat="44.25234" lon="7.02513">
        <ele>1888.48</ele>
        <time>2018-05-12T13:02:32Z</time>
      </trkpt>
      <trkpt lat="44.25237" lon="7.02516">
        <ele>1887.67</ele>
        <time>2018-05-12T13:02:34Z</time>
      </trkpt>
      <trkpt lat="44.25238" lon="7.0252">
        <ele>1886.28</ele>
        <time>2018-05-12T13:02:49Z</time>
      </trkpt>
      <trkpt lat="44.25238" lon="7.0252">
        <ele>1886.12</ele>
        <time>2018-05-12T13:03:11Z</time>
      </trkpt>
      <trkpt lat="44.25238" lon="7.02519">
        <ele>1886.15</ele>
        <time>2018-05-12T13:03:28Z</time>
      </trkpt>
      <trkpt lat="44.25237" lon="7.02519">
        <ele>1886.36</ele>
        <time>2018-05-12T13:03:53Z</time>
      </trkpt>
      <trkpt lat="44.25238" lon="7.02518">
        <ele>1885.58</ele>
        <time>2018-05-12T13:04:14Z</time>
      </trkpt>
      <trkpt lat="44.25241" lon="7.02518">
        <ele>1885.6</ele>
        <time>2018-05-12T13:04:40Z</time>
      </trkpt>
      <trkpt lat="44.25239" lon="7.02518">
        <ele>1885.41</ele>
        <time>2018-05-12T13:04:48Z</time>
      </trkpt>
      <trkpt lat="44.25237" lon="7.02516">
        <ele>1885.71</ele>
        <time>2018-05-12T13:05:13Z</time>
      </trkpt>
      <trkpt lat="44.25237" lon="7.02516">
        <ele>1885.87</ele>
        <time>2018-05-12T13:05:36Z</time>
      </trkpt>
      <trkpt lat="44.25237" lon="7.02519">
        <ele>1885.48</ele>
        <time>2018-05-12T13:06:04Z</time>
      </trkpt>
      <trkpt lat="44.25237" lon="7.02519">
        <ele>1885.73</ele>
        <time>2018-05-12T13:06:14Z</time>
      </trkpt>
      <trkpt lat="44.25235" lon="7.02518">
        <ele>1885.78</ele>
        <time>2018-05-12T13:06:38Z</time>
      </trkpt>
      <trkpt lat="44.25235" lon="7.0252">
        <ele>1886.45</ele>
        <time>2018-05-12T13:07:05Z</time>
      </trkpt>
      <trkpt lat="44.25235" lon="7.02518">
        <ele>1886.1</ele>
        <time>2018-05-12T13:07:27Z</time>
      </trkpt>
      <trkpt lat="44.25237" lon="7.0252">
        <ele>1885.99</ele>
        <time>2018-05-12T13:07:49Z</time>
      </trkpt>
      <trkpt lat="44.25238" lon="7.02523">
        <ele>1885.56</ele>
        <time>2018-05-12T13:08:07Z</time>
      </trkpt>
      <trkpt lat="44.25243" lon="7.02534">
        <ele>1884.57</ele>
        <time>2018-05-12T13:08:13Z</time>
      </trkpt>
      <trkpt lat="44.25254" lon="7.02549">
        <ele>1882.06</ele>
        <time>2018-05-12T13:08:25Z</time>
      </trkpt>
      <trkpt lat="44.25261" lon="7.02556">
        <ele>1879.92</ele>
        <time>2018-05-12T13:08:39Z</time>
      </trkpt>
      <trkpt lat="44.25262" lon="7.02557">
        <ele>1879.47</ele>
        <time>2018-05-12T13:08:42Z</time>
      </trkpt>
      <trkpt lat="44.25271" lon="7.02577">
        <ele>1876.93</ele>
        <time>2018-05-12T13:09:01Z</time>
      </trkpt>
      <trkpt lat="44.25277" lon="7.02596">
        <ele>1874.38</ele>
        <time>2018-05-12T13:09:19Z</time>
      </trkpt>
      <trkpt lat="44.25282" lon="7.02619">
        <ele>1871.55</ele>
        <time>2018-05-12T13:09:42Z</time>
      </trkpt>
      <trkpt lat="44.25286" lon="7.02635">
        <ele>1870.36</ele>
        <time>2018-05-12T13:09:54Z</time>
      </trkpt>
      <trkpt lat="44.25287" lon="7.0266">
        <ele>1867.62</ele>
        <time>2018-05-12T13:10:15Z</time>
      </trkpt>
      <trkpt lat="44.25295" lon="7.02683">
        <ele>1865.31</ele>
        <time>2018-05-12T13:10:37Z</time>
      </trkpt>
      <trkpt lat="44.253" lon="7.02688">
        <ele>1864.16</ele>
        <time>2018-05-12T13:10:45Z</time>
      </trkpt>
      <trkpt lat="44.25311" lon="7.02711">
        <ele>1861.4</ele>
        <time>2018-05-12T13:11:05Z</time>
      </trkpt>
      <trkpt lat="44.2532" lon="7.02734">
        <ele>1858.34</ele>
        <time>2018-05-12T13:11:24Z</time>
      </trkpt>
      <trkpt lat="44.25322" lon="7.0274">
        <ele>1857.39</ele>
        <time>2018-05-12T13:11:29Z</time>
      </trkpt>
      <trkpt lat="44.25323" lon="7.02746">
        <ele>1856.55</ele>
        <time>2018-05-12T13:11:34Z</time>
      </trkpt>
      <trkpt lat="44.25325" lon="7.02751">
        <ele>1856.29</ele>
        <time>2018-05-12T13:11:37Z</time>
      </trkpt>
      <trkpt lat="44.25333" lon="7.02772">
        <ele>1853.04</ele>
        <time>2018-05-12T13:11:54Z</time>
      </trkpt>
      <trkpt lat="44.25347" lon="7.02787">
        <ele>1850.03</ele>
        <time>2018-05-12T13:12:10Z</time>
      </trkpt>
      <trkpt lat="44.25361" lon="7.02804">
        <ele>1846.81</ele>
        <time>2018-05-12T13:12:30Z</time>
      </trkpt>
      <trkpt lat="44.25352" lon="7.0281">
        <ele>1845.67</ele>
        <time>2018-05-12T13:12:41Z</time>
      </trkpt>
      <trkpt lat="44.25347" lon="7.02818">
        <ele>1844.63</ele>
        <time>2018-05-12T13:12:49Z</time>
      </trkpt>
      <trkpt lat="44.25356" lon="7.02838">
        <ele>1841.42</ele>
        <time>2018-05-12T13:13:08Z</time>
      </trkpt>
      <trkpt lat="44.25367" lon="7.02851">
        <ele>1839.17</ele>
        <time>2018-05-12T13:13:25Z</time>
      </trkpt>
      <trkpt lat="44.25368" lon="7.02869">
        <ele>1837.24</ele>
        <time>2018-05-12T13:13:47Z</time>
      </trkpt>
      <trkpt lat="44.25356" lon="7.02882">
        <ele>1834.26</ele>
        <time>2018-05-12T13:14:08Z</time>
      </trkpt>
      <trkpt lat="44.25361" lon="7.02889">
        <ele>1833.07</ele>
        <time>2018-05-12T13:14:15Z</time>
      </trkpt>
      <trkpt lat="44.25369" lon="7.02893">
        <ele>1831.25</ele>
        <time>2018-05-12T13:14:25Z</time>
      </trkpt>
      <trkpt lat="44.25371" lon="7.02898">
        <ele>1830.5</ele>
        <time>2018-05-12T13:14:30Z</time>
      </trkpt>
      <trkpt lat="44.25383" lon="7.02915">
        <ele>1827.66</ele>
        <time>2018-05-12T13:14:49Z</time>
      </trkpt>
      <trkpt lat="44.254" lon="7.02908">
        <ele>1824.59</ele>
        <time>2018-05-12T13:15:09Z</time>
      </trkpt>
      <trkpt lat="44.25408" lon="7.02907">
        <ele>1823.91</ele>
        <time>2018-05-12T13:15:17Z</time>
      </trkpt>
      <trkpt lat="44.25432" lon="7.02923">
        <ele>1821.44</ele>
        <time>2018-05-12T13:15:38Z</time>
      </trkpt>
      <trkpt lat="44.25445" lon="7.02939">
        <ele>1818.29</ele>
        <time>2018-05-12T13:15:55Z</time>
      </trkpt>
      <trkpt lat="44.25454" lon="7.02963">
        <ele>1815.16</ele>
        <time>2018-05-12T13:16:12Z</time>
      </trkpt>
      <trkpt lat="44.25468" lon="7.02975">
        <ele>1812.09</ele>
        <time>2018-05-12T13:16:32Z</time>
      </trkpt>
      <trkpt lat="44.2547" lon="7.02977">
        <ele>1811.71</ele>
        <time>2018-05-12T13:16:34Z</time>
      </trkpt>
      <trkpt lat="44.25485" lon="7.02991">
        <ele>1809</ele>
        <time>2018-05-12T13:16:49Z</time>
      </trkpt>
      <trkpt lat="44.25494" lon="7.02999">
        <ele>1806.64</ele>
        <time>2018-05-12T13:17:01Z</time>
      </trkpt>
      <trkpt lat="44.25506" lon="7.03007">
        <ele>1804.01</ele>
        <time>2018-05-12T13:17:15Z</time>
      </trkpt>
      <trkpt lat="44.2552" lon="7.03028">
        <ele>1800.89</ele>
        <time>2018-05-12T13:17:37Z</time>
      </trkpt>
      <trkpt lat="44.25534" lon="7.03045">
        <ele>1797.88</ele>
        <time>2018-05-12T13:17:54Z</time>
      </trkpt>
      <trkpt lat="44.2554" lon="7.03051">
        <ele>1796.82</ele>
        <time>2018-05-12T13:18:02Z</time>
      </trkpt>
      <trkpt lat="44.25557" lon="7.03067">
        <ele>1794.74</ele>
        <time>2018-05-12T13:18:18Z</time>
      </trkpt>
      <trkpt lat="44.25559" lon="7.0307">
        <ele>1794.51</ele>
        <time>2018-05-12T13:18:20Z</time>
      </trkpt>
      <trkpt lat="44.25561" lon="7.03077">
        <ele>1793.73</ele>
        <time>2018-05-12T13:18:33Z</time>
      </trkpt>
      <trkpt lat="44.2556" lon="7.03087">
        <ele>1791.83</ele>
        <time>2018-05-12T13:18:49Z</time>
      </trkpt>
      <trkpt lat="44.25559" lon="7.03087">
        <ele>1791.81</ele>
        <time>2018-05-12T13:19:11Z</time>
      </trkpt>
      <trkpt lat="44.25562" lon="7.03087">
        <ele>1790.86</ele>
        <time>2018-05-12T13:19:36Z</time>
      </trkpt>
      <trkpt lat="44.2556" lon="7.03085">
        <ele>1791.71</ele>
        <time>2018-05-12T13:19:48Z</time>
      </trkpt>
      <trkpt lat="44.25559" lon="7.03084">
        <ele>1790.91</ele>
        <time>2018-05-12T13:20:12Z</time>
      </trkpt>
      <trkpt lat="44.25563" lon="7.03086">
        <ele>1791.64</ele>
        <time>2018-05-12T13:20:45Z</time>
      </trkpt>
      <trkpt lat="44.2556" lon="7.03084">
        <ele>1791.24</ele>
        <time>2018-05-12T13:21:06Z</time>
      </trkpt>
      <trkpt lat="44.25555" lon="7.03086">
        <ele>1791.56</ele>
        <time>2018-05-12T13:21:29Z</time>
      </trkpt>
      <trkpt lat="44.25558" lon="7.03085">
        <ele>1791.74</ele>
        <time>2018-05-12T13:21:51Z</time>
      </trkpt>
      <trkpt lat="44.25554" lon="7.03084">
        <ele>1791.59</ele>
        <time>2018-05-12T13:22:15Z</time>
      </trkpt>
      <trkpt lat="44.2555" lon="7.03079">
        <ele>1791.39</ele>
        <time>2018-05-12T13:22:20Z</time>
      </trkpt>
      <trkpt lat="44.25542" lon="7.03073">
        <ele>1791.01</ele>
        <time>2018-05-12T13:22:27Z</time>
      </trkpt>
      <trkpt lat="44.2552" lon="7.03063">
        <ele>1790.18</ele>
        <time>2018-05-12T13:22:47Z</time>
      </trkpt>
      <trkpt lat="44.255" lon="7.03063">
        <ele>1788.62</ele>
        <time>2018-05-12T13:23:03Z</time>
      </trkpt>
      <trkpt lat="44.25499" lon="7.03064">
        <ele>1788.46</ele>
        <time>2018-05-12T13:23:04Z</time>
      </trkpt>
      <trkpt lat="44.25512" lon="7.03077">
        <ele>1785.4</ele>
        <time>2018-05-12T13:23:15Z</time>
      </trkpt>
      <trkpt lat="44.25528" lon="7.03088">
        <ele>1782.52</ele>
        <time>2018-05-12T13:23:28Z</time>
      </trkpt>
      <trkpt lat="44.25535" lon="7.031">
        <ele>1781.14</ele>
        <time>2018-05-12T13:23:36Z</time>
      </trkpt>
      <trkpt lat="44.25546" lon="7.03121">
        <ele>1778.85</ele>
        <time>2018-05-12T13:23:49Z</time>
      </trkpt>
      <trkpt lat="44.25549" lon="7.0313">
        <ele>1778.1</ele>
        <time>2018-05-12T13:23:54Z</time>
      </trkpt>
      <trkpt lat="44.25552" lon="7.03151">
        <ele>1776.34</ele>
        <time>2018-05-12T13:24:05Z</time>
      </trkpt>
      <trkpt lat="44.25551" lon="7.03157">
        <ele>1775.92</ele>
        <time>2018-05-12T13:24:08Z</time>
      </trkpt>
      <trkpt lat="44.25553" lon="7.03164">
        <ele>1774.81</ele>
        <time>2018-05-12T13:24:12Z</time>
      </trkpt>
      <trkpt lat="44.25555" lon="7.03171">
        <ele>1774.19</ele>
        <time>2018-05-12T13:24:16Z</time>
      </trkpt>
      <trkpt lat="44.25561" lon="7.03181">
        <ele>1772.67</ele>
        <time>2018-05-12T13:24:23Z</time>
      </trkpt>
      <trkpt lat="44.2557" lon="7.03199">
        <ele>1770.25</ele>
        <time>2018-05-12T13:24:36Z</time>
      </trkpt>
      <trkpt lat="44.2557" lon="7.03201">
        <ele>1770.16</ele>
        <time>2018-05-12T13:24:37Z</time>
      </trkpt>
      <trkpt lat="44.25571" lon="7.03208">
        <ele>1769.41</ele>
        <time>2018-05-12T13:24:41Z</time>
      </trkpt>
      <trkpt lat="44.25577" lon="7.03229">
        <ele>1767.01</ele>
        <time>2018-05-12T13:24:56Z</time>
      </trkpt>
      <trkpt lat="44.25583" lon="7.03244">
        <ele>1765.33</ele>
        <time>2018-05-12T13:25:06Z</time>
      </trkpt>
      <trkpt lat="44.25588" lon="7.03262">
        <ele>1763.33</ele>
        <time>2018-05-12T13:25:19Z</time>
      </trkpt>
      <trkpt lat="44.25595" lon="7.0328">
        <ele>1761.7</ele>
        <time>2018-05-12T13:25:32Z</time>
      </trkpt>
      <trkpt lat="44.25595" lon="7.03288">
        <ele>1760.38</ele>
        <time>2018-05-12T13:25:37Z</time>
      </trkpt>
      <trkpt lat="44.25597" lon="7.03301">
        <ele>1759.06</ele>
        <time>2018-05-12T13:25:49Z</time>
      </trkpt>
      <trkpt lat="44.25608" lon="7.03333">
        <ele>1755.64</ele>
        <time>2018-05-12T13:26:10Z</time>
      </trkpt>
      <trkpt lat="44.2561" lon="7.03342">
        <ele>1754.52</ele>
        <time>2018-05-12T13:26:15Z</time>
      </trkpt>
      <trkpt lat="44.25621" lon="7.03356">
        <ele>1751.19</ele>
        <time>2018-05-12T13:26:27Z</time>
      </trkpt>
      <trkpt lat="44.25626" lon="7.03371">
        <ele>1748.56</ele>
        <time>2018-05-12T13:26:38Z</time>
      </trkpt>
      <trkpt lat="44.25629" lon="7.03376">
        <ele>1747.87</ele>
        <time>2018-05-12T13:26:43Z</time>
      </trkpt>
      <trkpt lat="44.25637" lon="7.03381">
        <ele>1746.33</ele>
        <time>2018-05-12T13:26:51Z</time>
      </trkpt>
      <trkpt lat="44.25644" lon="7.03387">
        <ele>1744.56</ele>
        <time>2018-05-12T13:27:04Z</time>
      </trkpt>
      <trkpt lat="44.25644" lon="7.03392">
        <ele>1743.8</ele>
        <time>2018-05-12T13:27:07Z</time>
      </trkpt>
      <trkpt lat="44.25652" lon="7.03415">
        <ele>1740.27</ele>
        <time>2018-05-12T13:27:23Z</time>
      </trkpt>
      <trkpt lat="44.25655" lon="7.03421">
        <ele>1739.23</ele>
        <time>2018-05-12T13:27:28Z</time>
      </trkpt>
      <trkpt lat="44.25658" lon="7.03423">
        <ele>1738.83</ele>
        <time>2018-05-12T13:27:30Z</time>
      </trkpt>
      <trkpt lat="44.25665" lon="7.03431">
        <ele>1737.6</ele>
        <time>2018-05-12T13:27:37Z</time>
      </trkpt>
      <trkpt lat="44.2567" lon="7.03436">
        <ele>1736.39</ele>
        <time>2018-05-12T13:27:43Z</time>
      </trkpt>
      <trkpt lat="44.2568" lon="7.03448">
        <ele>1734.79</ele>
        <time>2018-05-12T13:27:56Z</time>
      </trkpt>
      <trkpt lat="44.25686" lon="7.03464">
        <ele>1733.05</ele>
        <time>2018-05-12T13:28:10Z</time>
      </trkpt>
      <trkpt lat="44.25692" lon="7.03477">
        <ele>1731.71</ele>
        <time>2018-05-12T13:28:21Z</time>
      </trkpt>
      <trkpt lat="44.25703" lon="7.035">
        <ele>1728.87</ele>
        <time>2018-05-12T13:28:36Z</time>
      </trkpt>
      <trkpt lat="44.25705" lon="7.03503">
        <ele>1728.51</ele>
        <time>2018-05-12T13:28:38Z</time>
      </trkpt>
      <trkpt lat="44.25706" lon="7.03507">
        <ele>1728.01</ele>
        <time>2018-05-12T13:28:41Z</time>
      </trkpt>
      <trkpt lat="44.25707" lon="7.03511">
        <ele>1727.41</ele>
        <time>2018-05-12T13:28:44Z</time>
      </trkpt>
      <trkpt lat="44.25708" lon="7.03517">
        <ele>1726.8</ele>
        <time>2018-05-12T13:28:48Z</time>
      </trkpt>
      <trkpt lat="44.25715" lon="7.03532">
        <ele>1724.79</ele>
        <time>2018-05-12T13:28:58Z</time>
      </trkpt>
      <trkpt lat="44.25721" lon="7.03545">
        <ele>1722.61</ele>
        <time>2018-05-12T13:29:08Z</time>
      </trkpt>
      <trkpt lat="44.25719" lon="7.0356">
        <ele>1721.5</ele>
        <time>2018-05-12T13:29:22Z</time>
      </trkpt>
      <trkpt lat="44.25719" lon="7.03588">
        <ele>1718.79</ele>
        <time>2018-05-12T13:29:42Z</time>
      </trkpt>
      <trkpt lat="44.25719" lon="7.03594">
        <ele>1717.91</ele>
        <time>2018-05-12T13:29:47Z</time>
      </trkpt>
      <trkpt lat="44.25722" lon="7.03625">
        <ele>1714.64</ele>
        <time>2018-05-12T13:30:09Z</time>
      </trkpt>
      <trkpt lat="44.25741" lon="7.03647">
        <ele>1713.36</ele>
        <time>2018-05-12T13:30:31Z</time>
      </trkpt>
      <trkpt lat="44.25755" lon="7.0367">
        <ele>1712.34</ele>
        <time>2018-05-12T13:30:52Z</time>
      </trkpt>
      <trkpt lat="44.25769" lon="7.03704">
        <ele>1711.41</ele>
        <time>2018-05-12T13:31:17Z</time>
      </trkpt>
      <trkpt lat="44.25787" lon="7.03728">
        <ele>1710.33</ele>
        <time>2018-05-12T13:31:38Z</time>
      </trkpt>
      <trkpt lat="44.25805" lon="7.0375">
        <ele>1709.62</ele>
        <time>2018-05-12T13:31:58Z</time>
      </trkpt>
      <trkpt lat="44.25824" lon="7.03771">
        <ele>1707.84</ele>
        <time>2018-05-12T13:32:20Z</time>
      </trkpt>
      <trkpt lat="44.25833" lon="7.03777">
        <ele>1706.24</ele>
        <time>2018-05-12T13:32:33Z</time>
      </trkpt>
      <trkpt lat="44.25848" lon="7.03788">
        <ele>1705.25</ele>
        <time>2018-05-12T13:32:47Z</time>
      </trkpt>
      <trkpt lat="44.25855" lon="7.03793">
        <ele>1704.81</ele>
        <time>2018-05-12T13:32:53Z</time>
      </trkpt>
      <trkpt lat="44.25868" lon="7.03803">
        <ele>1703.66</ele>
        <time>2018-05-12T13:33:09Z</time>
      </trkpt>
      <trkpt lat="44.25892" lon="7.03813">
        <ele>1702.2</ele>
        <time>2018-05-12T13:33:32Z</time>
      </trkpt>
      <trkpt lat="44.25921" lon="7.03836">
        <ele>1700.73</ele>
        <time>2018-05-12T13:33:56Z</time>
      </trkpt>
      <trkpt lat="44.25936" lon="7.03866">
        <ele>1700.44</ele>
        <time>2018-05-12T13:34:20Z</time>
      </trkpt>
      <trkpt lat="44.25942" lon="7.03888">
        <ele>1699.78</ele>
        <time>2018-05-12T13:34:35Z</time>
      </trkpt>
      <trkpt lat="44.25946" lon="7.03895">
        <ele>1700.56</ele>
        <time>2018-05-12T13:34:40Z</time>
      </trkpt>
      <trkpt lat="44.2595" lon="7.0391">
        <ele>1701.55</ele>
        <time>2018-05-12T13:34:50Z</time>
      </trkpt>
      <trkpt lat="44.25952" lon="7.03921">
        <ele>1702.4</ele>
        <time>2018-05-12T13:34:59Z</time>
      </trkpt>
      <trkpt lat="44.25957" lon="7.03941">
        <ele>1703.84</ele>
        <time>2018-05-12T13:35:14Z</time>
      </trkpt>
      <trkpt lat="44.25959" lon="7.03944">
        <ele>1704.16</ele>
        <time>2018-05-12T13:35:17Z</time>
      </trkpt>
      <trkpt lat="44.25965" lon="7.03965">
        <ele>1705.31</ele>
        <time>2018-05-12T13:35:34Z</time>
      </trkpt>
      <trkpt lat="44.25972" lon="7.03996">
        <ele>1704.88</ele>
        <time>2018-05-12T13:35:57Z</time>
      </trkpt>
      <trkpt lat="44.25973" lon="7.0401">
        <ele>1704.45</ele>
        <time>2018-05-12T13:36:05Z</time>
      </trkpt>
      <trkpt lat="44.25973" lon="7.04019">
        <ele>1703.8</ele>
        <time>2018-05-12T13:36:11Z</time>
      </trkpt>
      <trkpt lat="44.25982" lon="7.04033">
        <ele>1702.89</ele>
        <time>2018-05-12T13:36:23Z</time>
      </trkpt>
      <trkpt lat="44.25983" lon="7.04036">
        <ele>1702.83</ele>
        <time>2018-05-12T13:36:25Z</time>
      </trkpt>
      <trkpt lat="44.25985" lon="7.04042">
        <ele>1702.38</ele>
        <time>2018-05-12T13:36:30Z</time>
      </trkpt>
      <trkpt lat="44.25986" lon="7.04049">
        <ele>1701.58</ele>
        <time>2018-05-12T13:36:35Z</time>
      </trkpt>
      <trkpt lat="44.25986" lon="7.04054">
        <ele>1701.31</ele>
        <time>2018-05-12T13:36:39Z</time>
      </trkpt>
      <trkpt lat="44.25988" lon="7.04062">
        <ele>1700.58</ele>
        <time>2018-05-12T13:36:51Z</time>
      </trkpt>
      <trkpt lat="44.25989" lon="7.04067">
        <ele>1700.4</ele>
        <time>2018-05-12T13:37:07Z</time>
      </trkpt>
      <trkpt lat="44.26" lon="7.04098">
        <ele>1697.33</ele>
        <time>2018-05-12T13:37:30Z</time>
      </trkpt>
      <trkpt lat="44.26012" lon="7.04131">
        <ele>1694.3</ele>
        <time>2018-05-12T13:37:52Z</time>
      </trkpt>
      <trkpt lat="44.26017" lon="7.0415">
        <ele>1692.21</ele>
        <time>2018-05-12T13:38:05Z</time>
      </trkpt>
      <trkpt lat="44.26019" lon="7.04155">
        <ele>1691.83</ele>
        <time>2018-05-12T13:38:08Z</time>
      </trkpt>
      <trkpt lat="44.26019" lon="7.04157">
        <ele>1691.38</ele>
        <time>2018-05-12T13:38:10Z</time>
      </trkpt>
      <trkpt lat="44.26022" lon="7.04164">
        <ele>1690.5</ele>
        <time>2018-05-12T13:38:15Z</time>
      </trkpt>
      <trkpt lat="44.26023" lon="7.04175">
        <ele>1689.34</ele>
        <time>2018-05-12T13:38:23Z</time>
      </trkpt>
      <trkpt lat="44.26028" lon="7.04192">
        <ele>1687.08</ele>
        <time>2018-05-12T13:38:35Z</time>
      </trkpt>
      <trkpt lat="44.26031" lon="7.04213">
        <ele>1685.1</ele>
        <time>2018-05-12T13:38:50Z</time>
      </trkpt>
      <trkpt lat="44.26033" lon="7.04225">
        <ele>1684.16</ele>
        <time>2018-05-12T13:38:58Z</time>
      </trkpt>
      <trkpt lat="44.26038" lon="7.0425">
        <ele>1682.27</ele>
        <time>2018-05-12T13:39:15Z</time>
      </trkpt>
      <trkpt lat="44.26045" lon="7.04275">
        <ele>1680.08</ele>
        <time>2018-05-12T13:39:31Z</time>
      </trkpt>
      <trkpt lat="44.2605" lon="7.04299">
        <ele>1677.4</ele>
        <time>2018-05-12T13:39:46Z</time>
      </trkpt>
      <trkpt lat="44.2605" lon="7.04305">
        <ele>1676.85</ele>
        <time>2018-05-12T13:39:50Z</time>
      </trkpt>
      <trkpt lat="44.26052" lon="7.04311">
        <ele>1676.08</ele>
        <time>2018-05-12T13:39:54Z</time>
      </trkpt>
      <trkpt lat="44.26052" lon="7.04323">
        <ele>1674.95</ele>
        <time>2018-05-12T13:40:02Z</time>
      </trkpt>
      <trkpt lat="44.26055" lon="7.04336">
        <ele>1673.44</ele>
        <time>2018-05-12T13:40:11Z</time>
      </trkpt>
      <trkpt lat="44.26058" lon="7.04342">
        <ele>1672.64</ele>
        <time>2018-05-12T13:40:16Z</time>
      </trkpt>
      <trkpt lat="44.26073" lon="7.04357">
        <ele>1672.06</ele>
        <time>2018-05-12T13:40:32Z</time>
      </trkpt>
      <trkpt lat="44.26082" lon="7.04376">
        <ele>1671.98</ele>
        <time>2018-05-12T13:40:47Z</time>
      </trkpt>
      <trkpt lat="44.26088" lon="7.0439">
        <ele>1672.31</ele>
        <time>2018-05-12T13:40:59Z</time>
      </trkpt>
      <trkpt lat="44.26091" lon="7.04403">
        <ele>1671.62</ele>
        <time>2018-05-12T13:41:13Z</time>
      </trkpt>
      <trkpt lat="44.26094" lon="7.04405">
        <ele>1671.56</ele>
        <time>2018-05-12T13:41:29Z</time>
      </trkpt>
      <trkpt lat="44.26093" lon="7.04405">
        <ele>1671.5</ele>
        <time>2018-05-12T13:41:30Z</time>
      </trkpt>
      <trkpt lat="44.26094" lon="7.04405">
        <ele>1671.51</ele>
        <time>2018-05-12T13:41:35Z</time>
      </trkpt>
      <trkpt lat="44.26093" lon="7.04405">
        <ele>1671.54</ele>
        <time>2018-05-12T13:41:38Z</time>
      </trkpt>
      <trkpt lat="44.26094" lon="7.04412">
        <ele>1671.8</ele>
        <time>2018-05-12T13:41:53Z</time>
      </trkpt>
      <trkpt lat="44.26098" lon="7.04414">
        <ele>1671.89</ele>
        <time>2018-05-12T13:41:56Z</time>
      </trkpt>
      <trkpt lat="44.26095" lon="7.04418">
        <ele>1671.66</ele>
        <time>2018-05-12T13:42:05Z</time>
      </trkpt>
      <trkpt lat="44.2609" lon="7.04415">
        <ele>1671.81</ele>
        <time>2018-05-12T13:42:20Z</time>
      </trkpt>
      <trkpt lat="44.26087" lon="7.04415">
        <ele>1672.04</ele>
        <time>2018-05-12T13:42:35Z</time>
      </trkpt>
      <trkpt lat="44.26081" lon="7.04415">
        <ele>1671.54</ele>
        <time>2018-05-12T13:42:40Z</time>
      </trkpt>
      <trkpt lat="44.26079" lon="7.04415">
        <ele>1671.24</ele>
        <time>2018-05-12T13:42:46Z</time>
      </trkpt>
      <trkpt lat="44.26079" lon="7.04414">
        <ele>1671.82</ele>
        <time>2018-05-12T13:42:54Z</time>
      </trkpt>
      <trkpt lat="44.26075" lon="7.04414">
        <ele>1672.05</ele>
        <time>2018-05-12T13:42:56Z</time>
      </trkpt>
      <trkpt lat="44.2608" lon="7.04416">
        <ele>1672.45</ele>
        <time>2018-05-12T13:43:02Z</time>
      </trkpt>
      <trkpt lat="44.26082" lon="7.04414">
        <ele>1671.67</ele>
        <time>2018-05-12T13:43:17Z</time>
      </trkpt>
      <trkpt lat="44.26078" lon="7.04412">
        <ele>1671.43</ele>
        <time>2018-05-12T13:43:20Z</time>
      </trkpt>
      <trkpt lat="44.26079" lon="7.04413">
        <ele>1671.76</ele>
        <time>2018-05-12T13:43:22Z</time>
      </trkpt>
      <trkpt lat="44.26084" lon="7.04412">
        <ele>1672.07</ele>
        <time>2018-05-12T13:43:28Z</time>
      </trkpt>
      <trkpt lat="44.26082" lon="7.04412">
        <ele>1671.95</ele>
        <time>2018-05-12T13:43:41Z</time>
      </trkpt>
      <trkpt lat="44.26078" lon="7.04411">
        <ele>1672.41</ele>
        <time>2018-05-12T13:43:52Z</time>
      </trkpt>
      <trkpt lat="44.26078" lon="7.04411">
        <ele>1672.36</ele>
        <time>2018-05-12T13:43:53Z</time>
      </trkpt>
      <trkpt lat="44.26088" lon="7.04413">
        <ele>1672.01</ele>
        <time>2018-05-12T13:44:01Z</time>
      </trkpt>
    </trkseg>
  </trk>
</gpx>